[[{"header":{"parameterUnit":"m.s-1","parameterCategory":1,"la1":30.6,"la2":28.766,"lo1":-90.7593,"lo2":-88.6598,"dy":0.0162,"dx":0.0183,"nx":116,"ny":114,"refTime":"2023-05-21T12:00:00:Z","depth":0,"parameterNumber":2,"parameterNumberName":"U-component_of_WINDS"},"data":[0.0,0.0,0.0,0.0,0.0,0.0,0.0,0.0,0.0,0.0,0.0,0.0,0.0,0.0,0.0,0.0,0.0,0.0,0.0,0.0,0.0,0.0,0.0,0.0,0.0,0.0,0.0,0.0,0.0,0.0,0.0,0.0,0.0,0.0,0.0,0.0,0.0,0.0,0.0,0.0,0.0,0.0,0.0,0.0,0.0,0.0,0.0,0.0,0.0,0.0,0.0,0.0,0.0,0.0,0.0,0.0,0.0,0.0,0.0,0.0,0.0,0.0,0.0,0.0,0.0,0.0,0.0,0.0,0.0,0.0,0.0,0.0,0.0,0.0,0.0,0.0,0.0,0.0,0.0,0.0,0.0,0.0,0.0,0.0,0.0,0.0,0.0,0.0,0.0,0.0,0.0,0.0,0.0,0.0,0.0,0.0,0.0,0.0,0.0,0.0,0.0,0.0,0.0,0.0,0.0,0.0,0.0,0.0,0.0,0.0,0.0,0.0,0.0,0.0,0.0,0.0,0.0,0.0,0.0,0.0,0.0,0.0,0.0,0.0,0.0,0.0,0.0,0.0,0.0,0.0,0.0,0.0,0.0,0.0,0.0,0.0,0.0,0.0,0.0,0.0,0.0,0.0,0.0,0.0,0.0,0.0,0.0,0.0,0.0,0.0,0.0,0.0,0.0,0.0,0.0,0.0,0.0,0.0,0.0,0.0,0.0,0.0,0.0,0.0,0.0,0.0,0.0,0.0,0.0,0.0,0.0,0.0,0.0,0.0,0.0,0.0,0.0,0.0,0.0,0.0,0.0,0.0,0.0,0.0,0.0,0.0,0.0,0.0,0.0,0.0,0.0,0.0,0.0,0.0,0.0,0.0,0.0,0.0,0.0,0.0,0.0,0.0,0.0,0.0,0.0,0.0,0.0,0.0,0.0,0.0,0.0,0.0,0.0,0.0,0.0,0.0,0.0,0.0,0.0,0.0,0.0,0.0,0.0,0.0,0.0,0.0,0.0,0.0,0.0,0.0,0.0,0.0,0.0,0.0,0.0,0.0,0.0,0.0,0.0,0.0,0.0,0.0,0.0,0.0,0.0,0.0,0.0,0.0,0.0,0.0,0.0,0.0,0.0,0.0,0.0,0.0,0.0,0.0,0.0,0.0,0.0,0.0,0.0,0.0,0.0,0.0,0.0,0.0,0.0,0.0,0.0,0.0,0.0,0.0,0.0,0.0,0.0,0.0,0.0,0.0,0.0,0.0,0.0,0.0,0.0,0.0,0.0,0.0,0.0,0.0,0.0,0.0,0.0,0.0,0.0,0.0,0.0,0.0,0.0,0.0,0.0,0.0,0.0,0.0,0.0,0.0,0.0,0.0,0.0,0.0,0.0,0.0,0.0,0.0,0.0,0.0,0.0,0.0,0.0,0.0,0.0,0.0,0.0,0.0,0.0,0.0,0.0,0.0,0.0,0.0,0.0,0.0,0.0,0.0,0.0,0.0,0.0,0.0,0.0,0.0,0.0,0.0,0.0,0.0,0.0,0.0,0.0,0.0,0.0,0.0,0.0,0.0,0.0,0.0,0.0,0.0,0.0,0.0,0.0,0.0,0.0,0.0,0.0,0.0,0.0,0.0,0.0,0.0,0.0,0.0,0.0,0.0,0.0,0.0,0.0,0.0,0.0,0.0,0.0,0.0,0.0,0.0,0.0,0.0,0.0,0.0,0.0,0.0,0.0,0.0,0.0,0.0,0.0,0.0,0.0,0.0,0.0,0.0,0.0,0.0,0.0,0.0,0.0,0.0,0.0,0.0,0.0,0.0,0.0,0.0,0.0,0.0,0.0,0.0,0.0,0.0,0.0,0.0,0.0,0.0,0.0,0.0,0.0,0.0,0.0,0.0,0.0,0.0,0.0,0.0,0.0,0.0,0.0,0.0,0.0,0.0,0.0,0.0,0.0,0.0,0.0,0.0,0.0,0.0,0.0,0.0,0.0,0.0,0.0,0.0,0.0,0.0,0.0,0.0,0.0,0.0,0.0,0.0,0.0,0.0,0.0,0.0,0.0,0.0,0.0,0.0,0.0,0.0,0.0,0.0,0.0,0.0,0.0,0.0,0.0,0.0,0.0,0.0,0.0,0.0,0.0,0.0,0.0,0.0,0.0,0.0,0.0,0.0,0.0,0.0,0.0,0.0,0.0,0.0,0.0,0.0,0.0,0.0,0.0,0.0,0.0,0.0,0.0,0.0,0.0,0.0,0.0,0.0,0.0,0.0,0.0,0.0,0.0,0.0,0.0,0.0,0.0,0.0,0.0,0.0,0.0,0.0,0.0,0.0,0.0,0.0,0.0,0.0,0.0,0.0,0.0,0.0,0.0,0.0,0.0,0.0,0.0,0.0,0.0,0.0,0.0,0.0,0.0,0.0,0.0,0.0,0.0,0.0,0.0,0.0,0.0,0.0,0.0,0.0,0.0,0.0,0.0,0.0,0.0,0.0,0.0,0.0,0.0,0.0,0.0,0.0,0.0,0.0,0.0,0.0,0.0,0.0,0.0,0.0,0.0,0.0,0.0,0.0,0.0,0.0,0.0,0.0,0.0,0.0,0.0,0.0,0.0,0.0,0.0,0.0,0.0,0.0,0.0,0.0,0.0,0.0,0.0,0.0,0.0,0.0,0.0,0.0,0.0,0.0,0.0,0.0,0.0,0.0,0.0,0.0,0.0,0.0,0.0,0.0,0.0,0.0,0.0,0.0,0.0,0.0,0.0,0.0,0.0,0.0,0.0,0.0,0.0,0.0,0.0,0.0,0.0,0.0,0.0,0.0,0.0,0.0,0.0,0.0,0.0,0.0,0.0,0.0,0.0,0.0,0.0,0.0,0.0,0.0,0.0,0.0,0.0,0.0,0.0,0.0,0.0,0.0,0.0,0.0,0.0,0.0,0.0,0.0,0.0,0.0,0.0,0.0,0.0,0.0,0.0,0.0,0.0,0.0,0.0,0.0,0.0,0.0,0.0,0.0,0.0,0.0,0.0,0.0,0.0,0.0,0.0,0.0,0.0,0.0,0.0,0.0,0.0,0.0,0.0,0.0,0.0,0.0,0.0,0.0,0.0,0.0,0.0,0.0,0.0,0.0,0.0,0.0,0.0,0.0,0.0,0.0,0.0,0.0,0.0,0.0,0.0,0.0,0.0,0.0,0.0,0.0,0.0,0.0,0.0,0.0,0.0,0.0,0.0,0.0,0.0,0.0,0.0,0.0,0.0,0.0,0.0,0.0,0.0,0.0,0.0,0.0,0.0,0.0,0.0,0.0,0.0,0.0,0.0,0.0,0.0,0.0,0.0,0.0,0.0,0.0,0.0,0.0,0.0,0.0,0.0,0.0,0.0,0.0,0.0,0.0,0.0,0.0,0.0,0.0,0.0,0.0,0.0,0.0,0.0,0.0,0.0,0.0,0.0,0.0,0.0,0.0,0.0,0.0,0.0,0.0,0.0,0.0,0.0,0.0,0.0,0.0,0.0,0.0,0.0,0.0,0.0,0.0,0.0,0.0,0.0,0.0,0.0,0.0,0.0,0.0,0.0,0.0,0.0,0.0,0.0,0.0,0.0,0.0,0.0,0.0,0.0,0.0,0.0,0.0,0.0,0.0,0.0,0.0,0.0,0.0,0.0,0.0,0.0,0.0,0.0,0.0,0.0,0.0,0.0,0.0,0.0,0.0,0.0,0.0,0.0,0.0,0.0,0.0,0.0,0.0,0.0,0.0,0.0,0.0,0.0,0.0,0.0,0.0,0.0,0.0,0.0,0.0,0.0,0.0,0.0,0.0,0.0,0.0,0.0,0.0,0.0,0.0,0.0,0.0,0.0,0.0,0.0,0.0,0.0,0.0,0.0,0.0,0.0,0.0,0.0,0.0,0.0,0.0,0.0,0.0,0.0,0.0,0.0,0.0,0.0,0.0,0.0,0.0,0.0,0.0,0.0,0.0,0.0,0.0,0.0,0.0,0.0,0.0,0.0,0.0,0.0,0.0,0.0,0.0,0.0,0.0,0.0,0.0,0.0,0.0,0.0,0.0,0.0,0.0,0.0,0.0,0.0,0.0,0.0,0.0,0.0,0.0,0.0,0.0,0.0,0.0,0.0,0.0,0.0,0.0,0.0,0.0,0.0,0.0,0.0,0.0,0.0,0.0,0.0,0.0,0.0,0.0,0.0,0.0,0.0,0.0,0.0,0.0,0.0,0.0,0.0,0.0,0.0,0.0,0.0,0.0,0.0,0.0,0.0,0.0,0.0,0.0,0.0,0.0,0.0,0.0,0.0,0.0,0.0,0.0,0.0,0.0,0.0,0.0,0.0,0.0,0.0,0.0,0.0,0.0,0.0,0.0,0.0,0.0,0.0,0.0,0.0,0.0,0.0,0.0,0.0,0.0,0.0,0.0,0.0,0.0,0.0,0.0,0.0,0.0,0.0,0.0,0.0,0.0,0.0,0.0,0.0,0.0,0.0,0.0,0.0,0.0,0.0,0.0,0.0,0.0,0.0,0.0,0.0,0.0,0.0,0.0,0.0,0.0,0.0,0.0,0.0,0.0,0.0,0.0,0.0,0.0,0.0,0.0,0.0,0.0,0.0,0.0,0.0,0.0,0.0,0.0,0.0,0.0,0.0,0.0,0.0,0.0,0.0,0.0,0.0,0.0,0.0,0.0,0.0,0.0,0.0,0.0,0.0,0.0,0.0,0.0,0.0,0.0,0.0,0.0,0.0,0.0,0.0,0.0,0.0,0.0,0.0,0.0,0.0,0.0,0.0,0.0,0.0,0.0,0.0,0.0,0.0,0.0,0.0,0.0,0.0,0.0,0.0,0.0,0.0,0.0,0.0,0.0,0.0,0.0,0.0,0.0,0.0,0.0,0.0,0.0,0.0,0.0,0.0,0.0,0.0,0.0,0.0,0.0,0.0,0.0,0.0,0.0,0.0,0.0,0.0,0.0,0.0,0.0,0.0,0.0,0.0,0.0,0.0,0.0,0.0,0.0,0.0,0.0,0.0,0.0,0.0,0.0,0.0,0.0,0.0,0.0,0.0,0.0,0.0,0.0,0.0,0.0,0.0,0.0,0.0,0.0,0.0,0.0,0.0,0.0,0.0,0.0,0.0,0.0,0.0,0.0,0.0,0.0,0.0,0.0,0.0,0.0,0.0,0.0,0.0,0.0,0.0,0.0,0.0,0.0,0.0,0.0,0.0,0.0,0.0,0.0,0.0,0.0,0.0,0.0,0.0,0.0,0.0,0.0,0.0,0.0,0.0,0.0,0.0,0.0,0.0,0.0,0.0,0.0,0.0,0.0,0.0,0.0,0.0,0.0,0.0,0.0,0.0,0.0,0.0,0.0,0.0,0.0,0.0,0.0,0.0,0.0,0.0,0.0,0.0,0.0,0.0,0.0,0.0,0.0,0.0,0.0,0.0,0.0,0.0,0.0,0.0,0.0,0.0,0.0,0.0,0.0,0.0,0.0,0.0,0.0,0.0,0.0,0.0,0.0,0.0,0.0,0.0,0.0,0.0,0.0,0.0,0.0,0.0,0.0,0.0,0.0,0.0,0.0,0.0,0.0,0.0,0.0,0.0,0.0,0.0,0.0,0.0,0.0,0.0,0.0,0.0,0.0,0.0,0.0,0.0,0.0,0.0,0.0,0.0,0.0,0.0,0.0,0.0,0.0,0.0,0.0,0.0,0.0,0.0,0.0,0.0,0.0,0.0,0.0,0.0,0.0,0.0,0.0,0.0,0.0,0.0,0.0,0.0,0.0,0.0,0.0,0.0,0.0,0.0,0.0,0.0,0.0,0.0,0.0,0.0,0.0,0.0,0.0,0.0,0.0,0.0,0.0,0.0,0.0,0.0,0.0,0.0,0.0,0.0,0.0,0.0,0.0,0.0,0.0,0.0,0.0,0.0,0.0,0.0,0.0,0.0,0.0,0.0,0.0,0.0,0.0,0.0,0.0,0.0,0.0,0.0,0.0,0.0,0.0,0.0,0.0,0.0,0.0,0.0,0.0,0.0,0.0,0.0,0.0,0.0,0.0,0.0,0.0,0.0,0.0,0.0,0.0,0.0,0.0,0.0,0.0,0.0,0.0,3.7166,3.6557,0.0,0.0,0.0,0.0,0.0,0.0,0.0,0.0,0.0,0.0,0.0,0.0,0.0,0.0,0.0,0.0,0.0,0.0,0.0,0.0,0.0,0.0,0.0,0.0,0.0,0.0,0.0,0.0,0.0,0.0,0.0,0.0,0.0,0.0,0.0,0.0,0.0,0.0,3.2488,3.3303,3.4352,3.4289,3.3899,3.3225,0.0,0.0,0.0,0.0,0.0,0.0,0.0,0.0,0.0,0.0,0.0,0.0,0.0,0.0,0.0,0.0,0.0,0.0,0.0,0.0,0.0,0.0,0.0,0.0,0.0,0.0,0.0,0.0,0.0,0.0,0.0,0.0,0.0,0.0,0.0,0.0,0.0,0.0,0.0,0.0,0.0,0.0,0.0,0.0,0.0,0.0,0.0,0.0,0.0,0.0,0.0,0.0,0.0,0.0,0.0,0.0,0.0,0.0,0.0,0.0,0.0,0.0,0.0,0.0,0.0,0.0,0.0,0.0,0.0,0.0,3.7783,3.7453,0.0,0.0,0.0,0.0,0.0,0.0,0.0,0.0,0.0,0.0,0.0,0.0,0.0,0.0,0.0,0.0,0.0,0.0,0.0,0.0,0.0,0.0,0.0,2.7684,2.7747,2.7918,2.8073,2.8227,0.0,0.0,0.0,0.0,0.0,0.0,0.0,3.1853,3.2449,3.3385,3.4119,3.4971,3.5906,3.6596,3.5916,3.4076,3.3204,0.0,0.0,0.0,0.0,0.0,0.0,0.0,0.0,0.0,0.0,0.0,0.0,0.0,0.0,0.0,0.0,0.0,0.0,0.0,0.0,0.0,0.0,0.0,0.0,0.0,0.0,0.0,0.0,0.0,0.0,0.0,0.0,0.0,0.0,0.0,0.0,0.0,0.0,0.0,0.0,0.0,0.0,0.0,0.0,0.0,0.0,0.0,0.0,0.0,0.0,0.0,0.0,0.0,0.0,0.0,0.0,0.0,0.0,0.0,0.0,0.0,0.0,0.0,3.7809,3.7876,3.801,3.801,3.8343,3.8892,3.8266,3.8162,3.8367,3.798,0.0,0.0,0.0,0.0,0.0,0.0,0.0,0.0,0.0,0.0,0.0,0.0,0.0,0.0,0.0,0.0,0.0,0.0,0.0,0.0,0.0,2.7686,2.7874,2.7669,2.8339,2.8696,2.849,0.0,0.0,0.0,0.0,0.0,3.0668,3.1536,3.2299,3.2882,3.5269,3.6513,3.667,3.7469,3.7679,3.734,3.6472,3.6212,3.6395,0.0,0.0,0.0,0.0,0.0,0.0,0.0,0.0,0.0,0.0,0.0,0.0,0.0,0.0,0.0,0.0,0.0,0.0,0.0,0.0,0.0,0.0,0.0,0.0,0.0,0.0,0.0,0.0,0.0,0.0,0.0,0.0,0.0,0.0,0.0,0.0,0.0,0.0,0.0,0.0,0.0,3.7119,3.7119,0.0,0.0,0.0,0.0,0.0,0.0,0.0,0.0,0.0,0.0,0.0,0.0,0.0,3.8398,3.8284,3.8911,3.9185,3.9063,3.9063,3.9395,4.0019,4.0019,4.038,4.0966,4.0297,0.0,3.8405,3.8337,0.0,0.0,0.0,0.0,0.0,0.0,0.0,0.0,0.0,0.0,0.0,0.0,0.0,0.0,0.0,0.0,0.0,0.0,0.0,0.0,0.0,2.7519,2.7962,2.7885,2.8718,2.9212,2.9174,2.991,0.0,0.0,0.0,3.1877,3.1735,3.2799,3.3555,3.3975,3.552,3.6389,3.658,3.7327,3.7836,3.8154,3.7776,3.7346,3.6882,3.6559,0.0,0.0,0.0,0.0,0.0,0.0,0.0,0.0,0.0,0.0,0.0,0.0,0.0,0.0,0.0,0.0,0.0,0.0,0.0,0.0,0.0,0.0,0.0,0.0,0.0,0.0,0.0,0.0,0.0,0.0,0.0,0.0,0.0,0.0,0.0,0.0,0.0,0.0,0.0,3.6651,3.7017,3.7344,3.7166,3.7014,0.0,0.0,0.0,0.0,0.0,0.0,0.0,0.0,0.0,3.8503,3.9232,3.9581,3.9511,4.0212,4.0543,4.0481,4.0481,4.0654,4.0961,4.0961,4.112,4.1378,4.1094,4.0631,4.0029,3.9302,3.8624,3.8051,0.0,0.0,0.0,0.0,3.8651,3.8722,0.0,0.0,0.0,0.0,0.0,0.0,0.0,0.0,0.0,0.0,0.0,0.0,2.6768,2.7706,2.8344,2.8346,2.9373,2.9934,2.9756,3.0602,3.0994,3.0773,3.2119,3.2861,3.2834,3.3916,3.4622,3.4902,3.566,3.6159,3.6414,3.7086,3.7633,3.8066,3.8066,3.7859,3.7507,3.7312,3.7288,3.7282,0.0,0.0,0.0,0.0,0.0,0.0,0.0,0.0,0.0,0.0,0.0,0.0,0.0,0.0,0.0,0.0,0.0,0.0,0.0,0.0,0.0,0.0,0.0,0.0,0.0,0.0,0.0,0.0,0.0,0.0,0.0,0.0,0.0,0.0,0.0,0.0,0.0,3.6696,3.7096,3.7735,3.7732,3.7672,0.0,0.0,0.0,0.0,0.0,0.0,3.9587,3.9574,3.9656,3.9839,4.0379,4.076,4.0935,4.1435,4.1775,4.195,4.195,4.2057,4.2246,4.2246,4.2345,4.2511,4.2329,4.2246,4.2121,4.0608,3.9664,3.9215,3.9774,3.9678,3.9294,3.9808,4.0027,4.0114,0.0,0.0,0.0,0.0,0.0,0.0,0.0,0.0,0.0,0.0,0.0,2.7322,2.7437,2.8519,2.9185,2.9067,3.0496,3.0972,2.9956,3.1353,3.1988,3.1478,3.2145,3.2729,3.3171,3.4161,3.4763,3.4902,3.5891,3.6384,3.6414,3.7086,3.7421,3.7451,3.7451,3.8085,3.9136,3.8431,3.8143,3.7997,3.6301,0.0,0.0,0.0,0.0,0.0,0.0,0.0,0.0,0.0,0.0,0.0,0.0,0.0,0.0,0.0,0.0,0.0,0.0,0.0,0.0,0.0,0.0,0.0,0.0,0.0,0.0,0.0,0.0,0.0,0.0,0.0,0.0,0.0,0.0,0.0,0.0,0.0,0.0,3.9106,3.8596,0.0,0.0,0.0,0.0,3.8212,3.8894,3.9604,4.0303,4.0336,4.0644,4.1262,4.1328,4.1692,4.2381,4.2438,4.2794,4.349,4.349,4.3869,4.4538,4.4538,4.4919,4.5541,4.4836,4.4538,4.4372,4.2211,4.1276,4.1259,4.1286,4.1276,4.1266,4.1293,4.1309,4.1316,0.0,0.0,0.0,0.0,0.0,0.0,0.0,0.0,2.5674,2.5578,2.6656,2.7351,2.7144,2.8813,2.9986,3.0061,3.1345,3.2072,3.1904,3.243,3.2634,3.236,3.2658,3.3194,3.402,3.4675,3.5114,3.5283,3.5644,3.5821,3.5837,3.6061,3.6376,3.6761,3.6761,3.7251,3.8067,3.7805,3.7685,3.7626,3.6899,3.664,0.0,0.0,0.0,0.0,0.0,0.0,0.0,0.0,0.0,0.0,0.0,0.0,0.0,0.0,0.0,0.0,0.0,0.0,0.0,0.0,0.0,0.0,0.0,0.0,0.0,0.0,0.0,0.0,0.0,0.0,0.0,0.0,0.0,0.0,0.0,0.0,0.0,3.856,3.8782,0.0,3.9577,3.9626,3.9785,4.0226,4.0491,4.0763,4.1028,4.1484,4.1865,4.2099,4.3032,4.3645,4.391,4.439,4.4754,4.5019,4.5019,4.5152,4.5408,4.5408,4.5541,4.5789,4.5524,4.5408,4.5349,4.4563,4.367,4.2861,4.3346,4.3512,4.3586,4.4059,4.4224,4.4224,0.0,0.0,0.0,0.0,0.0,0.0,0.0,0.0,2.5876,2.596,2.7145,2.7932,2.7826,2.9645,3.0955,3.1159,3.2398,3.3092,3.2911,3.3171,3.3113,3.2629,3.3006,3.3711,3.4713,3.5039,3.5302,3.5496,3.5496,3.5496,3.5496,3.5496,3.5709,3.6101,3.6101,3.6337,3.6753,3.6753,3.7019,3.7365,3.6986,3.6791,3.6741,0.0,0.0,0.0,0.0,0.0,0.0,0.0,0.0,0.0,0.0,0.0,0.0,0.0,0.0,0.0,0.0,0.0,0.0,0.0,0.0,0.0,0.0,0.0,0.0,0.0,0.0,0.0,0.0,0.0,0.0,0.0,0.0,0.0,0.0,3.7884,3.8381,3.8874,3.9368,3.9955,4.0677,4.0736,4.1011,4.1726,4.1775,4.1998,4.2494,4.2975,4.3356,4.3604,4.4556,4.52,4.5441,4.5922,4.6303,4.6535,4.6535,4.6535,4.6535,4.6535,4.6535,4.6535,4.6535,4.6535,4.6535,4.6535,4.598,4.5087,4.5069,4.506,4.5134,4.5623,4.5806,4.5806,0.0,0.0,0.0,0.0,0.0,0.0,0.0,2.5849,2.6293,2.6813,2.8071,2.9081,2.9544,3.1027,3.2084,3.2302,3.3646,3.3998,3.284,3.3527,3.3457,3.2254,3.3203,3.419,3.5144,3.5205,3.5302,3.5496,3.5496,3.5496,3.5496,3.5496,3.5496,3.5496,3.5496,3.5496,3.5496,3.5496,3.6219,3.7269,3.6439,3.6172,3.6269,0.0,0.0,0.0,0.0,0.0,0.0,0.0,0.0,0.0,0.0,0.0,0.0,0.0,0.0,0.0,0.0,0.0,0.0,0.0,0.0,0.0,0.0,0.0,0.0,0.0,0.0,0.0,0.0,0.0,0.0,0.0,0.0,0.0,3.8265,3.8265,3.8801,4.0263,4.0452,4.072,4.1394,4.1494,4.1808,4.2546,4.2596,4.3223,4.467,4.477,4.5101,4.5806,4.5855,4.622,4.6957,4.6965,4.7338,4.8067,4.8067,4.8067,4.8067,4.8067,4.8067,4.8067,4.8067,4.8067,4.8067,4.8067,4.8067,4.7918,4.6452,4.5872,4.5872,4.5872,4.5872,4.5872,0.0,0.0,0.0,0.0,0.0,0.0,0.0,2.5849,2.6235,2.6636,2.8093,2.9162,2.9295,3.0922,3.2177,3.2615,3.3656,3.4241,3.4166,3.3913,3.337,3.2465,3.3936,3.4692,3.4477,3.5098,3.5447,3.5496,3.5496,3.5496,3.5496,3.5496,3.5496,3.5496,3.5496,3.5496,3.5496,3.5496,3.5693,3.603,3.6245,3.6276,3.6322,0.0,0.0,0.0,0.0,0.0,0.0,0.0,0.0,0.0,0.0,0.0,0.0,0.0,0.0,0.0,0.0,0.0,0.0,0.0,0.0,0.0,0.0,0.0,0.0,0.0,0.0,0.0,0.0,0.0,0.0,0.0,3.9799,3.9799,3.9799,3.9799,4.0123,4.1021,4.16,4.2206,4.2927,4.3472,4.4099,4.4845,4.4887,4.5077,4.5482,4.6004,4.6385,4.6584,4.7123,4.7752,4.8489,4.8506,4.887,4.9599,4.9599,4.9599,4.9599,4.9599,4.9599,4.9599,4.9599,4.9599,4.9599,4.9599,4.9599,4.945,4.7968,4.7404,4.7404,4.7404,4.7404,4.7404,0.0,0.0,0.0,0.0,0.0,0.0,0.0,2.5948,2.6577,2.7121,2.8459,2.9563,3.0109,3.1507,3.2655,3.3253,3.4024,3.4514,3.4568,3.3887,3.3537,3.3623,3.4377,3.4762,3.4754,3.5238,3.5496,3.5496,3.5789,3.5923,3.5923,3.6184,3.6304,3.6304,3.6304,3.6163,3.5923,3.5923,3.5759,3.5529,3.5878,3.5989,3.6045,3.7229,3.7192,3.6625,3.7494,3.7334,3.6626,3.6123,0.0,0.0,0.0,0.0,0.0,0.0,0.0,0.0,0.0,0.0,0.0,0.0,0.0,0.0,0.0,0.0,0.0,0.0,0.0,0.0,0.0,0.0,0.0,0.0,4.1084,4.1392,4.169,4.1475,4.1541,4.2239,4.2967,4.3703,4.4449,4.4903,4.5474,4.6203,4.6253,4.6535,4.7156,4.7587,4.7959,4.8266,4.8696,4.9135,4.9566,4.9566,4.9781,5.0203,5.0203,5.0203,5.0203,5.0203,5.0203,5.0203,5.0203,5.0203,5.0203,5.0203,5.0203,5.0104,0.0,0.0,0.0,0.0,4.892,4.892,0.0,0.0,0.0,0.0,0.0,0.0,0.0,2.6117,2.7111,2.7901,2.8936,3.0092,3.1368,3.2359,3.3224,3.3918,3.4478,3.4656,3.4295,3.3692,3.3889,3.5014,3.4598,3.4709,3.5481,3.5571,3.5601,3.5601,3.6276,3.6605,3.6605,3.715,3.7396,3.7396,3.7396,3.7097,3.6605,3.6605,3.6252,3.5706,3.5639,3.5564,3.5611,3.6631,3.6643,3.6281,3.7441,3.7445,3.6879,3.6859,0.0,0.0,0.0,0.0,0.0,0.0,0.0,0.0,0.0,0.0,0.0,0.0,0.0,0.0,0.0,0.0,0.0,0.0,0.0,0.0,0.0,0.0,0.0,0.0,4.2199,4.291,4.3722,4.3365,4.3216,4.3771,4.4506,4.5217,4.5855,4.6071,4.6452,4.7106,4.7222,4.7794,4.9009,4.9075,0.0,0.0,0.0,5.0056,5.0036,5.0225,5.0318,5.0289,5.04,5.046,5.046,5.046,5.046,5.046,5.046,5.046,5.0435,5.0349,5.0289,5.0298,5.0227,5.0135,5.0075,5.0152,5.0203,5.0203,0.0,0.0,0.0,0.0,0.0,0.0,0.0,2.6192,2.7204,2.7916,2.8936,3.0092,3.1368,3.2153,3.2912,3.3693,3.4064,3.4022,3.3475,3.4047,3.4365,3.424,3.4877,3.5329,3.5496,3.6036,3.6306,3.6306,3.6926,3.7231,3.7231,3.7351,3.7396,3.7396,3.7396,3.7345,3.7231,3.7231,3.7157,3.6992,3.6492,3.5983,3.5585,3.6274,3.6446,3.6514,3.7768,3.81,3.7977,3.78,3.7755,3.7627,3.6918,3.6606,0.0,0.0,0.0,0.0,0.0,0.0,0.0,0.0,0.0,0.0,0.0,0.0,0.0,0.0,0.0,0.0,0.0,0.0,0.0,4.296,4.3284,4.3845,4.5185,4.5765,4.5881,4.5433,4.6038,4.6535,4.6676,4.7769,4.8522,4.8655,4.9235,4.9376,4.896,4.894,4.8677,4.8123,4.8786,4.9097,4.8986,5.0381,5.1022,5.0927,5.1632,0.0,5.1968,5.1968,5.1968,5.1968,5.1968,5.1968,5.1924,5.1226,5.0918,5.0885,5.0399,4.9766,4.9232,4.9946,5.0203,5.0203,0.0,0.0,0.0,0.0,0.0,0.0,0.0,2.6293,2.7181,2.7676,2.8671,2.9772,3.087,3.1392,3.2062,3.311,3.3756,3.3969,3.3669,3.4315,3.4668,3.46,3.5083,3.5515,3.5836,3.6279,3.665,3.6941,3.7584,3.7898,3.7913,3.8248,3.8389,3.8389,3.8389,3.8204,3.7898,3.7898,3.7719,3.7366,3.7075,3.6567,3.6027,3.6309,3.6399,3.6538,3.7501,3.7843,3.7882,3.8089,3.8146,3.8138,3.8038,3.7696,3.7285,0.0,0.0,0.0,0.0,0.0,0.0,0.0,0.0,0.0,0.0,0.0,0.0,0.0,0.0,4.0796,4.2239,0.0,4.2977,4.4465,4.5012,4.5367,4.57,4.6389,4.6725,4.6388,4.6643,4.7144,4.7935,4.7939,4.8207,4.8949,4.894,4.8868,4.8798,4.8796,4.8776,4.8698,4.9123,4.9327,4.9254,5.0107,5.0524,5.0461,5.1334,5.1526,5.1105,5.1554,5.1745,5.1727,5.129,5.1352,5.169,5.0802,5.0209,4.9862,4.9964,5.027,5.0709,5.114,5.1297,5.1297,0.0,0.0,0.0,0.0,0.0,0.0,0.0,2.6387,2.7159,2.7485,2.8449,2.9464,3.0409,3.0634,3.1229,3.2413,3.3454,3.4033,3.3985,3.4433,3.4856,3.5195,3.5197,3.5533,3.6238,3.6529,3.6979,3.759,3.8272,3.8595,3.8601,3.9146,3.9406,3.9406,3.9406,3.9101,3.8595,3.8595,3.8278,3.7785,3.7659,3.7233,3.6663,3.6479,3.6334,3.6305,3.6966,3.7206,3.7325,3.8044,3.8292,3.8414,3.9084,3.8815,3.8206,3.8015,3.7653,0.0,0.0,0.0,0.0,0.0,0.0,0.0,0.0,3.9074,3.9761,4.0808,4.1451,4.2272,4.3762,4.4027,4.4412,4.5584,4.6278,4.6487,4.597,4.6408,4.6843,4.7028,4.6883,4.7313,4.8684,4.7763,4.758,4.8767,4.8344,4.8223,4.8663,4.8675,4.8883,4.9307,4.9483,4.9493,4.9323,4.9643,4.9716,4.9583,5.0432,5.048,4.9815,5.0519,5.0857,5.0802,5.0105,5.0105,5.0573,5.0027,4.9323,4.8672,4.9493,5.0662,5.1891,5.1891,5.1891,5.1891,0.0,0.0,0.0,0.0,0.0,0.0,0.0,0.0,2.73,2.7625,2.8503,2.9464,3.0409,3.0522,3.0898,3.1825,3.3091,3.3765,3.3575,3.4275,3.4856,3.5195,3.5197,3.5606,3.6452,3.7007,3.7629,3.8296,3.8966,3.9287,3.9287,3.9361,3.9406,3.9406,3.9406,3.9361,3.9287,3.9287,3.9242,3.9122,3.8527,3.7883,3.724,3.6703,3.6113,3.5683,3.6297,3.6508,3.67,3.7901,3.8292,3.8414,3.9084,3.9235,3.897,3.809,3.8264,3.8604,3.7896,3.8836,4.0031,4.0017,4.0467,4.0926,0.0,4.1075,4.1522,4.2943,4.3308,4.3795,4.5284,4.5557,4.5602,4.5691,4.5778,4.6001,4.653,4.6658,4.6914,4.7467,4.7034,4.6986,4.7699,4.82,4.8537,4.8703,4.924,4.9279,4.8641,4.86,4.8289,4.7598,4.8324,4.8366,4.7591,4.9065,4.9443,4.8744,4.9563,4.9884,4.9795,4.9894,4.9959,4.9949,4.9835,4.9453,4.8928,4.9553,4.9323,4.8672,4.9493,4.9913,5.0096,5.0096,5.0096,5.0096,0.0,0.0,0.0,0.0,0.0,0.0,0.0,0.0,0.0,2.7244,2.7869,2.8567,2.9309,2.9719,3.0209,3.0918,3.2321,3.3269,3.3532,3.4272,3.4806,3.5024,3.4941,3.5351,3.6296,3.6565,3.7257,3.8401,3.8676,3.9026,3.9406,3.9406,3.9406,3.9406,3.9406,3.9406,3.9406,3.9406,3.9406,3.9346,3.8661,3.8003,3.7336,3.6725,3.6073,3.5598,3.6326,3.6728,0.0,3.8119,3.8621,3.8884,3.9199,3.9225,3.9038,3.8529,3.8912,3.9567,3.9726,4.0301,4.0861,4.0866,4.1404,4.2041,4.247,4.2899,4.3516,4.4649,4.4879,4.5054,4.5636,4.6115,4.6281,4.5788,4.6394,4.671,4.6093,4.6333,4.6652,4.6828,4.6615,4.6923,4.8125,4.7663,4.7681,4.8568,4.845,4.8203,4.7849,4.7843,4.7688,4.7305,4.7641,4.7677,4.7309,4.7982,4.8182,4.7849,4.8702,4.8846,4.8366,4.8861,4.8821,4.8376,4.8882,4.862,4.786,4.8214,4.8151,4.7886,4.8209,4.8345,4.8454,4.9443,4.9795,4.9795,0.0,0.0,0.0,0.0,0.0,0.0,0.0,0.0,0.0,0.0,2.7339,2.7936,2.8527,2.9132,2.9675,3.0106,3.1552,3.269,3.3231,3.401,3.4574,3.4827,3.4742,3.5167,3.6179,3.6202,3.6831,3.8123,3.8123,3.8377,3.8853,3.8853,3.8853,3.8853,3.8853,3.8853,3.8853,3.8853,3.8853,3.8817,3.8317,3.7734,3.7097,3.6665,3.6219,3.5902,3.6549,3.6937,3.7324,3.8518,3.9093,3.9312,3.9547,3.9578,3.9501,3.9261,3.963,4.0276,4.0968,4.1467,4.1814,4.1849,4.2563,4.3413,4.3933,4.4486,4.5094,4.5931,4.593,4.5815,4.5972,4.6311,4.6369,4.5752,4.6495,4.6825,4.5862,4.6137,4.6482,4.6569,4.657,4.7032,4.8208,4.7268,4.7037,4.8162,4.7666,4.7309,4.7309,4.7309,4.7309,4.7309,4.7309,4.7309,4.7309,4.7309,4.7399,4.7589,4.8218,4.8292,4.7881,4.8517,4.8448,4.7892,4.8513,4.8427,4.7848,4.7848,4.7848,4.7848,4.7848,4.7848,4.7997,4.9216,4.9428,4.9132,0.0,0.0,0.0,0.0,0.0,0.0,0.0,0.0,0.0,0.0,0.0,0.0,0.0,2.9132,2.9507,2.9534,3.0937,3.1996,3.241,3.3308,3.4094,3.4681,3.4698,3.5167,3.6179,3.6202,3.6599,3.7426,3.7426,3.7441,3.7456,3.7456,3.7456,3.7456,3.7456,3.7456,3.7456,3.7456,3.7456,3.7456,3.7441,3.706,3.6523,3.6508,3.6572,3.6693,3.6919,3.6878,3.7021,3.9086,3.9642,3.9588,4.0191,4.0633,4.0834,4.0304,4.0402,4.0723,4.0954,4.2156,4.3359,4.3495,4.4623,4.5698,4.5715,4.5732,4.5963,4.6709,4.6258,4.5921,4.6632,4.6195,4.5685,4.5526,4.554,4.5747,4.6204,4.6287,4.6557,4.7179,4.7268,4.729,4.734,4.7301,4.729,4.7342,4.7305,4.7309,4.7309,4.7309,4.7309,4.7309,4.7309,4.7309,4.7309,4.7309,4.7623,4.8263,4.8296,4.8651,4.9243,4.9277,4.9266,4.9243,4.9277,4.9266,4.9243,4.9243,4.9243,4.9243,4.9243,4.9243,4.9254,4.931,4.8486,4.746,0.0,0.0,0.0,0.0,0.0,0.0,0.0,0.0,0.0,0.0,0.0,0.0,0.0,0.0,0.0,0.0,3.0535,3.1317,3.1593,3.2982,3.3839,3.3895,3.4428,3.4967,3.5523,3.5416,3.581,3.6799,3.6681,3.6882,3.7396,3.7396,3.7396,3.7396,3.7396,3.7396,3.7396,3.7396,3.7396,3.7366,3.6956,3.668,3.6502,3.6597,3.6649,3.687,0.0,3.8843,3.9242,4.0261,4.0631,4.0707,4.0786,4.0646,4.0564,4.1003,4.1625,4.2303,4.296,4.3965,4.4892,4.5031,4.5798,4.6535,4.6535,4.6908,4.7184,4.6887,4.6718,4.6383,4.5624,4.6069,4.6196,4.5075,4.5993,4.6702,4.6357,4.6674,4.7044,4.7268,4.7309,4.7309,4.7309,4.7309,4.7309,4.7309,4.7309,4.7309,4.7309,4.7309,4.7309,4.7309,4.7728,4.7963,4.7963,4.8397,4.8738,4.8962,4.8962,4.9082,4.9303,4.9303,4.9303,4.9303,4.9303,4.9303,4.9303,4.9303,4.9303,4.9303,4.9303,4.9303,4.9303,4.9303,4.9007,4.8663,0.0,0.0,0.0,0.0,0.0,0.0,0.0,0.0,0.0,0.0,0.0,0.0,0.0,0.0,0.0,0.0,0.0,3.0585,3.0859,3.2399,3.3297,3.3281,3.4005,3.4547,3.4808,3.4744,3.5083,3.5858,3.5852,3.6104,3.6615,3.6698,3.6723,3.6723,3.6723,3.6723,3.6723,3.6723,3.6885,3.7117,3.6735,3.677,3.7047,3.7127,3.7361,0.0,3.9061,3.9975,4.0657,4.1167,4.1437,4.1562,4.1427,4.1167,4.1088,4.2155,4.2846,4.3492,4.4446,4.5335,4.5958,4.5796,4.6314,4.6799,4.6534,4.6842,4.704,4.6508,4.6341,4.5987,4.499,4.554,4.5912,4.5207,4.627,4.7075,4.6791,4.7147,4.7381,4.7309,4.7309,4.7309,4.7309,4.7309,4.7309,4.7309,4.7309,4.7309,4.7309,4.7534,4.7653,4.7653,4.8308,4.8663,4.8663,4.9082,4.9411,4.9625,4.9864,4.9984,4.9984,4.9984,4.9984,4.9984,4.9984,4.9984,4.9984,4.9984,4.9984,4.9984,4.9984,4.9984,4.9984,4.9984,4.9984,4.9939,0.0,0.0,0.0,0.0,0.0,0.0,0.0,0.0,0.0,0.0,0.0,0.0,0.0,0.0,0.0,0.0,0.0,0.0,3.0207,3.1562,3.2495,3.2826,3.3505,3.3934,3.4102,3.4304,3.4498,3.4698,3.5022,3.5187,3.5189,3.5384,3.5495,3.5548,3.5556,3.5564,3.5617,3.5617,3.6061,3.6769,3.6769,3.7261,3.7995,3.8049,3.8578,3.9319,3.949,4.0234,4.1205,4.1702,4.198,4.2093,4.2045,4.2109,4.243,4.3572,4.4016,4.4347,4.5272,4.6108,4.6545,4.5866,4.6233,4.656,4.5859,4.5697,4.5688,4.566,4.5212,4.4812,4.4774,4.4714,4.4951,4.5849,4.6352,4.6864,4.7505,4.7581,4.7506,0.0,0.0,0.0,0.0,0.0,4.7298,4.7354,4.7313,4.7298,4.7354,4.7948,4.8319,4.8353,4.8992,4.9348,4.9348,4.9378,4.9684,5.0267,5.0907,5.1191,5.1191,5.1191,5.1191,5.1191,5.1191,5.1191,5.1191,5.1191,5.1191,5.1191,5.1191,5.1191,5.1191,5.1191,5.1191,5.1101,0.0,0.0,0.0,0.0,0.0,0.0,0.0,0.0,0.0,0.0,0.0,0.0,0.0,0.0,0.0,0.0,0.0,0.0,2.9417,3.0813,3.1757,3.1997,3.2892,3.3602,3.4088,3.4304,3.4498,3.4698,3.479,3.4875,3.4976,3.518,3.5538,3.6039,3.6173,3.6575,3.7134,3.7134,3.7342,3.767,3.767,3.7802,3.8073,3.8725,3.9107,3.938,4.0025,4.0764,4.1473,4.1464,4.1834,4.2157,4.1206,4.2173,4.3507,4.2738,4.4168,4.5816,4.4884,4.5685,4.6603,4.5883,4.5842,4.5924,4.5742,4.5697,4.557,4.5129,4.5027,4.4902,4.4499,4.5052,4.5652,4.5895,4.6593,4.7186,4.7355,4.7385,4.7348,4.7309,0.0,4.7309,4.7309,4.7309,4.7519,4.8008,4.7578,4.7519,4.8023,4.8203,4.8528,4.9033,4.9643,4.9964,4.9964,5.0469,5.0784,5.0951,5.1128,5.1191,5.1191,5.1191,5.1191,5.1191,5.1191,5.1191,5.1191,5.1191,5.1191,5.1191,5.1191,5.1191,5.1191,5.1191,5.1191,5.1187,0.0,0.0,0.0,0.0,0.0,0.0,0.0,0.0,0.0,0.0,0.0,0.0,0.0,0.0,0.0,0.0,0.0,0.0,0.0,3.03,3.106,3.1166,3.2002,3.2607,3.2955,3.3418,3.3733,3.3909,3.4351,3.4683,3.4902,3.5115,3.5454,3.5902,3.6069,3.657,3.7263,3.7362,3.7861,0.0,0.0,3.883,3.928,3.9663,3.9876,4.0016,4.0463,4.1046,4.1574,4.1363,4.1542,4.1811,4.1675,4.2827,4.4046,4.3278,4.4776,4.6503,4.5594,4.628,4.6983,4.5882,4.5603,4.5475,4.4942,4.4824,4.4758,4.4493,4.4607,4.4655,4.4358,4.4961,4.5637,4.6016,4.6592,4.71,4.739,4.7435,4.7391,0.0,4.7309,0.0,4.7713,4.7743,4.8023,4.8693,4.8113,4.8038,4.8708,4.8985,4.9314,4.9688,5.032,5.0652,5.0652,5.1011,5.1191,5.1191,5.1191,5.1191,5.1191,5.1191,5.1191,5.1191,5.1191,5.1191,5.1191,5.1191,5.1191,5.1191,5.1191,5.1191,5.1191,5.1191,5.1191,5.1247,0.0,0.0,0.0,0.0,0.0,0.0,0.0,0.0,0.0,0.0,0.0,0.0,0.0,0.0,0.0,0.0,0.0,0.0,0.0,0.0,3.0421,3.0506,3.1064,3.1409,3.1493,3.2237,3.2703,3.2902,3.3834,3.4489,3.4877,3.5098,3.5346,3.5591,3.5758,3.6209,3.6884,3.7171,3.8083,3.9336,3.9445,4.0025,4.0782,0.0,4.0687,4.0841,4.0918,4.1117,4.1343,4.1483,4.1447,4.1528,4.2564,4.358,4.4377,4.4182,4.5495,4.6937,4.65,4.7066,4.7396,4.5748,4.5341,4.5051,4.3954,4.37,4.3754,4.3997,4.4176,4.431,4.4339,4.4715,4.5302,4.6117,4.6446,4.6819,4.7469,4.7549,4.7499,4.7331,4.7384,4.7653,4.8233,4.8379,4.8708,4.9366,4.8876,4.8802,4.9381,4.9931,5.0237,5.0327,5.0907,5.1191,5.1191,5.1191,5.1191,5.1191,5.1191,5.1191,5.1191,5.1191,5.1191,5.1191,5.1191,5.1191,5.1191,5.1191,5.1191,5.1191,5.1191,5.1251,5.1325,5.1325,5.1397,5.1546,0.0,0.0,0.0,0.0,0.0,0.0,0.0,0.0,0.0,0.0,2.9117,2.9091,0.0,0.0,0.0,0.0,0.0,0.0,0.0,0.0,0.0,3.0478,3.0612,3.0929,3.1493,3.1908,3.2372,3.2902,3.351,3.4125,3.4748,3.5049,3.5519,3.6097,3.639,3.699,3.7814,3.8515,3.9074,3.9528,4.0252,4.0639,4.0807,4.0949,0.0,0.0,4.1553,4.0912,4.0161,4.2136,4.2703,4.2491,4.1949,4.3491,4.5167,4.3287,4.5563,4.8105,4.5439,4.6193,4.7196,4.505,4.4514,4.4369,4.3816,4.37,4.3793,4.4166,4.4281,4.4349,4.453,4.4925,4.5406,4.5885,4.6316,4.6775,4.728,4.7348,4.7342,4.7294,4.7788,4.8173,4.8293,4.8798,4.9385,4.9994,4.9949,4.9923,5.0039,5.0132,5.0446,5.1011,5.1131,5.1191,5.1191,5.1191,5.1191,5.1191,5.1191,5.1191,5.1191,5.1191,5.1191,5.1191,5.1191,5.1191,5.1191,5.1191,5.1191,5.1191,5.1191,5.1546,5.2037,5.2037,5.2381,5.2872,0.0,0.0,0.0,0.0,0.0,0.0,0.0,0.0,2.9597,2.9104,2.9227,2.9328,2.9257,2.9257,0.0,0.0,0.0,0.0,0.0,0.0,0.0,0.0,3.0036,3.0177,3.0502,3.1143,3.1839,3.2596,0.0,3.4138,3.4972,3.5236,3.5557,3.5956,3.629,3.6872,3.7655,3.8593,3.9252,3.9721,4.0603,4.0792,4.0588,0.0,0.0,0.0,4.2004,4.1821,4.1598,4.3035,4.3401,4.3187,4.2734,4.4064,4.5434,4.3535,4.5605,4.7981,4.5501,4.619,4.7193,4.5289,4.4815,4.4653,4.4,4.3851,4.3968,4.4377,4.4463,4.4492,4.4572,4.4701,4.5068,4.5955,4.6086,4.64,4.7327,4.7374,4.7309,4.7309,4.7889,4.8438,4.8783,4.94,5.0036,5.0667,5.0715,5.0715,5.0715,5.0715,5.0862,5.1191,5.1191,5.1191,5.1191,5.1191,5.1191,5.1191,5.1191,5.1191,5.1191,5.1191,5.1191,5.1191,5.1191,5.1397,5.1726,5.1726,5.1932,5.2232,5.2232,5.2453,5.2722,5.2722,5.2917,5.3258,0.0,0.0,0.0,0.0,0.0,0.0,0.0,2.9896,2.9879,2.9101,2.9408,2.9665,2.9556,2.9485,2.9438,0.0,0.0,0.0,0.0,0.0,0.0,0.0,0.0,0.0,2.9718,0.0,0.0,3.2184,3.2997,0.0,0.0,0.0,0.0,0.0,3.6046,3.6517,3.7108,3.8122,3.898,0.0,0.0,4.0817,0.0,0.0,0.0,0.0,0.0,4.2696,4.3041,4.3596,4.374,4.3686,4.3791,4.4707,4.5451,4.4071,4.581,4.7718,4.5649,4.6334,4.7205,4.55,4.5095,4.4893,4.4173,4.4007,4.4108,4.453,4.4591,4.4591,4.4591,4.4473,4.4793,4.609,4.5986,4.6179,4.7432,4.7467,4.7352,4.7309,4.8023,4.8723,4.9258,4.9976,5.0626,5.1161,5.1191,5.1191,5.1191,5.1191,5.1191,5.1191,5.1191,5.1191,5.1191,5.1191,5.1191,5.1191,5.1191,5.1191,5.1191,5.1191,5.1277,5.1412,5.1412,5.1786,5.2411,5.2411,5.2722,5.3198,5.3198,5.3291,5.3411,5.3411,5.3501,5.3695,0.0,0.0,0.0,0.0,0.0,0.0,0.0,3.0524,3.0213,2.9995,3.0021,3.005,3.0034,2.9764,2.9571,0.0,0.0,0.0,0.0,0.0,0.0,0.0,0.0,0.0,0.0,0.0,0.0,3.1851,3.2239,0.0,0.0,0.0,0.0,0.0,0.0,3.6343,3.6622,3.745,0.0,0.0,0.0,0.0,0.0,0.0,0.0,0.0,0.0,4.2681,4.2555,4.3218,4.3642,4.396,4.4443,4.5035,4.5365,4.4485,4.6354,4.8084,4.5177,4.601,4.7168,4.4936,4.4396,4.4313,4.4067,4.4007,4.4108,4.453,4.4591,4.4591,4.4591,4.4572,4.4941,4.611,4.6264,4.6564,4.7475,4.7581,4.7499,4.7331,4.8438,4.9228,4.9288,5.0406,5.1131,5.1191,5.1191,5.1191,5.1191,5.1191,5.1191,5.1191,5.1191,5.1191,5.1191,5.1191,5.1191,5.1191,5.1191,5.1191,5.1191,5.1191,5.1532,5.2112,5.2112,5.2498,5.3111,5.3111,5.3141,5.3198,5.3198,5.3575,5.4104,5.4104,5.4491,5.5027,0.0,0.0,0.0,0.0,0.0,0.0,3.0864,3.0741,3.049,2.9875,2.9968,3.0096,3.0096,2.9981,2.9904,0.0,0.0,0.0,0.0,0.0,0.0,0.0,0.0,0.0,0.0,0.0,3.1249,3.2099,3.2923,0.0,0.0,0.0,0.0,0.0,0.0,3.6724,3.687,3.7871,0.0,0.0,0.0,0.0,0.0,0.0,0.0,0.0,0.0,0.0,4.321,4.3806,4.3885,4.3944,4.5301,4.5621,4.5365,4.4678,4.6213,4.7579,4.4999,4.5672,4.6642,4.477,4.4383,4.4399,4.4066,4.4094,4.4262,4.4549,4.4591,4.4591,4.4591,4.4591,4.5008,4.6289,4.6384,4.6707,4.7862,4.7784,4.7574,4.7488,4.8561,4.9303,4.9303,5.0451,5.1191,5.1191,5.1191,5.1191,5.1191,5.1191,5.1191,5.1191,5.1191,5.1191,5.1191,5.1191,5.1191,5.1191,5.1191,5.1191,5.1206,5.1621,5.1947,5.2217,5.2633,5.3186,5.3803,5.3803,5.4039,5.4398,5.4398,5.4578,5.4805,5.4805,5.497,5.5207,0.0,0.0,0.0,0.0,0.0,3.1814,3.1113,3.1117,3.0932,3.0199,3.0262,3.0386,3.0447,3.0401,3.0371,3.0371,0.0,0.0,0.0,0.0,0.0,0.0,0.0,0.0,0.0,0.0,3.1486,3.2154,3.2996,3.387,0.0,0.0,3.6145,3.6585,0.0,0.0,0.0,0.0,0.0,0.0,0.0,0.0,0.0,0.0,0.0,0.0,0.0,0.0,0.0,0.0,0.0,4.4188,4.5737,4.6034,4.5741,4.5325,4.624,4.694,4.4912,4.5195,4.5715,4.4343,4.4218,4.4347,4.4049,4.4195,4.4435,4.4562,4.4591,4.4591,4.4591,4.4591,4.5037,4.6372,4.6484,4.6849,4.8124,4.8017,4.7784,4.772,4.8781,4.9483,4.9389,5.0497,5.1191,5.1191,5.1191,5.1191,5.1191,5.1191,5.1191,5.1191,5.1191,5.1191,5.1191,5.1191,5.1191,5.1191,5.1397,5.1502,5.1517,5.2187,5.2591,5.2815,5.3291,5.3877,5.4506,5.4506,5.4775,5.5207,5.5207,5.5207,5.5207,5.5207,5.5207,5.5207,0.0,0.0,0.0,0.0,0.0,0.0,0.0,3.1817,3.1596,3.1321,3.1109,3.108,3.1278,3.1102,3.0992,3.0992,0.0,0.0,0.0,0.0,0.0,0.0,0.0,0.0,0.0,0.0,3.1596,3.1806,3.1941,3.2766,3.4208,3.4417,3.5296,3.6723,0.0,0.0,0.0,0.0,0.0,0.0,0.0,0.0,0.0,0.0,0.0,0.0,0.0,0.0,0.0,0.0,0.0,0.0,0.0,4.6176,4.6586,4.6573,4.66,4.6294,4.4878,4.4507,4.4326,4.3507,4.3665,4.4012,4.4007,4.431,4.4591,4.4591,4.4591,4.4591,4.4591,4.4591,4.5037,4.6372,4.6603,4.6995,4.8144,4.8301,4.8228,4.8017,4.919,4.9899,4.9624,5.0578,5.1191,5.1191,5.1191,5.1191,5.1191,5.1191,5.1191,5.1191,5.1191,5.1191,5.1191,5.1191,5.1191,5.1206,5.1861,5.2187,5.2217,5.2887,5.356,5.4179,5.4194,5.4581,5.5192,5.5192,5.5192,5.5207,5.5207,5.5207,5.5207,5.5207,5.5207,5.5207,0.0,0.0,0.0,0.0,0.0,0.0,0.0,3.2058,3.1875,3.179,3.1516,3.1372,3.143,3.1386,3.1335,3.1335,0.0,0.0,0.0,0.0,0.0,0.0,0.0,0.0,0.0,0.0,3.1646,3.1933,3.2522,3.346,3.4693,3.5255,3.6236,3.7528,3.7682,3.7909,0.0,0.0,0.0,0.0,0.0,0.0,4.1333,0.0,0.0,0.0,0.0,0.0,0.0,0.0,0.0,0.0,0.0,0.0,0.0,4.5807,4.6084,4.6014,4.4878,4.4595,4.4521,4.4086,4.4205,4.4377,4.4233,4.4416,4.4591,4.4591,4.4591,4.4591,4.4591,4.4591,4.5037,4.6372,4.6603,4.7045,4.8342,4.8265,4.807,4.8007,4.8902,4.9832,5.0626,5.0998,5.1191,5.1191,5.1191,5.1191,5.1191,5.1191,5.1191,5.1191,5.1191,5.1191,5.1191,5.1191,5.1427,5.1887,5.2097,5.2453,5.2902,5.3578,5.3997,5.4224,5.4685,5.4999,5.5207,5.5207,5.5207,5.5207,5.5207,5.5207,5.5207,5.5207,5.5207,5.5207,0.0,0.0,0.0,0.0,0.0,0.0,0.0,3.2267,3.2136,3.208,3.1846,3.1703,3.176,3.1767,3.1767,3.1767,0.0,0.0,0.0,0.0,0.0,0.0,0.0,0.0,0.0,3.1774,3.2,3.2294,3.2926,3.3756,3.4773,3.5551,3.6511,3.7625,3.8053,3.8387,0.0,0.0,0.0,0.0,0.0,0.0,4.1294,0.0,0.0,0.0,0.0,0.0,0.0,0.0,0.0,0.0,0.0,0.0,0.0,0.0,4.5489,4.5488,4.4883,4.4633,4.4526,4.4441,4.4553,4.4676,4.4543,4.4619,4.4704,4.4704,4.4648,4.4591,4.4591,4.4806,4.532,4.6419,4.6803,4.7327,4.8336,4.8265,4.8263,4.871,4.9375,5.0196,5.1249,5.1249,5.1191,5.1191,5.1191,5.1191,5.1191,5.1191,5.1191,5.1191,5.1191,5.1191,5.1191,5.1191,5.1546,5.2202,5.2456,5.2932,5.3605,5.4266,5.4581,5.4596,5.5027,5.5207,0.0,5.5207,5.5207,5.5207,5.5207,5.5207,5.5207,5.5207,5.5207,5.5207,0.0,0.0,0.0,0.0,0.0,0.0,0.0,0.0,3.237,3.2261,3.2136,3.2101,3.2248,3.2247,3.2247,3.2247,0.0,0.0,0.0,0.0,0.0,0.0,0.0,0.0,0.0,3.2349,3.254,3.2794,3.3125,3.3714,3.4545,3.5404,3.6298,3.7217,3.8299,3.8887,0.0,0.0,0.0,0.0,0.0,0.0,0.0,0.0,0.0,0.0,0.0,0.0,0.0,0.0,0.0,0.0,0.0,0.0,0.0,0.0,0.0,0.0,0.0,4.4606,4.4383,4.461,4.4799,4.493,4.4911,4.4902,0.0,4.4883,4.4723,4.4606,4.4652,4.5176,4.5844,4.6542,4.7188,4.7753,4.8226,4.8311,4.8724,4.9847,5.0325,5.0837,5.1523,5.1354,5.1191,5.1191,5.1191,5.1191,5.1191,5.1191,5.1191,5.1191,5.1191,5.1191,5.1191,5.1251,5.1606,5.2276,5.2947,5.362,5.4284,5.4922,5.5207,5.5207,5.5207,5.5207,5.5207,5.5207,5.5207,5.5207,5.5207,5.5207,5.5207,5.5207,5.5207,5.5207,0.0,0.0,0.0,0.0,0.0,0.0,0.0,0.0,0.0,0.0,3.2713,3.2707,3.2725,3.2741,3.2741,0.0,0.0,0.0,0.0,0.0,0.0,0.0,0.0,0.0,0.0,3.2479,3.2627,3.2794,3.298,3.3698,3.4898,3.5515,3.6506,3.7819,3.85,3.9026,0.0,0.0,0.0,0.0,0.0,0.0,0.0,0.0,0.0,0.0,4.4143,4.4097,0.0,0.0,0.0,0.0,0.0,0.0,0.0,0.0,4.4114,4.4513,4.4581,0.0,4.4727,4.5165,4.5315,4.5278,0.0,4.4902,4.4855,4.4695,4.4629,4.476,4.5259,4.549,4.5982,4.7173,4.7511,4.7753,4.8226,4.8421,4.8825,4.96,5.0054,5.0646,5.1527,5.1354,5.1191,5.1191,5.1191,5.1191,5.1191,5.1191,5.1191,5.1191,5.1191,5.1191,5.1191,5.1711,5.2291,5.2962,5.3638,5.4326,5.497,5.5132,5.5207,5.5207,5.5207,5.5207,5.5207,5.5207,5.5207,5.5207,5.5207,5.5207,5.5207,5.5207,5.5207,5.5207,0.0,0.0,0.0,0.0,0.0,0.0,0.0,0.0,0.0,0.0,0.0,0.0,0.0,0.0,0.0,0.0,0.0,0.0,0.0,0.0,0.0,0.0,0.0,0.0,3.2895,3.2982,3.3297,3.3906,3.404,3.467,3.5792,3.6557,3.7297,3.8048,3.8844,3.9395,0.0,0.0,0.0,0.0,4.1365,0.0,0.0,0.0,0.0,0.0,4.4412,4.4284,0.0,4.409,4.3937,4.3726,0.0,0.0,0.0,0.0,4.383,4.4506,4.4329,4.4668,4.5164,4.554,4.557,4.5442,4.5216,4.5039,4.4865,4.4752,4.4657,4.4806,4.5484,4.5781,4.6279,4.7414,4.7702,4.7863,4.8125,4.8793,4.9332,4.9579,5.0332,5.0999,5.1383,5.1284,5.1191,5.1191,5.1191,5.1191,5.1191,5.1191,5.1191,5.1191,5.1191,5.1191,5.1191,5.1861,5.2543,5.3213,5.3877,5.4551,5.5207,5.5207,5.5207,5.5207,5.5207,5.5207,5.5207,5.5207,5.5207,5.5207,5.5207,5.5207,5.5207,5.5207,5.5401,5.5656,0.0,0.0,0.0,0.0,0.0,0.0,0.0,0.0,0.0,0.0,0.0,0.0,0.0,0.0,0.0,0.0,0.0,0.0,0.0,0.0,0.0,0.0,0.0,3.3309,3.3529,3.3555,3.4111,3.5227,3.5337,3.5875,3.6782,3.7747,3.8219,3.8269,3.926,3.9755,0.0,0.0,0.0,0.0,4.1792,0.0,0.0,0.0,0.0,0.0,0.0,0.0,0.0,4.4176,4.4034,4.3876,4.3704,0.0,0.0,0.0,0.0,0.0,4.4127,4.4645,4.5365,4.5682,4.5625,4.5488,4.5417,4.5142,4.4893,4.4865,4.4806,4.4951,4.5589,4.6137,4.6752,4.7579,4.7867,4.8031,4.808,4.9133,4.9863,4.976,5.0811,5.1471,5.1273,5.1214,5.1191,5.1191,5.1191,5.1191,5.1191,5.1191,5.1191,5.1191,5.1191,5.1251,5.1352,5.2022,5.268,5.3351,5.4027,5.4655,5.5207,5.5207,5.5207,5.5207,5.5207,5.5207,5.5207,5.5207,5.5207,5.5207,5.5207,5.5207,5.5207,5.5207,5.5611,5.6222,0.0,0.0,0.0,0.0,0.0,0.0,0.0,0.0,0.0,0.0,0.0,0.0,0.0,0.0,0.0,0.0,0.0,0.0,0.0,0.0,0.0,0.0,3.3607,3.3633,3.3678,3.3777,3.4339,3.5368,3.5388,3.5967,3.706,3.7844,3.8582,3.9282,3.9562,3.971,3.9736,0.0,0.0,0.0,4.2208,0.0,0.0,0.0,0.0,0.0,0.0,0.0,0.0,4.4281,4.4097,4.389,4.3868,0.0,0.0,0.0,0.0,0.0,4.4119,4.4232,4.4503,4.534,4.5524,4.5407,4.5077,4.494,4.4855,4.4676,4.5072,4.5595,4.6098,4.6848,4.7579,4.811,4.8078,4.8119,4.8468,4.9035,4.9671,5.0359,5.0924,5.1331,5.1518,5.1331,5.1191,5.1191,5.1191,5.1191,5.1191,5.1191,5.1191,5.1191,5.1191,5.1472,5.2037,5.2707,5.3381,5.4045,5.473,5.5102,5.5207,5.5207,5.5207,5.5207,5.5207,5.5207,5.5207,5.5207,5.5207,5.5207,5.5207,5.5207,5.5207,5.5207,5.5611,5.6357,0.0,0.0,0.0,0.0,0.0,0.0,0.0,0.0,0.0,0.0,0.0,0.0,0.0,0.0,0.0,0.0,0.0,0.0,0.0,0.0,0.0,3.3911,3.3987,3.3956,3.3809,3.4013,3.4567,3.5505,3.606,3.6823,3.7816,3.8557,3.9194,3.9707,3.9629,3.971,3.9939,0.0,0.0,0.0,0.0,0.0,0.0,0.0,0.0,0.0,0.0,0.0,0.0,0.0,4.4162,4.4068,4.3822,0.0,0.0,0.0,0.0,0.0,4.3901,4.4099,4.4408,4.5026,4.5086,4.4936,4.4629,4.4587,4.4559,4.4463,4.4981,4.5617,4.6192,4.6829,4.7382,4.7699,4.789,4.8139,4.8539,4.9228,4.9903,5.0529,5.1077,5.1413,5.139,5.1273,5.1191,5.1191,5.1191,5.1191,5.1191,5.1191,5.1191,5.1191,5.1546,5.2067,5.2737,5.3411,5.3907,5.4209,5.488,5.5207,5.5207,5.5207,5.5207,5.5207,5.5207,5.5207,5.5207,5.5207,5.5207,5.5207,5.5207,5.5207,5.5281,5.597,5.6419,5.6868,0.0,0.0,0.0,0.0,0.0,0.0,0.0,0.0,0.0,0.0,0.0,0.0,0.0,0.0,0.0,0.0,0.0,0.0,0.0,0.0,3.4182,3.4151,3.4275,3.4238,3.4,3.4232,3.4795,3.5685,3.6614,3.7616,3.8716,3.9277,3.9662,3.9856,3.9707,3.9869,4.0298,4.082,4.1315,0.0,0.0,0.0,0.0,0.0,0.0,0.0,0.0,0.0,0.0,0.0,0.0,0.0,0.0,0.0,0.0,4.2881,4.2982,4.3379,4.3572,4.3815,4.4151,4.471,4.4752,4.4581,4.4301,4.4262,4.4337,4.4432,4.5002,4.5674,4.6336,4.6894,4.7287,4.7435,4.7845,4.8285,4.8714,4.9499,5.0223,5.069,5.119,5.1424,5.1214,5.1191,5.1191,5.1191,5.1191,5.1191,5.1191,5.1191,5.1191,5.1191,5.1846,5.2516,5.3198,5.3862,5.4269,5.4446,5.494,5.5207,5.5207,5.5207,5.5207,5.5207,5.5207,5.5207,5.5207,5.5207,5.5207,5.5207,5.5207,5.5207,5.5341,5.6464,5.6987,5.7274,0.0,0.0,0.0,0.0,0.0,0.0,0.0,0.0,0.0,0.0,0.0,0.0,0.0,0.0,0.0,0.0,0.0,0.0,0.0,0.0,3.4417,3.4294,3.4411,3.4417,3.4275,3.4411,3.497,3.5971,3.6602,3.7846,3.96,3.965,3.9697,3.9723,3.9944,4.0306,4.0769,4.1063,4.1979,0.0,0.0,0.0,0.0,0.0,0.0,0.0,0.0,0.0,0.0,0.0,0.0,0.0,0.0,0.0,4.3357,4.2992,4.2564,4.2388,4.3208,4.3172,4.3189,4.4333,4.4752,4.4723,4.4147,4.4181,4.4426,4.4856,4.547,4.6143,4.6836,4.7484,4.7925,4.7954,4.8291,4.8718,4.9183,4.9797,5.0429,5.1076,5.1196,5.1214,5.1191,5.1191,5.1191,5.1191,5.1191,5.1191,5.1191,5.1191,5.1191,5.1191,5.1846,5.2516,5.3198,5.3862,5.4521,5.5132,5.5177,5.5207,5.5207,5.5207,5.5207,5.5207,5.5207,5.5207,5.5207,5.5207,5.5207,5.5207,5.5207,5.5207,5.5296,5.6013,5.6626,5.7199,0.0,0.0,0.0,0.0,0.0,0.0,0.0,0.0,0.0,0.0,0.0,0.0,0.0,0.0,0.0,0.0,0.0,0.0,0.0,0.0,3.4478,3.4429,3.4552,3.4594,3.4546,3.4594,3.4805,3.5194,3.6599,3.8143,3.9813,3.9813,3.9813,3.9853,4.0326,4.0736,4.1115,4.2051,4.2814,4.3433,0.0,0.0,0.0,0.0,0.0,0.0,0.0,0.0,0.0,0.0,4.418,4.445,4.4133,4.3804,4.3423,4.2866,4.2743,4.2865,4.3292,4.3318,4.3494,4.4529,4.4553,4.4243,4.389,4.4164,4.4581,4.4939,4.5733,4.6625,4.7468,4.759,4.7607,4.772,4.8131,4.8617,4.9224,4.9811,5.0446,5.1116,5.1191,5.1191,5.1191,5.1191,5.1191,5.1191,5.1191,5.1191,5.1191,5.1191,5.1191,5.1191,5.2247,5.2932,5.3198,5.4279,5.494,5.5207,5.5207,5.5207,5.5207,5.5207,5.5207,5.5207,5.5207,5.5207,5.5207,5.5207,5.5207,5.5207,5.5207,5.5207,5.5281,5.5953,5.6568,5.7199,0.0,0.0,0.0,0.0,0.0,0.0,0.0,0.0,0.0,0.0,0.0,0.0,0.0,0.0,0.0,0.0,0.0,0.0,3.4497,3.4576,3.4723,3.4966,3.5104,3.5294,3.5584,3.5578,3.531,3.4751,3.6554,3.8256,3.9849,3.9882,3.9901,3.9918,4.0377,4.0924,4.1554,4.251,4.3253,4.3826,4.4381,4.4455,0.0,0.0,0.0,0.0,0.0,0.0,0.0,0.0,4.4167,4.4291,4.3976,4.3574,4.3127,4.268,4.263,4.2781,4.3041,4.3306,4.3635,4.4235,4.4285,4.412,4.3857,4.4213,4.4755,4.5299,4.6214,4.7108,4.7757,4.7617,4.751,4.7867,4.8316,4.8831,4.949,5.0125,5.0697,5.1146,5.1191,5.1191,5.1191,5.1191,5.1191,5.1191,5.0893,5.0689,5.0689,5.0376,5.0338,5.0677,5.2,5.2866,5.3198,5.4533,5.5207,5.5207,5.5416,5.5401,5.5207,5.5207,5.5311,5.5521,5.5389,5.5417,5.5521,5.5404,5.5297,5.5207,5.5207,5.5207,5.5251,5.5728,5.6269,5.6913,0.0,0.0,0.0,0.0,0.0,0.0,0.0,0.0,0.0,0.0,0.0,0.0,0.0,0.0,0.0,0.0,0.0,0.0,3.4509,3.4745,3.5232,3.5969,3.613,3.6618,3.748,3.7497,3.6655,3.4944,3.6533,3.8137,3.971,3.9849,3.9907,3.9914,4.006,4.0869,4.2112,4.2267,4.3196,4.4591,4.4591,4.4103,0.0,0.0,0.0,0.0,0.0,0.0,0.0,0.0,4.3582,4.3802,4.3794,4.3142,4.2397,4.2397,4.2063,4.1827,4.2365,4.2993,4.3473,4.3342,4.3957,4.4479,4.4101,4.4317,4.4935,4.6073,4.7006,4.7591,4.7591,4.7591,4.7817,4.8491,4.8991,4.9505,5.0117,5.0787,5.1191,5.1191,5.1191,5.1179,5.1179,5.1179,5.1179,5.1167,5.0196,4.9601,4.9601,4.8583,4.8482,4.9537,5.0896,5.2119,5.3189,5.4533,5.5222,5.5237,5.5893,5.5863,5.5222,5.5222,5.5581,5.6194,5.5855,5.5907,5.6181,5.5855,5.5519,5.5222,5.5222,5.5222,5.5222,5.5222,5.5641,5.6297,0.0,0.0,0.0,0.0,0.0,0.0,0.0,0.0,0.0,0.0,0.0,0.0,0.0,0.0,0.0,0.0,0.0,0.0,3.4786,3.4947,3.5099,3.5215,3.5935,3.6415,3.6578,3.7192,3.7542,3.7634,3.813,3.89,3.9992,4.0558,4.0818,4.0858,4.1938,4.2642,4.3064,4.3759,4.3946,4.3765,4.3915,4.3729,0.0,0.0,0.0,0.0,0.0,0.0,0.0,0.0,0.0,0.0,4.3304,4.2813,4.2349,4.2117,4.245,4.2868,4.274,4.313,4.368,4.4115,4.4046,4.4152,4.5126,4.5328,4.5623,4.6773,4.7321,4.7591,4.7591,4.7488,4.7645,4.8469,4.8991,4.9505,5.0117,5.0787,5.1191,5.1191,5.0534,5.0076,5.0076,5.0076,4.9757,4.9018,4.934,4.9266,4.8507,4.8168,4.8156,4.8457,5.0504,5.1985,5.2767,5.4849,5.6132,5.6541,5.6748,5.6509,5.5923,5.6344,5.6643,5.6838,5.6732,5.6745,5.6838,5.6732,5.664,5.6541,5.6541,5.6541,5.6541,5.6541,5.6959,5.756,0.0,0.0,0.0,0.0,0.0,0.0,0.0,0.0,0.0,0.0,0.0,0.0,0.0,0.0,0.0,0.0,0.0,0.0,0.0,3.5069,3.5215,3.5481,3.6401,3.7173,3.7732,3.8263,3.8792,3.9317,3.8975,3.9375,4.047,4.0965,4.1366,4.1677,4.2567,4.2956,4.3014,4.3871,4.3959,4.3552,4.3915,4.3847,4.3481,0.0,0.0,0.0,0.0,0.0,0.0,0.0,0.0,0.0,4.2898,4.2405,4.1931,4.1845,4.2336,4.2848,4.2527,4.3017,4.36,4.3606,4.3743,4.4234,4.5614,4.6108,4.6427,4.6913,4.7262,4.7478,4.7478,4.7605,4.7962,4.8754,4.9325,4.9719,4.9925,5.0691,5.0881,5.0023,4.9732,4.9427,4.902,4.897,4.8708,4.8055,4.8208,4.8044,4.7408,4.6841,4.6847,4.7497,4.9408,5.1166,5.2742,5.431,5.5756,5.7094,5.6752,5.6666,5.6803,5.701,5.7244,5.7513,5.7513,5.7432,5.7325,5.7175,5.7094,5.7094,5.7094,5.7094,5.7094,5.7094,5.7363,5.7739,0.0,0.0,0.0,0.0,0.0,0.0,0.0,0.0,0.0,0.0,0.0,0.0,0.0,0.0,0.0,0.0,0.0,0.0,0.0,0.0,3.551,3.6358,3.7287,3.8515,4.0072,4.0096,4.0096,4.0096,3.9362,3.9703,4.1017,4.128,4.1728,4.2317,4.2452,4.2462,4.2445,4.3206,4.3586,4.3718,4.4281,4.4183,4.3729,4.4263,0.0,0.0,0.0,0.0,0.0,0.0,0.0,0.0,4.2507,4.1932,4.1348,4.1627,4.1941,4.217,4.2026,4.2747,4.3294,4.2417,4.3269,4.4617,4.5745,4.6642,4.7121,4.6716,4.6968,4.7251,4.7251,4.7811,4.848,4.9187,4.9785,5.0045,4.9659,5.0451,5.029,4.8244,4.877,4.8933,4.7954,4.7839,4.7815,4.7713,4.6854,4.6321,4.6243,4.5059,4.509,4.6638,4.7956,4.9968,5.2742,5.3147,5.4549,5.6849,5.6167,5.6444,5.7556,5.7307,5.7525,5.8108,5.8108,5.7976,5.7716,5.7358,5.7195,5.7208,5.7234,5.7247,5.7247,5.7261,5.7287,5.7363,0.0,0.0,0.0,0.0,0.0,0.0,0.0,0.0,0.0,0.0,0.0,0.0,0.0,0.0,0.0,0.0,0.0,0.0,0.0,0.0,3.5661,3.6225,3.7627,3.8938,4.0089,4.0096,4.0096,4.0096,4.0485,4.0861,4.1175,4.2361,4.2702,4.2344,4.3569,4.3748,4.3217,4.4126,4.4109,4.3494,4.3783,4.3712,4.3474,4.3491,4.3683,0.0,0.0,0.0,0.0,0.0,0.0,0.0,4.1802,4.1449,4.1357,4.1676,4.199,4.2263,4.2607,4.2786,4.288,4.2815,4.3682,4.4773,4.5709,4.6348,4.6771,4.6822,4.692,4.6997,4.6997,4.7532,4.8276,4.9164,4.9674,4.9884,4.9635,4.9795,4.945,4.8142,4.7459,4.6998,4.6764,4.6738,4.636,4.5475,4.5781,4.5728,4.51,4.503,4.5273,4.5832,4.7913,4.9618,5.095,5.2375,5.3722,5.4992,5.5809,5.6336,5.6619,5.7552,5.8034,5.8182,5.8182,5.8154,5.8085,5.8006,5.796,5.7987,5.8247,5.8357,5.8384,5.8584,5.8665,5.8695,0.0,0.0,0.0,0.0,0.0,0.0,0.0,0.0,0.0,0.0,0.0,0.0,0.0,0.0,0.0,0.0,0.0,0.0,0.0,0.0,3.5782,3.6875,3.8055,3.9133,4.0089,4.0096,4.0096,4.0096,4.0838,4.1383,4.1745,4.2506,4.3064,4.344,4.4235,4.4154,4.3457,4.4322,4.4255,4.3573,4.3959,4.4112,4.4067,4.3922,4.381,4.3704,4.3617,0.0,0.0,0.0,0.0,0.0,0.0,0.0,4.1713,4.1932,4.2473,4.2989,4.285,4.2892,4.3058,4.3397,4.3891,4.4623,4.5776,4.6161,4.6328,4.651,4.6679,4.6878,4.7299,4.7937,4.8636,4.9457,4.968,4.954,4.8913,4.8832,4.8231,4.6608,4.6399,4.619,4.5648,4.5475,4.5154,4.4545,4.4776,4.4948,4.4935,4.4958,4.526,4.5955,4.7443,4.8803,4.996,5.0962,5.231,5.3974,5.4349,5.4767,5.5267,5.7288,5.821,5.821,5.821,5.8293,5.8445,5.8445,5.8527,5.8649,5.8814,5.8897,5.8911,5.9045,5.9099,5.9099,0.0,0.0,0.0,0.0,0.0,0.0,0.0,0.0,0.0,0.0,0.0,0.0,0.0,0.0,0.0,0.0,0.0,0.0,0.0,0.0,0.0,3.7844,3.8613,3.9343,4.0089,4.0096,4.0096,4.0096,4.0703,0.0,0.0,0.0,4.3173,4.4398,4.454,4.4154,4.345,4.4255,4.4305,4.3902,4.4368,4.4602,4.4699,0.0,0.0,4.3204,4.3541,4.302,4.2166,4.2278,0.0,0.0,0.0,0.0,4.2092,4.2367,4.3048,4.3604,4.3071,4.314,4.3451,4.3892,4.4077,4.4509,4.5836,4.6012,4.5959,4.6169,4.6472,4.6941,4.7707,4.8441,4.9081,4.9535,4.9484,4.8983,4.7801,4.7636,4.6892,4.4858,4.5462,4.5648,4.4667,4.4367,4.4231,4.4231,4.4114,4.4357,4.5085,4.5041,4.5424,4.6358,4.6964,4.789,4.9167,4.9328,5.0518,5.2683,5.2501,5.2931,5.3993,5.6323,5.7401,5.7429,5.7918,5.8168,5.8237,5.85,5.8732,5.895,5.9004,5.9033,5.9046,5.9072,5.9099,5.9099,0.0,0.0,0.0,0.0,0.0,0.0,0.0,0.0,0.0,0.0,0.0,0.0,0.0,0.0,0.0,0.0,0.0,0.0,3.5117,0.0,0.0,3.8788,3.9425,3.9859,4.0089,4.0096,4.0096,4.0096,0.0,0.0,0.0,0.0,0.0,4.3592,0.0,4.4154,4.345,4.4255,4.4547,4.4469,4.4375,4.4352,4.4352,0.0,0.0,0.0,4.3235,4.282,4.2318,4.2061,4.1817,0.0,0.0,0.0,4.2052,4.3094,4.3228,4.3149,4.3684,4.3698,4.3633,4.3934,4.4396,4.4988,4.5762,4.5914,4.5959,4.6169,4.6689,4.723,4.7572,4.8428,4.893,4.8504,4.8489,4.8005,4.6398,4.6189,4.5728,4.4504,4.4491,4.4435,4.4038,4.3968,4.3955,4.3955,4.435,4.4644,4.476,4.5669,4.623,4.6411,4.6936,4.7415,4.7855,4.7884,4.8413,4.9445,5.0945,5.2324,5.3572,5.3949,5.4129,5.4263,5.6765,5.7247,5.638,5.7709,5.8293,5.8348,5.8652,5.8747,5.8774,5.9004,5.9099,5.9099,0.0,0.0,0.0,0.0,0.0,0.0,0.0,0.0,0.0,0.0,0.0,0.0,0.0,0.0,0.0,3.6357,3.6411,3.6441,3.6441,3.7634,3.8492,3.8879,4.0016,4.0655,4.072,4.072,4.072,4.072,0.0,0.0,0.0,4.2439,4.325,0.0,0.0,0.0,0.0,4.4455,4.4608,4.4584,4.449,4.4105,0.0,0.0,0.0,0.0,0.0,0.0,0.0,4.311,4.285,4.2592,4.2564,0.0,0.0,0.0,4.379,4.3954,4.3677,4.3607,4.3652,4.3927,4.4454,4.5079,4.5746,4.5892,4.5925,4.6001,4.6824,4.7604,4.7843,4.8559,4.8932,4.8409,4.7973,4.7254,4.5873,4.5154,4.46,4.4121,4.4079,4.4024,4.3913,4.3722,4.3767,4.4098,4.4173,4.4537,4.5328,4.5852,4.6274,4.6605,4.6849,4.6942,4.6879,4.7179,4.7914,4.9087,4.999,5.0835,5.1617,5.2137,5.2799,5.3602,5.5587,5.6251,5.6006,5.7401,5.8183,5.8486,5.8445,5.8623,5.8924,5.8883,5.8978,5.9099,0.0,0.0,0.0,0.0,0.0,0.0,0.0,0.0,0.0,0.0,0.0,0.0,0.0,0.0,0.0,0.0,3.7497,3.7599,3.782,3.8537,3.9005,3.9141,4.0466,4.1119,4.0916,4.1096,4.1119,0.0,0.0,0.0,4.1491,4.2039,4.3129,0.0,4.3978,0.0,0.0,0.0,0.0,0.0,0.0,0.0,0.0,0.0,0.0,0.0,0.0,0.0,0.0,0.0,0.0,4.3295,4.3169,4.3443,0.0,0.0,0.0,4.4619,4.3645,4.3617,4.3891,4.4045,4.4531,4.5134,4.5758,4.5892,4.5892,4.5892,4.6908,4.7852,4.8001,4.869,4.8965,4.811,4.7421,4.6503,4.5168,4.4274,4.3776,4.3776,4.3776,4.3749,4.368,4.3574,4.3689,4.4146,4.4266,4.4754,4.5746,4.6011,4.6305,4.6661,4.6673,4.6554,4.6298,4.6823,4.7715,4.8951,4.9253,4.9609,5.0004,5.0692,5.1609,5.2721,5.4338,5.5164,5.5499,5.6865,5.7863,5.8541,5.8293,5.8485,5.8868,5.8747,5.8829,5.9004,0.0,0.0,0.0,0.0,0.0,0.0,0.0,0.0,0.0,0.0,0.0,0.0,0.0,3.7474,3.749,3.7497,3.7497,3.786,3.8678,3.8781,3.9187,3.9992,4.0781,0.0,4.0174,4.0838,4.0855,0.0,0.0,0.0,4.2242,4.2276,4.3129,4.4608,4.4557,4.4557,4.4608,0.0,0.0,0.0,0.0,0.0,0.0,0.0,0.0,0.0,0.0,0.0,0.0,0.0,0.0,0.0,0.0,4.3698,4.3732,0.0,0.0,0.0,4.3777,4.4062,4.4502,4.4324,4.4733,4.5299,4.5791,4.5892,4.5892,4.5892,4.6908,4.7805,4.7817,4.8834,4.9044,4.7098,4.6541,4.5675,4.3781,4.3463,4.3421,4.3421,4.3421,4.3337,4.3071,4.3493,4.3793,4.3817,4.5058,4.5706,4.5529,4.63,4.6618,4.6343,4.6328,4.6313,4.6298,4.6823,4.739,4.7973,4.8567,4.912,4.9635,4.967,4.9912,5.0423,5.2895,5.3983,5.4118,5.5718,5.7104,5.8224,5.821,5.8224,5.8279,5.8597,5.8706,5.8761,0.0,0.0,0.0,0.0,0.0,0.0,0.0,0.0,0.0,0.0,0.0,0.0,0.0,3.8547,3.8824,3.8903,3.891,3.9036,3.9365,3.9372,3.9772,4.0648,4.1377,4.1686,4.1521,4.1769,0.0,0.0,0.0,4.1576,4.231,4.277,4.3294,4.3826,4.3826,4.412,4.4625,4.5101,0.0,0.0,0.0,0.0,0.0,0.0,0.0,0.0,0.0,0.0,0.0,0.0,0.0,0.0,0.0,0.0,0.0,4.4539,4.4521,4.4285,4.3747,4.4008,4.4426,4.4478,4.4852,4.5369,4.5956,4.5993,4.6008,4.6406,4.7172,4.7924,4.8319,4.8501,4.8121,4.6685,4.5767,4.4765,4.3351,4.3129,4.3129,4.3129,4.3129,4.3113,4.3002,4.349,4.3953,4.429,4.5148,4.5754,4.5999,4.6305,4.6419,4.6298,4.6298,4.6298,4.6298,4.6823,4.7199,4.74,4.835,4.889,4.912,4.9664,4.9876,4.9847,5.1197,5.2273,5.3251,5.5441,5.6737,5.7358,5.7959,5.8444,5.8773,5.872,5.8815,5.8978,0.0,0.0,0.0,0.0,0.0,0.0,0.0,0.0,0.0,0.0,0.0,0.0,0.0,0.0,3.9729,4.0091,4.0144,4.0258,4.0555,4.0562,4.082,4.14,4.1916,4.2092,4.1931,4.1938,0.0,0.0,0.0,0.0,0.0,4.3453,4.3774,4.3702,4.3702,4.4003,0.0,0.0,0.0,4.5363,0.0,0.0,4.392,0.0,0.0,0.0,0.0,0.0,0.0,0.0,0.0,0.0,0.0,0.0,0.0,0.0,0.0,4.4224,4.384,4.3917,4.4202,4.4633,4.4937,4.532,4.6042,4.6102,4.6098,4.6432,4.7187,4.7804,4.7825,4.7609,4.7177,4.6411,4.5395,4.4302,4.3169,4.3002,4.3002,4.3002,4.3002,4.3002,4.3002,4.3639,4.4215,4.4564,4.5334,4.5924,4.6273,4.6298,4.6298,4.6298,4.6298,4.6298,4.6298,4.6662,4.6923,4.7111,4.787,4.8438,4.8818,4.9402,4.9699,4.9783,5.0248,5.1189,5.2562,5.481,5.6107,5.6779,5.7792,5.8444,5.8787,5.872,5.8815,5.8992,0.0,0.0,0.0,0.0,0.0,0.0,0.0,0.0,0.0,0.0,0.0,0.0,0.0,0.0,0.0,4.0938,4.1011,4.1367,4.2209,4.2256,4.2273,4.2313,4.2297,4.1958,4.1242,4.1242,4.1242,0.0,0.0,0.0,0.0,0.0,4.4475,4.431,4.432,4.4322,4.4341,0.0,4.5226,4.4857,0.0,4.3877,4.4589,0.0,0.0,0.0,4.3869,4.3888,0.0,4.3659,0.0,0.0,0.0,0.0,0.0,0.0,0.0,0.0,0.0,0.0,0.0,4.4783,4.5011,4.5226,4.6017,4.6202,4.6135,4.5966,4.6934,4.7459,4.6387,4.6247,4.6307,4.6307,4.5369,4.4262,4.3169,4.3002,4.3002,4.3002,4.3002,4.3002,4.3002,4.3978,4.4589,4.4589,4.5658,4.6298,4.6298,4.6298,4.6298,4.6298,4.6298,4.6298,4.6298,4.6298,4.6562,4.7086,4.7099,4.7679,4.8755,4.878,4.9282,5.0059,5.0148,5.086,5.2139,5.3743,5.5208,5.6537,5.7751,5.8237,5.8265,5.8597,5.8706,5.8747,0.0,0.0,0.0,0.0,0.0,0.0,0.0,0.0,0.0,0.0,0.0,0.0,0.0,0.0,4.0499,4.1235,4.1291,4.1389,4.163,4.1201,4.1456,4.2606,4.2238,4.1954,4.1856,4.2473,4.248,4.1846,4.2597,4.3332,4.4056,4.4176,0.0,0.0,4.4752,4.4736,4.4432,4.5258,0.0,4.6159,4.4814,4.4451,0.0,0.0,0.0,0.0,0.0,4.3443,4.3625,0.0,4.3786,4.4518,0.0,0.0,0.0,0.0,0.0,0.0,4.3847,0.0,0.0,0.0,0.0,0.0,4.6075,4.609,4.609,4.6475,4.7216,4.7842,4.7954,4.707,4.6307,4.6307,4.4711,4.3365,4.3044,4.3002,4.3002,4.3002,4.3002,4.3002,4.3002,4.3978,4.4589,4.4589,4.5658,4.6298,4.6298,4.6298,4.6298,4.6298,4.6298,4.6298,4.6298,4.6298,4.6373,4.6524,4.691,4.7277,4.7619,4.8689,4.9163,4.9264,5.1114,5.2083,5.248,5.4103,5.5646,5.7104,5.8359,5.8855,5.8868,5.895,5.8992,5.9006,0.0,0.0,0.0,0.0,0.0,0.0,0.0,0.0,0.0,0.0,0.0,0.0,0.0,0.0,4.024,4.1009,4.1358,4.1678,4.204,4.1988,4.2363,4.3299,4.2762,4.2477,4.257,4.2814,4.2848,4.2641,4.3073,4.3687,4.4426,4.4341,4.4438,0.0,0.0,0.0,0.0,0.0,0.0,0.0,4.5062,0.0,0.0,4.3477,4.2935,0.0,0.0,0.0,4.3275,4.2789,4.3334,0.0,0.0,0.0,0.0,0.0,0.0,0.0,0.0,0.0,0.0,0.0,0.0,0.0,4.6289,4.6284,4.6244,4.6393,4.694,4.7424,4.7587,4.6691,4.5852,4.5661,4.4152,4.3002,4.3002,4.3002,4.3002,4.3002,4.3002,4.3002,4.3002,4.3978,4.4589,4.4589,4.5658,4.6298,4.6298,4.6298,4.6298,4.6298,4.6298,4.6298,4.6298,4.6298,4.6298,4.6298,4.6624,4.6885,4.7136,4.8223,4.9038,4.969,5.1402,5.2828,5.4011,5.5048,5.6165,5.7328,5.8592,5.9099,5.9099,5.9099,5.9099,5.9099,0.0,0.0,0.0,0.0,0.0,0.0,0.0,0.0,0.0,0.0,4.0352,0.0,0.0,0.0,0.0,0.0,4.1526,4.2248,4.3017,4.3595,4.3963,4.4039,4.3493,4.3174,4.3174,4.2763,4.2821,4.3378,4.3463,4.3859,4.4559,4.4605,4.4822,0.0,0.0,0.0,0.0,0.0,0.0,4.5376,4.4765,4.4706,0.0,0.0,4.3289,4.3625,4.3095,4.2935,4.2885,4.2392,4.2687,0.0,0.0,0.0,0.0,0.0,4.4266,0.0,0.0,0.0,0.0,0.0,4.5891,0.0,4.6561,4.6594,4.6473,4.606,4.6457,4.6752,4.633,4.5865,4.5403,4.493,4.3873,4.3081,4.3003,4.3002,4.3002,4.3002,4.3002,4.3002,4.3002,4.3928,4.4502,4.4502,4.557,4.625,4.6298,4.6298,4.6298,4.6298,4.6298,4.6298,4.6298,4.6298,4.6298,4.6298,4.6298,4.6549,4.7036,4.7566,4.8839,5.0644,5.1333,5.3252,5.5934,5.6351,5.6849,5.7482,5.8648,5.9099,5.9099,5.9099,5.9099,5.9099,0.0,0.0,0.0,0.0,0.0,0.0,0.0,0.0,0.0,0.0,0.0,0.0,0.0,0.0,0.0,0.0,4.3144,4.33,4.347,4.3055,4.3072,4.3669,4.327,4.3048,4.3048,4.3768,4.3855,4.3237,4.3833,4.4154,4.42,4.4641,4.4872,0.0,0.0,0.0,0.0,0.0,0.0,4.4923,4.4797,0.0,4.4047,4.3289,4.2769,4.2447,4.2325,4.2469,4.2789,4.3005,4.2965,4.3029,0.0,0.0,0.0,0.0,0.0,0.0,0.0,0.0,0.0,0.0,0.0,0.0,4.6631,4.6594,4.6572,4.6484,4.6942,4.7333,4.723,4.6847,4.637,4.5895,4.4735,4.3691,4.3079,4.3002,4.3002,4.3002,4.3002,4.3002,4.3002,4.3591,4.3966,4.3966,4.5008,4.5836,4.6273,4.6298,4.6298,4.6298,4.6298,4.6298,4.6298,4.6298,4.6298,4.6298,4.6298,4.6348,4.6474,4.7011,4.8279,5.0134,5.1702,5.3721,5.6006,5.7302,5.8071,5.8457,5.8923,5.9099,5.9099,5.9099,5.9099,5.9099,0.0,0.0,0.0,0.0,0.0,0.0,0.0,0.0,0.0,0.0,0.0,0.0,0.0,0.0,0.0,0.0,0.0,0.0,0.0,0.0,4.3208,4.3582,4.35,4.3454,4.3454,4.4035,4.4123,4.3644,4.4021,4.4354,4.4652,4.4914,4.5114,4.5281,0.0,0.0,0.0,0.0,4.6134,4.5341,4.4633,0.0,4.3388,4.2779,4.2551,4.2552,4.2552,4.2892,4.3374,4.3582,4.3795,0.0,0.0,4.4939,4.5102,0.0,4.5224,4.5233,0.0,0.0,0.0,4.6177,0.0,0.0,0.0,4.6745,4.6712,4.6627,4.6834,4.7136,4.7448,4.6862,4.6301,4.6133,4.5422,4.4544,4.35,4.316,4.3002,4.3002,4.3002,4.3002,4.3002,4.349,4.3915,4.4177,4.5008,4.5625,4.5886,4.6148,4.6298,4.6298,4.6298,4.6298,4.6298,4.6298,4.6298,4.6298,4.6298,4.6298,4.6311,4.6863,4.7988,4.9573,5.1029,5.2646,5.441,5.6408,5.7358,5.7596,5.8675,5.9099,5.9099,5.9099,5.9099,5.9099,0.0,0.0,0.0,0.0,0.0,0.0,0.0,0.0,0.0,4.1229,0.0,0.0,0.0,0.0,0.0,0.0,0.0,0.0,0.0,0.0,0.0,4.35,4.3756,4.3876,4.3817,4.4005,4.4097,4.4097,4.4248,4.4604,4.5152,4.5436,4.562,4.5753,0.0,0.0,0.0,0.0,0.0,4.5503,0.0,4.3801,4.3389,4.295,4.2996,4.3318,4.3223,4.354,4.4015,4.4101,4.4596,4.5163,4.5094,4.5412,0.0,0.0,0.0,0.0,0.0,0.0,0.0,0.0,0.0,4.7229,0.0,0.0,0.0,4.6771,4.6727,4.6889,4.7373,4.6751,4.6139,4.6016,4.589,4.5333,4.405,4.3518,4.3241,4.3144,4.3252,4.3257,4.3074,4.3451,4.391,4.4418,4.494,4.5309,4.5487,4.5912,4.6185,4.6298,4.6298,4.6298,4.6298,4.6298,4.6298,4.6298,4.6298,4.6298,4.6311,4.6763,4.772,4.9153,5.0023,5.1279,5.2883,5.5193,5.6237,5.658,5.8387,5.9099,5.9099,5.9099,5.9099,5.9099,3.9282,3.9299,0.0,0.0,3.9299,0.0,0.0,0.0,4.0544,4.1302,0.0,0.0,0.0,0.0,0.0,0.0,0.0,0.0,4.3012,0.0,0.0,0.0,4.3628,4.3756,4.3455,4.3879,4.4097,4.4097,4.4752,4.5022,4.4956,4.6262,4.6652,4.6225,4.6424,0.0,0.0,0.0,4.4812,0.0,4.4422,4.4738,0.0,4.5157,4.4918,4.4454,4.4039,4.3932,4.4069,0.0,4.4699,4.4999,0.0,4.622,4.5796,4.6586,0.0,0.0,0.0,0.0,0.0,0.0,4.7249,0.0,4.7251,0.0,4.724,4.7233,0.0,4.7237,4.7312,0.0,0.0,4.5812,4.5932,4.5739,4.4565,4.4308,4.4099,4.3674,4.4148,4.4189,4.3348,4.3321,4.3509,4.3858,4.4164,4.4684,4.5468,4.5562,4.5811,4.6273,4.6298,4.6298,4.6298,4.6298,4.6298,4.6298,4.6298,4.6298,4.6298,4.6361,4.738,4.9114,4.923,5.0756,5.3251,5.4913,5.6049,5.6906,5.8469,5.9099,5.9099,5.9099,5.9099,5.9099,3.9381,3.9299,0.0,0.0,3.9938,4.017,0.0,0.0,4.1716,4.2007,0.0,0.0,0.0,0.0,0.0,0.0,0.0,4.3595,0.0,0.0,0.0,0.0,0.0,0.0,0.0,4.4994,4.5092,4.5092,4.5401,4.5728,4.6066,4.6465,4.6388,4.5951,4.5895,0.0,4.4749,0.0,4.4884,4.4773,4.545,4.5909,0.0,4.5074,4.4731,4.4843,4.5029,4.5108,4.5126,0.0,4.5653,0.0,0.0,0.0,0.0,0.0,0.0,0.0,0.0,0.0,0.0,0.0,0.0,0.0,4.7251,0.0,4.7309,0.0,0.0,0.0,0.0,0.0,0.0,0.0,4.6751,4.6724,4.5438,4.6126,4.6116,4.4318,4.4107,4.3901,4.3341,4.319,4.3186,4.333,4.3726,4.4135,4.4482,4.5148,4.5598,4.5824,4.615,4.6298,4.6298,4.6298,4.6298,4.6298,4.6298,4.6298,4.6298,4.6298,4.6742,4.7485,4.7803,4.8894,5.0679,5.3264,5.488,5.5921,5.8207,5.9099,5.9099,5.9099,5.9099,5.9099,0.0,0.0,0.0,0.0,0.0,0.0,0.0,0.0,0.0,0.0,0.0,0.0,4.3759,4.4257,0.0,0.0,0.0,4.4099,0.0,0.0,4.4583,0.0,0.0,0.0,0.0,0.0,4.5719,4.5719,4.587,4.6202,4.6722,4.6553,4.6222,4.5769,4.5515,4.4831,4.3919,0.0,4.4849,4.4996,4.588,4.6398,4.6493,4.5195,4.4898,4.5249,4.5729,4.5892,4.5914,4.6049,4.6428,4.6756,4.6406,4.6661,4.7044,0.0,0.0,0.0,4.711,0.0,0.0,0.0,0.0,0.0,0.0,0.0,0.0,0.0,4.7309,0.0,0.0,0.0,4.713,4.6599,0.0,4.7318,4.6112,4.7115,4.7178,4.504,4.443,4.4089,4.3822,4.355,4.3357,4.3318,4.3532,4.3703,4.3804,4.4581,4.5185,4.5499,4.5874,4.6315,4.6785,4.6466,4.6466,4.6785,4.6466,4.6298,4.6298,4.6298,4.6298,4.6323,4.6712,4.7633,4.9101,5.206,5.408,5.5536,5.8092,5.9099,5.9099,5.9099,5.9099,5.9099,4.0952,4.1148,0.0,0.0,0.0,0.0,0.0,0.0,0.0,0.0,0.0,0.0,0.0,0.0,0.0,0.0,0.0,4.3855,4.4181,0.0,4.4357,0.0,0.0,4.4935,0.0,0.0,0.0,4.5513,4.6036,4.6291,4.6332,4.6691,4.6566,4.5974,4.5579,4.5089,4.457,4.4596,4.4358,4.4034,4.5161,4.5753,4.5975,4.6373,4.6251,4.5863,4.5892,4.5892,4.597,4.6417,4.6594,4.6683,4.7125,4.6957,4.6661,0.0,0.0,0.0,0.0,4.6905,0.0,4.7229,0.0,0.0,0.0,0.0,4.7309,0.0,0.0,4.7309,4.7309,4.7309,4.7078,0.0,4.6884,0.0,0.0,4.6503,4.6439,4.5839,4.5574,4.5335,4.5061,4.4621,4.4268,4.4085,4.3594,4.3461,4.3782,4.3827,4.4355,4.5474,4.5525,4.633,4.8035,4.6877,4.6891,4.8035,4.6847,4.6298,4.6298,4.6298,4.6298,4.6298,4.6311,4.7628,4.991,5.1912,5.4121,5.6444,5.8369,5.9099,5.9099,5.9099,5.9099,5.9099,0.0,0.0,0.0,0.0,0.0,0.0,0.0,4.3459,0.0,0.0,0.0,0.0,0.0,4.4989,4.5013,0.0,0.0,4.4804,4.4917,4.5266,0.0,0.0,0.0,4.6832,0.0,0.0,0.0,0.0,0.0,4.6919,4.6699,4.6565,4.625,4.5769,4.5151,4.4697,4.4408,4.4538,4.4762,4.5109,4.5923,4.6304,4.6351,4.6194,4.6038,4.5892,4.5892,4.5892,4.5914,4.6083,4.6239,4.6347,4.6373,4.6473,4.6583,4.6465,4.6458,4.6506,4.6657,4.658,4.6532,4.6931,4.6946,4.6913,4.7233,0.0,0.0,0.0,0.0,0.0,0.0,0.0,0.0,0.0,0.0,0.0,0.0,4.6635,4.6161,4.5537,4.5486,4.5465,4.5373,4.5302,4.5218,4.5165,4.4586,4.4579,4.5406,4.5131,4.5102,4.5501,4.6193,4.6493,4.6376,4.7131,4.7296,4.6921,4.8107,4.8267,4.7519,4.8325,4.8252,4.7534,4.8339,4.9107,5.0015,5.2755,5.485,5.6485,5.8368,5.9099,5.9099,5.9099,5.9099,5.9099,4.222,0.0,0.0,0.0,0.0,0.0,0.0,0.0,0.0,0.0,4.4805,0.0,4.511,0.0,4.5369,0.0,4.4725,4.4921,4.5207,4.5299,0.0,4.5915,4.6533,0.0,0.0,0.0,0.0,0.0,0.0,4.6852,4.6565,4.6193,4.5792,4.5409,4.5229,4.4853,4.4346,4.501,4.5312,4.5408,4.6072,4.6351,4.6317,4.6015,4.6004,4.6127,4.5959,4.5892,4.5892,4.5892,4.5993,4.6068,4.5937,4.6105,4.6317,4.6135,4.6228,4.6373,4.645,4.6336,4.6346,4.696,4.7022,4.7022,4.742,4.7507,4.7507,0.0,0.0,0.0,0.0,0.0,0.0,0.0,0.0,0.0,0.0,4.657,4.6046,4.5379,4.5596,4.5837,4.5973,4.5932,4.599,4.6283,4.5531,4.5421,4.6267,4.5619,4.5488,4.6081,4.6165,4.6589,4.7385,4.7425,4.7725,4.821,4.8486,4.8659,4.8761,4.9105,4.9077,4.879,4.9648,5.0317,5.0939,5.3312,5.5193,5.6737,5.8175,5.8891,5.9099,5.9099,5.9099,5.9099,0.0,0.0,0.0,0.0,4.3661,0.0,0.0,0.0,4.4539,0.0,4.53,4.5582,4.5744,4.5578,4.5469,4.5417,4.4551,4.4312,4.5083,4.4805,0.0,0.0,4.4645,4.4396,4.3368,0.0,0.0,0.0,0.0,0.0,4.5947,4.563,4.5294,4.4989,4.5821,4.5515,4.4496,4.589,4.5889,4.5017,4.5645,4.5914,4.5925,4.5903,4.6183,4.6539,4.606,4.5892,4.5892,4.5892,4.5892,4.5892,4.5892,4.5892,4.5892,4.5892,4.5921,4.598,4.6179,4.625,4.6481,4.7311,4.7529,4.7597,4.7863,4.793,4.793,4.793,0.0,0.0,0.0,0.0,0.0,0.0,0.0,0.0,4.6345,4.6256,4.5997,4.5289,4.5837,4.6433,4.6823,4.6492,4.6599,4.7393,4.6412,4.5977,4.6436,4.5409,4.5567,4.7201,4.5663,4.6687,5.0627,4.7851,4.8182,5.1579,4.8121,4.7709,4.9957,4.8804,4.8905,5.0013,5.0323,5.1236,5.2579,5.3571,5.5214,5.7169,5.7844,5.8517,5.9099,5.9099,5.9099,5.9099,4.3314,4.3856,4.4261,0.0,4.448,4.4586,0.0,0.0,0.0,0.0,4.5385,4.58,4.5194,4.5912,4.6237,4.5737,4.5454,0.0,0.0,0.0,0.0,4.4765,4.5334,4.522,4.4203,4.5187,0.0,4.5243,0.0,0.0,4.5401,4.5315,4.5404,4.5643,4.5886,4.5879,4.5731,4.6127,4.6035,4.5659,4.5834,4.6105,4.6384,4.6027,4.6183,4.6539,4.606,4.5892,4.5892,4.5892,4.5892,4.5892,4.5892,4.5892,4.5892,4.5892,4.6229,4.6592,4.6634,4.7006,4.748,4.786,4.7947,4.8019,4.8283,4.8355,4.8355,4.8355,4.8267,4.8161,4.8078,4.7893,0.0,0.0,0.0,0.0,0.0,0.0,4.5114,4.3953,4.5113,4.6122,4.6418,4.6897,4.7463,4.8162,4.7306,4.7347,4.8745,4.7333,4.6894,4.776,4.7756,4.8067,4.879,4.8466,4.9004,5.035,4.9419,4.976,5.1223,5.092,5.0948,5.1278,5.2258,5.2606,5.2634,5.4271,5.579,5.7169,5.7844,5.8517,5.9099,5.9099,5.9099,5.9099,4.4107,0.0,0.0,4.5216,0.0,0.0,4.4727,4.5072,0.0,4.4827,4.5519,0.0,4.5869,4.5919,4.5941,4.5849,4.5321,0.0,4.5512,0.0,0.0,4.5031,4.5087,4.472,4.3858,4.455,0.0,4.4434,0.0,0.0,4.5074,4.5369,4.5607,4.5787,4.638,4.6584,4.6509,4.6405,4.6306,4.6183,4.597,4.606,0.0,4.5993,4.606,4.6261,4.5993,4.5892,4.5892,4.5892,4.5892,4.5892,4.5892,4.5892,4.595,4.6229,4.6537,4.6859,4.7161,4.7506,4.7887,4.8281,4.8362,4.8421,4.8708,4.8767,4.8767,4.8767,4.8613,4.855,4.8672,4.8261,4.7766,0.0,0.0,0.0,0.0,0.0,0.0,4.3863,4.4343,4.5053,4.5781,4.7118,4.8093,4.8473,4.8013,4.8101,4.8956,4.7877,4.756,4.8275,4.8164,4.8589,4.9624,4.9214,4.9831,5.1457,5.0406,5.0809,5.2474,5.1947,5.1988,5.2541,5.3445,5.364,5.339,5.4716,5.5823,5.6793,5.7739,5.8517,5.9099,5.9099,5.9099,5.9099,4.4859,0.0,0.0,0.0,0.0,0.0,0.0,4.5437,0.0,4.5309,0.0,4.61,4.6868,4.5884,4.5388,4.5979,0.0,4.4546,4.5252,4.4639,4.4524,4.5139,4.4486,4.3816,4.3148,4.3702,0.0,0.0,0.0,0.0,4.5134,4.5713,4.5957,4.5905,4.708,4.7349,4.6928,4.67,4.6561,4.6473,4.606,4.5892,4.5892,4.5892,4.5892,4.5892,4.5892,4.5892,4.5892,4.5892,4.5892,4.5892,4.5892,4.5892,4.6022,4.6612,4.6859,4.7088,4.775,4.7982,4.8171,4.8699,4.8829,4.8892,4.9133,4.9181,4.9181,4.9181,4.8905,4.8852,4.9497,4.8725,4.7856,0.0,0.0,0.0,0.0,0.0,0.0,0.0,4.4066,0.0,4.5214,4.7033,4.8224,4.8412,4.8393,4.8328,4.8232,4.7762,4.7899,4.8805,4.798,4.8835,5.1576,4.9942,5.0582,5.3476,5.1044,5.1155,5.3462,5.2258,5.2352,5.3528,5.3995,5.4213,5.4291,5.486,5.5562,5.6447,5.7635,5.8517,5.9099,5.9099,5.9099,5.9099,4.5092,0.0,0.0,0.0,0.0,4.5729,4.5178,4.4782,4.4533,4.4413,4.5274,4.594,4.6082,4.6373,4.6596,4.6701,4.601,0.0,0.0,0.0,0.0,4.4975,4.4818,4.4454,4.3845,4.4256,4.4645,0.0,0.0,0.0,4.6293,4.6416,4.6751,4.7265,4.7511,4.7464,4.7205,4.6781,4.6373,4.6015,4.5925,4.5892,4.5892,4.5892,4.5892,4.5892,4.5892,4.5892,4.5892,4.5892,4.5892,4.5892,4.5892,4.5892,4.6022,4.6612,4.719,4.7764,4.838,4.8943,4.9388,4.9504,4.9521,4.9533,4.9582,4.9594,4.9594,4.9594,4.9543,4.9429,4.9233,4.8752,4.8253,4.7859,0.0,0.0,0.0,0.0,0.0,0.0,0.0,4.6381,4.5408,4.5941,4.6803,4.7919,4.7805,4.8038,4.889,4.8322,4.8451,4.9492,4.9342,5.0009,5.1574,5.0316,5.0952,5.3476,5.1044,5.1155,5.3462,5.2258,5.2352,5.3515,5.3607,5.3775,5.3995,5.4316,5.5439,5.7032,5.7799,5.8517,5.9099,5.9099,5.9099,5.9099,0.0,0.0,0.0,0.0,0.0,4.5164,4.5208,4.4848,4.4607,4.4708,4.5472,4.6143,4.6537,4.6461,4.6524,4.6876,4.6295,4.5892,4.5892,4.5892,4.5761,4.5427,4.5413,4.5122,4.4483,4.4657,4.4922,4.53,0.0,0.0,4.6603,4.6957,4.7296,4.7609,4.7747,4.7755,4.7617,4.6902,4.6473,4.6239,4.5993,4.5892,4.5892,4.5892,4.5892,4.5892,4.5892,4.5892,4.5892,4.5892,4.5892,4.5892,4.5892,4.6113,4.6493,4.7132,4.7767,4.8406,4.9045,4.9449,4.9693,4.9693,4.9693,4.9693,4.9693,4.9693,4.9693,4.9693,4.9693,4.9577,4.9167,4.877,4.8445,4.8246,4.8195,0.0,0.0,0.0,4.7188,0.0,0.0,0.0,4.6169,4.6115,4.6609,4.7804,4.7774,4.7965,4.8553,4.8409,4.858,4.9158,4.9519,5.016,5.112,5.0864,5.1509,5.3022,5.2171,5.2381,5.3476,5.2903,5.2943,5.3515,5.3645,5.3852,5.4136,5.4575,5.5502,5.6688,5.7334,5.7994,5.8622,5.8966,5.9099,5.9099,0.0,4.5403,0.0,0.0,4.5223,4.4756,4.5265,4.5216,4.5113,4.5135,4.5662,4.6331,4.7062,4.6409,4.6172,4.684,4.6295,4.5892,4.5892,4.5892,4.5892,4.5892,4.5892,4.5645,4.5122,4.5108,4.5266,0.0,0.0,4.6124,4.6904,4.7522,4.7768,4.7697,4.79,4.789,4.7656,4.6909,4.6539,4.6417,4.6049,4.5892,4.5892,4.5892,4.5892,4.5892,4.5892,4.5979,4.6084,4.6084,4.6008,4.5892,4.5892,4.6304,4.6931,4.7605,4.8232,4.8858,4.9519,4.9693,4.9693,4.9693,4.9693,4.9693,4.9693,4.9693,4.9693,4.9693,4.9693,4.9577,4.9167,4.8908,4.8731,4.8642,4.8442,4.8391,0.0,0.0,0.0,0.0,0.0,0.0,4.7,4.6867,4.7119,4.7963,4.7948,4.7987,4.8178,4.8384,4.8588,4.8782,4.9303,4.9897,5.0578,5.1261,5.1947,5.2612,5.321,5.3502,5.3502,5.3502,5.3502,5.3515,5.3723,5.3969,5.4252,5.4796,5.5441,5.6162,5.6842,5.75,5.8175,5.8846,5.9099,5.9099,0.0,0.0,4.5115,4.5723,4.5626,4.5556,4.5804,4.5826,4.5591,4.5011,4.5506,4.6181,4.6845,4.6303,4.6172,4.684,4.6295,4.5892,4.5892,4.5892,4.5892,4.5892,4.5892,4.5863,4.5805,4.5805,4.6033,0.0,0.0,4.7368,4.7877,4.831,4.832,4.7968,4.7987,4.7527,4.6727,4.6639,4.6351,4.5959,4.5914,4.5892,4.5892,4.5892,4.5892,4.5892,4.5892,4.6258,4.6728,4.6728,4.6348,4.5892,4.5892,4.6304,4.6931,4.7605,4.8232,4.8858,4.9519,4.9693,4.9693,4.9693,4.9693,4.9693,4.9693,4.9693,4.9693,4.9693,4.9693,4.9577,4.9167,4.9365,4.9477,4.91,4.9314,4.9543,4.9577,0.0,4.9131,4.8156,0.0,0.0,4.7522,4.7958,4.835,4.8445,4.8114,4.8055,4.8435,4.8491,4.8669,4.9047,4.9108,4.9483,5.015,5.1117,5.1947,5.2612,5.321,5.3502,5.3502,5.3502,5.3502,5.3502,5.3528,5.3684,5.3956,5.4252,5.4921,5.5835,5.6749,5.75,5.8175,5.8846,5.9099,5.9099,4.5223,4.5182,4.5213,4.5611,4.5649,4.5667,4.5863,4.59,4.579,4.554,4.5732,4.6004,4.6273,4.606,4.6004,4.6284,4.606,4.5892,4.5892,4.5892,4.5892,4.5892,4.5892,4.5892,4.5892,4.5892,4.6127,0.0,0.0,4.7542,4.7996,4.815,4.8007,4.7574,4.7294,4.6942,4.6583,4.6295,4.6071,4.5892,4.5892,4.5892,4.5892,4.5892,4.6113,4.6435,4.6435,4.6841,4.7404,4.7404,4.7242,4.6966,4.6577,4.7134,4.7918,4.7823,4.8519,4.9361,4.9635,4.9693,4.9693,4.9693,4.9693,4.9693,4.9693,4.9693,4.9693,4.9693,4.9693,4.9645,4.9494,4.9397,4.9365,4.9446,4.9382,4.9417,4.9674,0.0,0.0,4.9119,0.0,4.8931,4.8497,4.8484,4.8502,4.8502,4.8343,4.8337,4.8499,4.872,4.8928,4.9097,4.9319,4.9783,5.0451,5.1214,5.1947,5.2612,5.321,5.3502,5.3502,5.3502,5.3594,5.3736,5.3736,5.3891,5.4149,5.4462,5.4819,5.5289,5.6586,5.7259,5.7633,5.8697,5.9099,5.9099,4.5214,4.5316,4.5397,4.5646,4.5687,4.5749,4.5875,4.5892,4.5892,4.5892,4.5892,4.5892,4.5892,4.5892,4.5892,4.5892,4.5892,4.5892,4.5892,4.5892,4.5892,4.5892,4.5892,4.5892,4.5892,4.5892,4.606,4.6384,4.6858,4.7262,4.7591,4.772,4.7542,4.7077,4.6749,4.6517,4.6373,4.6038,4.5892,4.5892,4.5892,4.6008,4.6156,4.6156,4.6551,4.7091,4.7091,4.7509,4.8069,4.8069,4.82,4.8215,4.7364,4.7831,4.8614,4.8188,4.8839,4.9693,4.9693,4.9693,4.9693,4.9693,4.9693,4.9693,4.9693,4.9693,4.9693,4.9693,4.9693,4.9693,4.9693,4.9465,4.9365,4.9645,4.9463,4.938,4.9659,4.9693,0.0,4.9531,4.9267,4.91,4.91,4.884,4.8678,4.8678,4.8784,4.8799,4.8681,4.8958,4.91,4.91,4.938,4.9849,5.0516,5.1245,5.1947,5.2612,5.321,5.3502,5.3502,5.3502,5.3645,5.3891,5.3891,5.4045,5.4329,5.4658,5.4803,5.4947,5.6497,5.7094,5.7259,5.8605,5.9099,5.9099,4.5543,4.56,4.5665,4.5865,4.5903,4.5903,4.5892,4.5892,4.5892,4.5892,4.5892,4.5892,4.5892,4.5892,4.5892,4.5892,4.5892,4.5892,4.5892,4.5892,4.5892,4.5892,4.5892,4.5892,4.5892,4.5892,4.5892,4.5903,4.6384,4.6605,4.6627,4.7088,4.707,4.6605,4.6594,4.6339,4.5903,4.5892,4.5892,4.5892,4.5892,4.6258,4.6789,4.6789,4.7204,4.7791,4.7791,4.8174,4.8687,4.8687,4.9132,4.9461,4.8197,4.8217,4.8701,4.8687,4.9175,4.9693,4.9693,4.9693,4.9693,4.9693,4.9693,4.9693,4.9693,4.9693,4.9693,4.9693,4.9693,4.9693,4.9693,4.9693,4.9693,4.9693,4.9693,4.9693,4.9693,4.9693,0.0,4.9149,4.91,4.91,4.91,4.9097,4.9097,4.9097,4.9463,4.9512,4.9115,4.9097,4.91,4.91,4.91,4.9419,5.0098,5.11,5.1947,5.2612,5.321,5.3502,5.3502,5.3502,5.3645,5.3891,5.3891,5.4045,5.4329,5.4658,5.4803,5.4947,5.6497,5.7094,5.7259,5.8605,5.9099,5.9099,4.5701,4.5799,4.5827,4.5896,4.5892,4.5892,4.5892,4.5892,4.5892,4.5892,4.5892,4.5892,4.5892,4.5892,4.5892,4.5892,4.5892,4.5892,4.5892,4.5892,4.5892,4.5892,4.5892,4.5892,4.5892,4.5892,4.5892,4.5892,4.6373,4.6594,4.6594,4.6749,4.6572,4.6116,4.6116,4.6038,4.5892,4.5892,4.5892,4.5935,4.6348,4.6627,4.6859,4.7306,4.7869,4.8409,4.8409,4.8827,4.9378,4.9378,4.9521,4.9635,4.9214,4.9243,4.9291,4.8832,4.9175,4.9693,4.9693,4.9693,4.9693,4.9693,4.9693,4.9693,4.9693,4.9693,4.9693,4.9693,4.9693,4.9693,4.9693,4.9693,4.9693,4.9693,4.9693,4.9693,4.9693,4.9693,4.9645,4.9529,4.9512,4.9512,4.9512,4.9512,4.9397,4.9129,4.9216,4.9126,4.8702,4.9213,4.9382,4.9115,4.9365,5.0023,5.1102,5.1436,5.2138,5.3225,5.34,5.3502,5.3502,5.3502,5.3645,5.3891,5.3891,5.4045,5.4329,5.4658,5.4803,5.4947,5.6497,5.7094,5.7259,5.8605,5.9099,5.9099,4.5819,4.5892,4.5892,4.5892,4.5892,4.5892,4.5892,4.5892,4.5892,4.5892,4.5892,4.5892,4.5892,4.5892,4.5892,4.5892,4.5892,4.5892,4.5892,4.5892,4.5892,4.5892,4.5892,4.5892,4.5892,4.5892,4.5892,4.5892,4.6194,4.6339,4.6339,4.6339,4.6183,4.5892,4.5892,4.5892,4.5906,4.6142,4.6243,4.6301,4.6914,4.7309,4.757,4.7985,4.8537,4.9088,4.9088,4.9335,4.9693,4.9693,4.9693,4.9693,4.9693,4.9693,4.962,4.9204,4.9376,4.9693,4.9693,4.9693,4.9693,4.9693,4.9693,4.9693,4.9693,4.9693,4.9693,4.9693,4.9693,4.9693,4.9693,4.9693,4.9693,4.9693,4.9693,4.9693,4.9693,4.9693,4.963,4.9482,4.9465,4.9465,4.9465,4.9465,4.9431,4.9319,4.9331,4.9213,4.8958,4.9279,4.9431,4.9331,4.9577,5.032,5.1601,5.1588,5.2239,5.3502,5.3502,5.3502,5.3502,5.3502,5.3645,5.3891,5.3891,5.4112,5.45,5.4711,5.4866,5.51,5.6549,5.7094,5.7259,5.8605,5.9099,5.9099,4.5892,4.5892,4.5892,4.5892,4.5892,4.5892,4.5892,4.5892,4.5892,4.5892,4.5892,4.5892,4.5892,4.5892,4.5892,4.5892,4.5892,4.5892,4.5892,4.5892,4.5892,4.5892,4.5892,4.5892,4.5892,4.5892,4.5892,4.5892,4.5892,4.5892,4.5892,4.5892,4.5921,4.5964,4.5964,4.5993,4.6066,4.6638,4.6862,4.6931,4.7579,4.8203,4.8701,4.8745,4.9161,4.9693,4.9693,4.9693,4.9693,4.9693,4.9693,4.9693,4.9693,4.9693,4.9693,4.9693,4.9693,4.9693,4.9693,4.9693,4.9693,4.9693,4.9693,4.9693,4.9693,4.9693,4.9693,4.9693,4.9693,4.9693,4.9693,4.9693,4.9693,4.9693,4.9693,4.9693,4.9693,4.9693,4.9563,4.9196,4.9146,4.9146,4.9146,4.9146,4.9282,4.9628,4.9659,4.9659,4.9659,4.9299,4.9282,4.9691,4.9751,5.0363,5.1601,5.1659,5.2297,5.3502,5.3502,5.3502,5.3502,5.3502,5.3632,5.3865,5.3904,5.4258,5.4762,5.48,5.4966,5.5341,5.66,5.7094,5.7259,5.8605,5.9099,5.9099,4.5892,4.5892,4.5892,4.5892,4.5892,4.5892,4.5892,4.5892,4.5892,4.5892,4.5892,4.5892,4.5892,4.5892,4.5892,4.5892,4.5892,4.5892,4.5892,4.5892,4.5892,4.5892,4.5892,4.5892,4.5892,4.5892,4.5892,4.5892,4.5892,4.5892,4.5892,4.5892,4.6142,4.6583,4.6583,4.6867,4.7358,4.7503,4.7561,4.7619,4.8234,4.8571,4.8759,4.9274,4.955,4.9693,4.9693,4.9693,4.9693,4.9693,4.9693,4.9693,4.9693,4.9693,4.9693,4.9693,4.9693,4.9693,4.9693,4.9693,4.9693,4.9693,4.9693,4.9693,4.9693,4.9693,4.9693,4.9693,4.9693,4.9693,4.9693,4.9693,4.9693,4.9693,4.9693,4.9693,4.9693,4.9693,4.9662,4.9577,4.9563,4.9563,4.9563,4.9563,4.9465,4.9265,4.9233,4.9233,4.9233,4.9149,4.9282,4.9691,5.0201,5.0828,5.1601,5.2107,5.2759,5.3502,5.3502,5.3502,5.3502,5.3502,5.3528,5.3619,5.4034,5.4293,5.4447,5.4913,5.5143,5.5341,5.66,5.7094,5.7259,5.8605,5.9099,5.9099,4.5892,4.5892,4.5892,4.5892,4.5892,4.5892,4.5892,4.5892,4.5892,4.5892,4.5892,4.5892,4.5892,4.5892,4.5892,4.5892,4.5892,4.5892,4.5892,4.5892,4.5892,4.5892,4.5892,4.5892,4.5892,4.5892,4.5892,4.5892,4.5892,4.6037,4.6304,4.6304,4.6653,4.7262,4.7262,4.7462,4.782,4.8087,4.8217,4.8275,4.8899,4.9161,4.9204,4.955,4.9693,4.9693,4.9693,4.9693,4.9693,4.9693,4.9693,4.9693,4.9693,4.9693,4.9693,4.9693,4.9693,4.9693,4.9693,4.9693,4.9693,4.9693,4.9693,4.9693,4.9693,4.9693,4.9693,4.9693,4.9693,4.9693,4.9693,4.9693,4.9693,4.9693,4.9546,4.9494,4.9676,4.9531,4.9482,4.9676,4.9693,4.9693,4.9693,4.9693,4.9611,4.9382,4.938,4.938,4.938,4.938,4.9611,5.0143,5.0506,5.1133,5.2049,5.2688,5.3181,5.3502,5.3502,5.3502,5.3502,5.3502,5.3568,5.3697,5.3995,5.4267,5.4551,5.4875,5.5093,5.5341,5.66,5.7094,5.7259,5.8605,5.9099,5.9099,4.5892,4.5892,4.5892,4.5892,4.5892,4.5892,4.5892,4.5892,4.5892,4.5892,4.5892,4.5892,4.5892,4.5892,4.5892,4.5892,4.5892,4.5892,4.5892,4.5892,4.5892,4.5892,4.5892,4.5892,4.5892,4.5892,4.5892,4.5892,4.5993,4.6301,4.6789,4.6902,4.7306,4.7939,4.7939,4.7982,4.8125,4.8626,4.8858,4.8902,4.9478,4.9693,4.9693,4.9693,4.9693,4.9693,4.9693,4.9693,4.9693,4.9693,4.9693,4.9693,4.9693,4.9693,4.9693,4.9693,4.9693,4.9693,4.9693,4.9693,4.9693,4.9693,4.9693,4.9693,4.9693,4.9693,4.9693,4.9693,4.9693,4.9693,4.9693,4.9693,4.9676,4.9625,4.938,4.9297,4.9577,4.9365,4.9328,4.9659,4.9693,4.9693,4.9693,4.9693,4.9693,4.9693,4.9693,4.9693,4.9693,4.9795,5.0158,5.0813,5.0828,5.145,5.2728,5.3239,5.3502,5.3502,5.3502,5.3502,5.3502,5.3541,5.3684,5.3904,5.401,5.4322,5.4803,5.4841,5.4991,5.5326,5.6509,5.7032,5.7244,5.8501,5.9011,5.9099,4.5892,4.5892,4.5892,4.5892,4.5892,4.5892,4.5892,4.5892,4.5892,4.5892,4.5892,4.5892,4.5892,4.5892,4.5892,4.5892,4.5892,4.5892,4.5892,4.5892,4.5892,4.5892,4.5892,4.5892,4.5892,4.5892,4.5892,4.5892,4.6406,4.6714,4.6804,4.7375,4.797,4.8556,4.8556,4.887,4.9403,4.9519,4.9536,4.955,4.9664,4.9693,4.9693,4.9693,4.9693,4.9693,4.9693,4.9693,4.9693,4.9693,4.9693,4.9693,4.9693,4.9693,4.9693,4.9693,4.9693,4.9693,4.9693,4.9693,4.9693,4.9693,4.9693,4.9693,4.9693,4.9693,4.9693,4.9693,4.9693,4.9693,4.9693,4.9693,4.9594,4.9262,4.9429,4.9512,4.9218,4.9431,4.9628,4.9693,4.9693,4.9693,4.9693,4.9693,4.9693,4.9693,4.9693,4.9693,4.9693,5.023,5.0828,5.1441,5.1456,5.2065,5.3342,5.3444,5.3502,5.3502,5.3502,5.3502,5.3515,5.3736,5.3852,5.393,5.444,5.4711,5.4828,5.5042,5.5156,5.5281,5.6042,5.6643,5.7184,5.7964,5.8607,5.9099,4.5892,4.5892,4.5892,4.5892,4.5892,4.5892,4.5892,4.5892,4.5892,4.5892,4.5892,4.5892,4.5892,4.5892,4.5892,4.5892,4.5892,4.5892,4.5892,4.5892,4.5892,4.5892,4.5892,4.5892,4.5892,4.5892,4.5892,4.5892,4.6185,4.6679,4.7346,4.7648,4.8316,4.9233,4.9233,4.942,4.9693,4.9693,4.9693,4.9693,4.9693,4.9693,4.9693,4.9693,4.9693,4.9693,4.9693,4.9693,4.9693,4.9693,4.9693,4.9693,4.9693,4.9693,4.9693,4.9693,4.9693,4.9693,4.9693,4.9693,4.9693,4.9693,4.9693,4.9693,4.9693,4.9693,4.9693,4.9693,4.9693,4.9693,4.9693,4.9693,4.9642,4.9448,4.9397,4.9382,4.9429,4.9397,4.9463,4.9676,4.9693,4.9693,4.9693,4.9693,4.9693,4.9693,4.9693,4.9853,5.0216,5.0535,5.1133,5.212,5.2443,5.2907,5.3487,5.3502,5.3502,5.3502,5.3645,5.3723,5.3723,5.3995,5.4202,5.4401,5.4686,5.4877,5.5029,5.5156,5.5207,5.5266,5.5938,5.6568,5.7169,5.7859,5.8517,5.9099,4.5892,4.5892,4.5892,4.5892,4.5892,4.5892,4.5892,4.5892,4.5892,4.5892,4.5892,4.5892,4.5892,4.5892,4.5892,4.5892,4.5892,4.5892,4.5892,4.5892,4.5892,4.5892,4.5892,4.5892,4.5892,4.5892,4.5892,4.5892,4.6037,4.6606,4.7576,4.7881,4.8534,4.9478,4.9635,4.9693,4.9693,4.9693,4.9693,4.9693,4.9693,4.9693,4.9693,4.9693,4.9693,4.9693,4.9693,4.9693,4.9693,4.9693,4.9693,4.9693,4.9693,4.9693,4.9693,4.9693,4.9693,4.9693,4.9693,4.9693,4.9693,4.9693,4.9693,4.9693,4.9693,4.9693,4.9693,4.9693,4.9693,4.9693,4.9693,4.9693,4.9662,4.9577,4.938,4.9302,4.9529,4.938,4.9363,4.9662,4.9693,4.9693,4.9693,4.9693,4.9693,4.9693,4.9693,4.9983,5.0666,5.0828,5.1481,5.2772,5.3268,5.3502,5.3502,5.3502,5.3502,5.3502,5.3775,5.3891,5.3904,5.4254,5.4566,5.4803,5.4879,5.5004,5.5207,5.5207,5.5207,5.5266,5.5938,5.6568,5.7169,5.7859,5.8517,5.9084,4.5892,4.5892,4.5892,4.5892,4.5892,4.5892,4.5892,4.5892,4.5892,4.5892,4.5892,4.5892,4.5892,4.5892,4.5892,4.5892,4.5892,4.5892,4.5892,4.5892,4.5892,4.5892,4.5892,4.5892,4.5892,4.5892,4.5892,4.5892,4.6464,4.6775,4.6902,4.8077,4.8687,4.8803,4.942,4.9693,4.9693,4.9693,4.9693,4.9693,4.9693,4.9693,4.9693,4.9693,4.9693,4.9693,4.9693,4.9693,4.9693,4.9693,4.9693,4.9693,4.9693,4.9693,4.9693,4.9693,4.9693,4.9693,4.9693,4.9693,4.9693,4.9693,4.9693,4.9693,4.9693,4.9693,4.9693,4.9693,4.9693,4.9693,4.9693,4.9693,4.9579,4.9201,4.9431,4.9543,4.9184,4.9446,4.9674,4.9693,4.9693,4.9693,4.9693,4.9693,4.9693,4.9693,4.9693,4.9983,5.0666,5.1236,5.2123,5.3386,5.3473,5.3502,5.3502,5.3502,5.3502,5.3502,5.3775,5.3891,5.3917,5.4504,5.479,5.48,5.5067,5.5181,5.5207,5.5207,5.5207,5.5266,5.5938,5.6568,5.7169,5.7859,5.8517,5.9011,4.5892,4.5892,4.5892,4.5892,4.5892,4.5892,4.5892,4.5892,4.5892,4.5892,4.5892,4.5892,4.5892,4.5892,4.5892,4.5892,4.5892,4.5892,4.5892,4.5892,4.5892,4.5892,4.5892,4.5892,4.5892,4.5892,4.5892,4.5892,4.6127,4.6435,4.6818,4.7712,4.8336,4.873,4.9405,4.9693,4.9693,4.9693,4.9693,4.9693,4.9693,4.9693,4.9693,4.9693,4.9693,4.9693,4.9693,4.9693,4.9693,4.9693,4.9693,4.9693,4.9693,4.9693,4.9693,4.9693,4.9693,4.9693,4.9693,4.9693,4.9693,4.9693,4.9693,4.9693,4.9693,4.9693,4.9693,4.9693,4.9693,4.9693,4.9693,4.9693,4.9645,4.9497,4.9609,4.9657,4.9482,4.9596,4.9693,4.9693,4.9693,4.9693,4.9693,4.9693,4.9693,4.9693,4.9693,5.016,5.1207,5.2225,5.2994,5.3487,5.3502,5.3502,5.3502,5.3502,5.3502,5.3515,5.3943,5.4149,5.4162,5.4773,5.5042,5.5055,5.5156,5.5207,5.5207,5.5207,5.5207,5.5266,5.5938,5.6568,5.7169,5.7859,5.8249,5.8442,4.5892,4.5892,4.5892,4.5892,4.5892,4.5892,4.5892,4.5892,4.5892,4.5892,4.5892,4.5892,4.5892,4.5892,4.5892,4.5892,4.5892,4.5892,4.5892,4.5892,4.5892,4.5892,4.5892,4.5892,4.5892,4.5892,4.5892,4.5892,4.5892,4.6113,4.6537,4.7187,4.7825,4.8452,4.9088,4.9492,4.9693,4.9693,4.9693,4.9693,4.9693,4.9693,4.9693,4.9693,4.9693,4.9693,4.9693,4.9693,4.9693,4.9693,4.9693,4.9693,4.9693,4.9693,4.9693,4.9693,4.9693,4.9693,4.9693,4.9693,4.9693,4.9693,4.9693,4.9693,4.9693,4.9693,4.9693,4.9693,4.9693,4.9693,4.9693,4.9693,4.9693,4.9693,4.9693,4.9693,4.9693,4.9693,4.9693,4.9693,4.9693,4.9693,4.9693,4.9693,4.9693,4.9693,4.9693,5.0262,5.153,5.263,5.3297,5.3487,5.3502,5.3541,5.3619,5.3619,5.3619,5.3619,5.4176,5.4462,5.4475,5.4976,5.5207,5.5207,5.5207,5.5207,5.5207,5.5207,5.5326,5.5581,5.6237,5.6868,5.7468,5.792,5.81,5.804,4.5892,4.5892,4.5892,4.5892,4.5892,4.5892,4.5892,4.5892,4.5892,4.5892,4.5892,4.5892,4.5892,4.5892,4.5892,4.5892,4.5892,4.5892,4.5892,4.5892,4.5892,4.5892,4.5892,4.5892,4.5892,4.5892,4.5892,4.5892,4.5892,4.5892,4.5906,4.6522,4.7146,4.782,4.8423,4.9062,4.9693,4.9693,4.9693,4.9693,4.9693,4.9693,4.9693,4.9693,4.9693,4.9693,4.9693,4.9693,4.9693,4.9693,4.9693,4.9693,4.9693,4.9693,4.9693,4.9693,4.9693,4.9693,4.9693,4.9693,4.9693,4.9693,4.9693,4.9693,4.9693,4.9693,4.9693,4.9693,4.9693,4.9693,4.9693,4.9693,4.9693,4.9693,4.9693,4.9693,4.9693,4.9693,4.9693,4.9693,4.9693,4.9693,4.9693,4.9693,4.9693,4.9693,4.9693,5.0262,5.153,5.2236,5.2875,5.3473,5.3502,5.3619,5.3891,5.3891,5.3891,5.3904,5.4504,5.4803,5.4815,5.508,5.5207,5.5207,5.5207,5.5207,5.5207,5.5207,5.5596,5.6252,5.6868,5.75,5.8085,5.81,5.8085,5.7904,4.5892,4.5892,4.5892,4.5892,4.5892,4.5892,4.5892,4.5892,4.5892,4.5892,4.5892,4.5892,4.5892,4.5892,4.5892,4.5892,4.5892,4.5892,4.5892,4.5892,4.5892,4.5892,4.5892,4.5892,4.5892,4.5892,4.5892,4.5892,4.5892,4.5892,4.5906,4.6522,4.6917,4.7146,4.8223,4.8803,4.9018,4.9492,4.9693,4.9693,4.9693,4.9693,4.9693,4.9693,4.9693,4.9693,4.9693,4.9693,4.9693,4.9693,4.9693,4.9693,4.9693,4.9693,4.9693,4.9693,4.9693,4.9693,4.9693,4.9693,4.9693,4.9693,4.9693,4.9693,4.9693,4.9693,4.9693,4.9693,4.9693,4.9693,4.9693,4.9693,4.9693,4.9693,4.9693,4.9693,4.9693,4.9693,4.9693,4.9693,4.9693,4.9693,4.9693,4.9693,4.9693,4.9693,5.0143,5.0755,5.1572,5.2236,5.2875,5.3473,5.3684,5.3813,5.3891,5.3891,5.3995,5.4188,5.4607,5.4803,5.4815,5.508,5.5207,5.5207,5.5207,5.5207,5.5207,5.5207,5.5596,5.6252,5.6868,5.7214,5.7468,5.7934,5.753,5.6703,4.5824,4.5892,4.5892,4.5892,4.5892,4.5892,4.5892,4.5892,4.5892,4.5892,4.5892,4.5892,4.5892,4.5892,4.5892,4.5892,4.5892,4.5892,4.5892,4.5892,4.5892,4.5892,4.5892,4.5892,4.5892,4.5892,4.5892,4.5892,4.5892,4.5892,4.5906,4.6272,4.6569,4.6859,4.7886,4.8481,4.8745,4.942,4.9693,4.9693,4.9693,4.9693,4.9693,4.9693,4.9693,4.9693,4.9693,4.9693,4.9693,4.9693,4.9693,4.9693,4.9693,4.9693,4.9693,4.9693,4.9693,4.9693,4.9693,4.9693,4.9693,4.9693,4.9693,4.9693,4.9693,4.9693,4.9693,4.9693,4.9693,4.9693,4.9693,4.9693,4.9693,4.9693,4.9693,4.9693,4.9693,4.9693,4.9693,4.9693,4.9693,4.9693,4.9693,4.9693,4.9693,4.9693,5.0085,5.0732,5.1707,5.2142,5.2805,5.3798,5.3969,5.4112,5.4258,5.4258,5.4348,5.45,5.4811,5.4953,5.4953,5.5131,5.5207,5.5207,5.5207,5.5207,5.5222,5.5491,5.597,5.6583,5.6958,5.7259,5.747,5.7393,5.6868,5.6162,4.5708,4.5892,4.5892,4.5892,4.5892,4.5892,4.5892,4.5892,4.5892,4.5892,4.5892,4.5892,4.5892,4.5892,4.5892,4.5892,4.5892,4.5892,4.5892,4.5892,4.5892,4.5892,4.5892,4.5892,4.5892,4.5892,4.5892,4.5892,4.5892,4.5892,4.5892,4.5892,4.6185,4.6743,4.7404,4.8043,4.8658,4.9332,4.9649,4.9693,4.9693,4.9693,4.9693,4.9693,4.9693,4.9693,4.9693,4.9693,4.9693,4.9693,4.9693,4.9693,4.9693,4.9693,4.9693,4.9693,4.9693,4.9693,4.9693,4.9693,4.9693,4.9693,4.9693,4.9693,4.9693,4.9693,4.9693,4.9693,4.9693,4.9693,4.9693,4.9693,4.9693,4.9693,4.9693,4.9693,4.9693,4.9693,4.9693,4.9693,4.9693,4.9693,4.9693,4.9693,4.9693,4.9693,4.9732,5.0395,5.1917,5.2028,5.2725,5.4259,5.4329,5.4487,5.4803,5.4813,5.4841,5.4841,5.508,5.5207,5.5207,5.5207,5.5207,5.5207,5.5207,5.5207,5.5251,5.5923,5.6509,5.7032,5.7092,5.7453,5.7784,5.6628,5.6162,5.6028,4.5858,4.5892,4.5892,4.5892,4.5892,4.5892,4.5892,4.5892,4.5892,4.5892,4.5892,4.5892,4.5892,4.5892,4.5892,4.5892,4.5892,4.5892,4.5892,4.5892,4.5892,4.5892,4.5892,4.5892,4.5892,4.5892,4.5892,4.5892,4.5892,4.5892,4.5892,4.5892,4.5964,4.6113,4.674,4.7378,4.804,4.8641,4.9219,4.9693,4.9693,4.9693,4.9693,4.9693,4.9693,4.9693,4.9693,4.9693,4.9693,4.9693,4.9693,4.9693,4.9693,4.9693,4.9693,4.9693,4.9693,4.9693,4.9693,4.9693,4.9693,4.9693,4.9693,4.9693,4.9693,4.9693,4.9693,4.9693,4.9693,4.9693,4.9693,4.9693,4.9693,4.9693,4.9693,4.9693,4.9693,4.9693,4.9693,4.9693,4.9693,4.9693,4.9693,4.9693,4.9693,4.9693,4.989,5.0593,5.1929,5.2205,5.2916,5.4259,5.4553,5.4737,5.4803,5.5004,5.5105,5.5105,5.5181,5.5207,5.5207,5.5207,5.5207,5.5207,5.5207,5.5207,5.5251,5.5923,5.6282,5.6434,5.6928,5.6898,5.6568,5.6297,5.5878,5.5401,4.5711,4.5892,4.5892,4.5892,4.5892,4.5892,4.5892,4.5892,4.5892,4.5892,4.5892,4.5892,4.5892,4.5892,4.5892,4.5892,4.5892,4.5892,4.5892,4.5892,4.5892,4.5892,4.5892,4.5892,4.5892,4.5892,4.5892,4.5892,4.5892,4.5892,4.5892,4.5892,4.5892,4.5935,4.6537,4.7175,4.7837,4.8438,4.9088,4.9693,4.9693,4.9693,4.9693,4.9693,4.9693,4.9693,4.9693,4.9693,4.9693,4.9693,4.9693,4.9693,4.9693,4.9693,4.9693,4.9693,4.9693,4.9693,4.9693,4.9693,4.9693,4.9693,4.9693,4.9693,4.9693,4.9693,4.9693,4.9693,4.9693,4.9693,4.9693,4.9693,4.9693,4.9693,4.9693,4.9693,4.9693,4.9693,4.9693,4.9693,4.9693,4.9756,4.9878,4.989,4.9939,5.0074,5.0222,5.09,5.2304,5.2501,5.3257,5.4673,5.49,5.4991,5.4991,5.5131,5.5207,5.5207,5.5207,5.5207,5.5207,5.5207,5.5207,5.5207,5.5207,5.5207,5.5251,5.5923,5.6192,5.6237,5.6551,5.6492,5.6162,5.5848,5.5491,5.5207,4.5112,4.5568,4.5685,4.5869,4.5892,4.5892,4.5892,4.5892,4.5892,4.5892,4.5892,4.5892,4.5892,4.5892,4.5892,4.5892,4.5892,4.5892,4.5892,4.5892,4.5892,4.5892,4.5892,4.5892,4.5892,4.5892,4.5892,4.5892,4.5892,4.5892,4.5892,4.5892,4.5892,4.5921,4.6421,4.7015,4.7677,4.829,4.8928,4.9536,4.9649,4.9693,4.9693,4.9693,4.9693,4.9693,4.9693,4.9693,4.9693,4.9693,4.9693,4.9693,4.9693,4.9693,4.9693,4.9693,4.9732,4.9768,4.9705,4.9732,4.9768,4.9705,4.9693,4.9693,4.9693,4.9693,4.9693,4.9693,4.9693,4.9693,4.9693,4.9693,4.9693,4.9693,4.9693,4.9693,4.9693,4.9693,4.9693,4.9693,4.9744,4.9854,5.0074,5.0135,5.0258,5.0477,5.0522,5.1203,5.2726,5.2834,5.358,5.5149,5.5207,5.5207,5.5207,5.5207,5.5207,5.5207,5.5207,5.5207,5.5207,5.5207,5.5207,5.5207,5.5207,5.5207,5.5251,5.5923,5.6132,5.6042,5.6147,5.6132,5.5968,5.5401,5.5207,5.5207,4.3594,4.4204,4.4816,4.573,4.5892,4.5892,4.5892,4.5892,4.5892,4.5892,4.5892,4.5892,4.5892,4.5892,4.5892,4.5892,4.5892,4.5892,4.5892,4.5892,4.5892,4.5892,4.5892,4.5892,4.5892,4.5892,4.5892,4.5892,4.5892,4.5892,4.5892,4.5892,4.5892,4.5892,4.5993,4.6359,4.6975,4.7637,4.8275,4.8887,4.9463,4.9693,4.9693,4.9693,4.9693,4.9693,4.9693,4.9693,4.9693,4.9693,4.9693,4.9693,4.9693,4.9693,4.9693,4.9693,4.9854,5.0002,4.9768,4.9866,5.0002,4.9768,4.9693,4.9693,4.9693,4.9693,4.9693,4.9693,4.9693,4.9693,4.9693,4.9693,4.9693,4.9693,4.9693,4.9693,4.9693,4.9693,4.9693,4.9693,4.9902,5.0062,5.0098,5.0306,5.0465,5.0501,5.0659,5.1366,5.2738,5.3018,5.3778,5.5162,5.5207,5.5207,5.5207,5.5207,5.5207,5.5207,5.5207,5.5207,5.5207,5.5207,5.5207,5.5207,5.5207,5.5207,5.5251,5.5923,5.5863,5.5386,5.5968,5.5848,5.5326,5.5237,5.5207,5.5207,4.2392,4.331,4.4104,4.4875,4.5501,4.5892,4.5892,4.5892,4.5892,4.5892,4.5892,4.5892,4.5892,4.5892,4.5892,4.5892,4.5892,4.5892,4.5892,4.5892,4.5892,4.5892,4.5892,4.5892,4.5892,4.5892,4.5892,4.5892,4.5892,4.5892,4.5892,4.5892,4.5892,4.5892,4.5892,4.6243,4.6818,4.7117,4.7814,4.873,4.9018,4.9376,4.9693,4.9693,4.9693,4.9693,4.9693,4.9693,4.9693,4.9693,4.9805,4.9914,4.9914,4.9914,4.9914,4.9914,5.0014,5.0074,4.9951,5.0014,5.0074,4.9939,4.9914,4.9914,4.9914,4.9914,4.9878,4.9732,4.9693,4.9693,4.9693,4.9817,4.9914,4.9914,5.005,5.0147,5.0147,5.0147,5.0147,5.0147,5.0258,5.0363,5.0492,5.06,5.0733,5.0876,5.0967,5.1605,5.2956,5.314,5.38,5.5162,5.5207,5.5207,5.5207,5.5207,5.5207,5.5207,5.5207,5.5207,5.5207,5.5207,5.5207,5.5207,5.5207,5.5207,5.5222,5.5521,5.5461,5.5237,5.5521,5.5461,5.5207,5.5207,5.5207,5.5207]},{"header":{"parameterUnit":"m.s-1","parameterCategory":1,"la1":30.6,"la2":28.766,"lo1":-90.7593,"lo2":-88.6598,"dy":0.0162,"dx":0.0183,"nx":116,"ny":114,"refTime":"2023-05-21T12:00:00:Z","depth":0,"parameterNumber":3,"parameterNumberName":"V-component_of_WINDS"},"data":[0.0,0.0,0.0,0.0,0.0,0.0,0.0,0.0,0.0,0.0,0.0,0.0,0.0,0.0,0.0,0.0,0.0,0.0,0.0,0.0,0.0,0.0,0.0,0.0,0.0,0.0,0.0,0.0,0.0,0.0,0.0,0.0,0.0,0.0,0.0,0.0,0.0,0.0,0.0,0.0,0.0,0.0,0.0,0.0,0.0,0.0,0.0,0.0,0.0,0.0,0.0,0.0,0.0,0.0,0.0,0.0,0.0,0.0,0.0,0.0,0.0,0.0,0.0,0.0,0.0,0.0,0.0,0.0,0.0,0.0,0.0,0.0,0.0,0.0,0.0,0.0,0.0,0.0,0.0,0.0,0.0,0.0,0.0,0.0,0.0,0.0,0.0,0.0,0.0,0.0,0.0,0.0,0.0,0.0,0.0,0.0,0.0,0.0,0.0,0.0,0.0,0.0,0.0,0.0,0.0,0.0,0.0,0.0,0.0,0.0,0.0,0.0,0.0,0.0,0.0,0.0,0.0,0.0,0.0,0.0,0.0,0.0,0.0,0.0,0.0,0.0,0.0,0.0,0.0,0.0,0.0,0.0,0.0,0.0,0.0,0.0,0.0,0.0,0.0,0.0,0.0,0.0,0.0,0.0,0.0,0.0,0.0,0.0,0.0,0.0,0.0,0.0,0.0,0.0,0.0,0.0,0.0,0.0,0.0,0.0,0.0,0.0,0.0,0.0,0.0,0.0,0.0,0.0,0.0,0.0,0.0,0.0,0.0,0.0,0.0,0.0,0.0,0.0,0.0,0.0,0.0,0.0,0.0,0.0,0.0,0.0,0.0,0.0,0.0,0.0,0.0,0.0,0.0,0.0,0.0,0.0,0.0,0.0,0.0,0.0,0.0,0.0,0.0,0.0,0.0,0.0,0.0,0.0,0.0,0.0,0.0,0.0,0.0,0.0,0.0,0.0,0.0,0.0,0.0,0.0,0.0,0.0,0.0,0.0,0.0,0.0,0.0,0.0,0.0,0.0,0.0,0.0,0.0,0.0,0.0,0.0,0.0,0.0,0.0,0.0,0.0,0.0,0.0,0.0,0.0,0.0,0.0,0.0,0.0,0.0,0.0,0.0,0.0,0.0,0.0,0.0,0.0,0.0,0.0,0.0,0.0,0.0,0.0,0.0,0.0,0.0,0.0,0.0,0.0,0.0,0.0,0.0,0.0,0.0,0.0,0.0,0.0,0.0,0.0,0.0,0.0,0.0,0.0,0.0,0.0,0.0,0.0,0.0,0.0,0.0,0.0,0.0,0.0,0.0,0.0,0.0,0.0,0.0,0.0,0.0,0.0,0.0,0.0,0.0,0.0,0.0,0.0,0.0,0.0,0.0,0.0,0.0,0.0,0.0,0.0,0.0,0.0,0.0,0.0,0.0,0.0,0.0,0.0,0.0,0.0,0.0,0.0,0.0,0.0,0.0,0.0,0.0,0.0,0.0,0.0,0.0,0.0,0.0,0.0,0.0,0.0,0.0,0.0,0.0,0.0,0.0,0.0,0.0,0.0,0.0,0.0,0.0,0.0,0.0,0.0,0.0,0.0,0.0,0.0,0.0,0.0,0.0,0.0,0.0,0.0,0.0,0.0,0.0,0.0,0.0,0.0,0.0,0.0,0.0,0.0,0.0,0.0,0.0,0.0,0.0,0.0,0.0,0.0,0.0,0.0,0.0,0.0,0.0,0.0,0.0,0.0,0.0,0.0,0.0,0.0,0.0,0.0,0.0,0.0,0.0,0.0,0.0,0.0,0.0,0.0,0.0,0.0,0.0,0.0,0.0,0.0,0.0,0.0,0.0,0.0,0.0,0.0,0.0,0.0,0.0,0.0,0.0,0.0,0.0,0.0,0.0,0.0,0.0,0.0,0.0,0.0,0.0,0.0,0.0,0.0,0.0,0.0,0.0,0.0,0.0,0.0,0.0,0.0,0.0,0.0,0.0,0.0,0.0,0.0,0.0,0.0,0.0,0.0,0.0,0.0,0.0,0.0,0.0,0.0,0.0,0.0,0.0,0.0,0.0,0.0,0.0,0.0,0.0,0.0,0.0,0.0,0.0,0.0,0.0,0.0,0.0,0.0,0.0,0.0,0.0,0.0,0.0,0.0,0.0,0.0,0.0,0.0,0.0,0.0,0.0,0.0,0.0,0.0,0.0,0.0,0.0,0.0,0.0,0.0,0.0,0.0,0.0,0.0,0.0,0.0,0.0,0.0,0.0,0.0,0.0,0.0,0.0,0.0,0.0,0.0,0.0,0.0,0.0,0.0,0.0,0.0,0.0,0.0,0.0,0.0,0.0,0.0,0.0,0.0,0.0,0.0,0.0,0.0,0.0,0.0,0.0,0.0,0.0,0.0,0.0,0.0,0.0,0.0,0.0,0.0,0.0,0.0,0.0,0.0,0.0,0.0,0.0,0.0,0.0,0.0,0.0,0.0,0.0,0.0,0.0,0.0,0.0,0.0,0.0,0.0,0.0,0.0,0.0,0.0,0.0,0.0,0.0,0.0,0.0,0.0,0.0,0.0,0.0,0.0,0.0,0.0,0.0,0.0,0.0,0.0,0.0,0.0,0.0,0.0,0.0,0.0,0.0,0.0,0.0,0.0,0.0,0.0,0.0,0.0,0.0,0.0,0.0,0.0,0.0,0.0,0.0,0.0,0.0,0.0,0.0,0.0,0.0,0.0,0.0,0.0,0.0,0.0,0.0,0.0,0.0,0.0,0.0,0.0,0.0,0.0,0.0,0.0,0.0,0.0,0.0,0.0,0.0,0.0,0.0,0.0,0.0,0.0,0.0,0.0,0.0,0.0,0.0,0.0,0.0,0.0,0.0,0.0,0.0,0.0,0.0,0.0,0.0,0.0,0.0,0.0,0.0,0.0,0.0,0.0,0.0,0.0,0.0,0.0,0.0,0.0,0.0,0.0,0.0,0.0,0.0,0.0,0.0,0.0,0.0,0.0,0.0,0.0,0.0,0.0,0.0,0.0,0.0,0.0,0.0,0.0,0.0,0.0,0.0,0.0,0.0,0.0,0.0,0.0,0.0,0.0,0.0,0.0,0.0,0.0,0.0,0.0,0.0,0.0,0.0,0.0,0.0,0.0,0.0,0.0,0.0,0.0,0.0,0.0,0.0,0.0,0.0,0.0,0.0,0.0,0.0,0.0,0.0,0.0,0.0,0.0,0.0,0.0,0.0,0.0,0.0,0.0,0.0,0.0,0.0,0.0,0.0,0.0,0.0,0.0,0.0,0.0,0.0,0.0,0.0,0.0,0.0,0.0,0.0,0.0,0.0,0.0,0.0,0.0,0.0,0.0,0.0,0.0,0.0,0.0,0.0,0.0,0.0,0.0,0.0,0.0,0.0,0.0,0.0,0.0,0.0,0.0,0.0,0.0,0.0,0.0,0.0,0.0,0.0,0.0,0.0,0.0,0.0,0.0,0.0,0.0,0.0,0.0,0.0,0.0,0.0,0.0,0.0,0.0,0.0,0.0,0.0,0.0,0.0,0.0,0.0,0.0,0.0,0.0,0.0,0.0,0.0,0.0,0.0,0.0,0.0,0.0,0.0,0.0,0.0,0.0,0.0,0.0,0.0,0.0,0.0,0.0,0.0,0.0,0.0,0.0,0.0,0.0,0.0,0.0,0.0,0.0,0.0,0.0,0.0,0.0,0.0,0.0,0.0,0.0,0.0,0.0,0.0,0.0,0.0,0.0,0.0,0.0,0.0,0.0,0.0,0.0,0.0,0.0,0.0,0.0,0.0,0.0,0.0,0.0,0.0,0.0,0.0,0.0,0.0,0.0,0.0,0.0,0.0,0.0,0.0,0.0,0.0,0.0,0.0,0.0,0.0,0.0,0.0,0.0,0.0,0.0,0.0,0.0,0.0,0.0,0.0,0.0,0.0,0.0,0.0,0.0,0.0,0.0,0.0,0.0,0.0,0.0,0.0,0.0,0.0,0.0,0.0,0.0,0.0,0.0,0.0,0.0,0.0,0.0,0.0,0.0,0.0,0.0,0.0,0.0,0.0,0.0,0.0,0.0,0.0,0.0,0.0,0.0,0.0,0.0,0.0,0.0,0.0,0.0,0.0,0.0,0.0,0.0,0.0,0.0,0.0,0.0,0.0,0.0,0.0,0.0,0.0,0.0,0.0,0.0,0.0,0.0,0.0,0.0,0.0,0.0,0.0,0.0,0.0,0.0,0.0,0.0,0.0,0.0,0.0,0.0,0.0,0.0,0.0,0.0,0.0,0.0,0.0,0.0,0.0,0.0,0.0,0.0,0.0,0.0,0.0,0.0,0.0,0.0,0.0,0.0,0.0,0.0,0.0,0.0,0.0,0.0,0.0,0.0,0.0,0.0,0.0,0.0,0.0,0.0,0.0,0.0,0.0,0.0,0.0,0.0,0.0,0.0,0.0,0.0,0.0,0.0,0.0,0.0,0.0,0.0,0.0,0.0,0.0,0.0,0.0,0.0,0.0,0.0,0.0,0.0,0.0,0.0,0.0,0.0,0.0,0.0,0.0,0.0,0.0,0.0,0.0,0.0,0.0,0.0,0.0,0.0,0.0,0.0,0.0,0.0,0.0,0.0,0.0,0.0,0.0,0.0,0.0,0.0,0.0,0.0,0.0,0.0,0.0,0.0,0.0,0.0,0.0,0.0,0.0,0.0,0.0,0.0,0.0,0.0,0.0,0.0,0.0,0.0,0.0,0.0,0.0,0.0,0.0,0.0,0.0,0.0,0.0,0.0,0.0,0.0,0.0,0.0,0.0,0.0,0.0,0.0,0.0,0.0,0.0,0.0,0.0,0.0,0.0,0.0,0.0,0.0,0.0,0.0,0.0,0.0,0.0,0.0,0.0,0.0,0.0,0.0,0.0,0.0,0.0,0.0,0.0,0.0,0.0,0.0,0.0,0.0,0.0,0.0,0.0,0.0,0.0,0.0,0.0,0.0,0.0,0.0,0.0,0.0,0.0,0.0,0.0,0.0,0.0,0.0,0.0,0.0,0.0,0.0,0.0,0.0,0.0,0.0,0.0,0.0,0.0,0.0,0.0,0.0,0.0,0.0,0.0,0.0,0.0,0.0,0.0,0.0,0.0,0.0,0.0,0.0,0.0,0.0,0.0,0.0,0.0,0.0,0.0,0.0,0.0,0.0,0.0,0.0,0.0,0.0,0.0,0.0,0.0,0.0,0.0,0.0,0.0,0.0,0.0,0.0,0.0,0.0,0.0,0.0,0.0,0.0,0.0,0.0,0.0,0.0,0.0,0.0,0.0,0.0,0.0,0.0,0.0,0.0,0.0,0.0,0.0,0.0,0.0,0.0,0.0,0.0,0.0,0.0,0.0,0.0,0.0,0.0,0.0,0.0,0.0,0.0,0.0,0.0,0.0,0.0,0.0,0.0,0.0,0.0,0.0,0.0,0.0,0.0,0.0,0.0,0.0,0.0,0.0,0.0,0.0,0.0,0.0,0.0,0.0,0.0,0.0,0.0,0.0,0.0,0.0,0.0,0.0,0.0,0.0,0.0,0.0,0.0,0.0,0.0,0.0,0.0,0.0,0.0,0.0,0.0,0.0,0.0,0.0,0.0,0.0,0.0,0.0,0.0,0.0,0.0,0.0,0.0,0.0,0.0,0.0,0.0,0.0,0.0,0.0,0.0,0.0,0.0,0.0,0.0,0.0,0.0,0.0,0.0,0.0,0.0,0.0,0.0,0.0,0.0,0.0,0.0,0.0,0.0,0.0,0.0,0.0,0.0,0.0,0.0,0.0,0.0,0.0,0.0,0.0,0.0,0.0,0.0,0.0,0.0,0.0,0.0,0.0,0.0,0.0,0.0,0.0,0.0,0.0,0.0,0.0,0.0,0.0,0.0,0.0,0.0,0.0,0.0,0.0,0.0,0.0,0.0,0.0,0.0,0.0,0.0,0.0,0.0,0.0,0.0,0.0,0.0,0.0,0.0,0.0,0.0,0.0,0.0,0.0,0.0,0.0,0.0,0.0,0.0,0.0,0.0,0.0,0.0,0.0,0.0,0.0,0.0,0.0,0.0,0.0,0.0,0.0,0.0,0.0,0.0,0.0,2.0814,1.9978,0.0,0.0,0.0,0.0,0.0,0.0,0.0,0.0,0.0,0.0,0.0,0.0,0.0,0.0,0.0,0.0,0.0,0.0,0.0,0.0,0.0,0.0,0.0,0.0,0.0,0.0,0.0,0.0,0.0,0.0,0.0,0.0,0.0,0.0,0.0,0.0,0.0,0.0,2.3335,2.3673,2.3637,2.2965,2.2424,2.1991,0.0,0.0,0.0,0.0,0.0,0.0,0.0,0.0,0.0,0.0,0.0,0.0,0.0,0.0,0.0,0.0,0.0,0.0,0.0,0.0,0.0,0.0,0.0,0.0,0.0,0.0,0.0,0.0,0.0,0.0,0.0,0.0,0.0,0.0,0.0,0.0,0.0,0.0,0.0,0.0,0.0,0.0,0.0,0.0,0.0,0.0,0.0,0.0,0.0,0.0,0.0,0.0,0.0,0.0,0.0,0.0,0.0,0.0,0.0,0.0,0.0,0.0,0.0,0.0,0.0,0.0,0.0,0.0,0.0,0.0,2.2173,2.1692,0.0,0.0,0.0,0.0,0.0,0.0,0.0,0.0,0.0,0.0,0.0,0.0,0.0,0.0,0.0,0.0,0.0,0.0,0.0,0.0,0.0,0.0,0.0,2.3037,2.2962,2.2784,2.281,2.2744,0.0,0.0,0.0,0.0,0.0,0.0,0.0,2.3772,2.382,2.4061,2.4946,2.5335,2.52,2.4294,2.3338,2.2368,2.2094,0.0,0.0,0.0,0.0,0.0,0.0,0.0,0.0,0.0,0.0,0.0,0.0,0.0,0.0,0.0,0.0,0.0,0.0,0.0,0.0,0.0,0.0,0.0,0.0,0.0,0.0,0.0,0.0,0.0,0.0,0.0,0.0,0.0,0.0,0.0,0.0,0.0,0.0,0.0,0.0,0.0,0.0,0.0,0.0,0.0,0.0,0.0,0.0,0.0,0.0,0.0,0.0,0.0,0.0,0.0,0.0,0.0,0.0,0.0,0.0,0.0,0.0,0.0,2.2929,2.297,2.3051,2.3051,2.3367,2.3892,2.3306,2.3214,2.344,2.2722,0.0,0.0,0.0,0.0,0.0,0.0,0.0,0.0,0.0,0.0,0.0,0.0,0.0,0.0,0.0,0.0,0.0,0.0,0.0,0.0,0.0,2.3065,2.2838,2.3025,2.3257,2.3498,2.3748,0.0,0.0,0.0,0.0,0.0,2.3559,2.3643,2.4023,2.468,2.539,2.573,2.5676,2.4639,2.4062,2.3903,2.3629,2.3418,2.3242,0.0,0.0,0.0,0.0,0.0,0.0,0.0,0.0,0.0,0.0,0.0,0.0,0.0,0.0,0.0,0.0,0.0,0.0,0.0,0.0,0.0,0.0,0.0,0.0,0.0,0.0,0.0,0.0,0.0,0.0,0.0,0.0,0.0,0.0,0.0,0.0,0.0,0.0,0.0,0.0,0.0,2.2221,2.2221,0.0,0.0,0.0,0.0,0.0,0.0,0.0,0.0,0.0,0.0,0.0,0.0,0.0,2.3201,2.3389,2.3786,2.4086,2.4247,2.4247,2.4453,2.4855,2.4855,2.5125,2.5552,2.5074,0.0,2.3491,2.3378,0.0,0.0,0.0,0.0,0.0,0.0,0.0,0.0,0.0,0.0,0.0,0.0,0.0,0.0,0.0,0.0,0.0,0.0,0.0,0.0,0.0,2.3895,2.3829,2.3829,2.4084,2.4255,2.4331,2.4697,0.0,0.0,0.0,2.5342,2.5456,2.5496,2.5923,2.6814,2.663,2.6804,2.73,2.6304,2.5566,2.5089,2.4989,2.4398,2.3496,2.3276,0.0,0.0,0.0,0.0,0.0,0.0,0.0,0.0,0.0,0.0,0.0,0.0,0.0,0.0,0.0,0.0,0.0,0.0,0.0,0.0,0.0,0.0,0.0,0.0,0.0,0.0,0.0,0.0,0.0,0.0,0.0,0.0,0.0,0.0,0.0,0.0,0.0,0.0,0.0,2.209,2.2352,2.2717,2.2484,2.2281,0.0,0.0,0.0,0.0,0.0,0.0,0.0,0.0,0.0,2.3667,2.4085,2.4374,2.445,2.4914,2.5196,2.5295,2.5295,2.5388,2.5595,2.5595,2.571,2.5887,2.5678,2.5312,2.4801,2.4158,2.3582,2.3133,0.0,0.0,0.0,0.0,2.3425,2.3382,0.0,0.0,0.0,0.0,0.0,0.0,0.0,0.0,0.0,0.0,0.0,0.0,2.4502,2.4688,2.4761,2.4641,2.5004,2.5187,2.5065,2.5607,2.6051,2.6312,2.6654,2.7013,2.7353,2.7357,2.7694,2.8405,2.7767,2.7824,2.8482,2.7536,2.6751,2.6131,2.6131,2.5252,2.3751,2.3656,2.3513,2.3339,0.0,0.0,0.0,0.0,0.0,0.0,0.0,0.0,0.0,0.0,0.0,0.0,0.0,0.0,0.0,0.0,0.0,0.0,0.0,0.0,0.0,0.0,0.0,0.0,0.0,0.0,0.0,0.0,0.0,0.0,0.0,0.0,0.0,0.0,0.0,0.0,0.0,2.2391,2.2635,2.3238,2.3094,2.293,0.0,0.0,0.0,0.0,0.0,0.0,2.4662,2.4683,2.4735,2.4849,2.5201,2.5439,2.5564,2.5907,2.6136,2.6261,2.6261,2.6312,2.6414,2.6414,2.6476,2.658,2.6466,2.6414,2.632,2.5129,2.4426,2.4149,2.4508,2.4329,2.3947,2.4454,2.4544,2.4477,0.0,0.0,0.0,0.0,0.0,0.0,0.0,0.0,0.0,0.0,0.0,2.5256,2.5073,2.5066,2.5133,2.524,2.5974,2.638,2.63,2.6986,2.7654,2.8234,2.7622,2.76,2.8315,2.8506,2.8545,2.8405,2.8421,2.8458,2.8482,2.7536,2.7079,2.7038,2.7038,2.6068,2.4425,2.4043,2.3878,2.3815,2.328,0.0,0.0,0.0,0.0,0.0,0.0,0.0,0.0,0.0,0.0,0.0,0.0,0.0,0.0,0.0,0.0,0.0,0.0,0.0,0.0,0.0,0.0,0.0,0.0,0.0,0.0,0.0,0.0,0.0,0.0,0.0,0.0,0.0,0.0,0.0,0.0,0.0,0.0,2.4362,2.4073,0.0,0.0,0.0,0.0,2.3877,2.426,2.4672,2.5138,2.5159,2.5366,2.5815,2.5856,2.6084,2.6531,2.655,2.679,2.7225,2.7225,2.7429,2.7796,2.7796,2.8034,2.844,2.7983,2.7796,2.7693,2.636,2.5792,2.5782,2.5814,2.5792,2.5771,2.5802,2.5813,2.5802,0.0,0.0,0.0,0.0,0.0,0.0,0.0,0.0,2.5258,2.5383,2.5282,2.5311,2.559,2.5618,2.5909,2.6654,2.6905,2.7256,2.7841,2.8129,2.8431,2.8771,2.8373,2.8319,2.8704,2.929,2.9497,2.9295,2.9318,2.9348,2.9329,2.8991,2.8532,2.8001,2.8001,2.7313,2.6163,2.6028,2.5961,2.5875,2.486,2.4439,0.0,0.0,0.0,0.0,0.0,0.0,0.0,0.0,0.0,0.0,0.0,0.0,0.0,0.0,0.0,0.0,0.0,0.0,0.0,0.0,0.0,0.0,0.0,0.0,0.0,0.0,0.0,0.0,0.0,0.0,0.0,0.0,0.0,0.0,0.0,0.0,0.0,2.4095,2.4219,0.0,2.4715,2.4746,2.4861,2.5151,2.5317,2.5471,2.5637,2.5938,2.6176,2.6354,2.6889,2.7272,2.7438,2.7738,2.7966,2.8131,2.8131,2.8214,2.8357,2.8357,2.844,2.8595,2.8429,2.8357,2.8303,2.7829,2.7305,2.6831,2.7086,2.7189,2.7219,2.7531,2.7634,2.7634,0.0,0.0,0.0,0.0,0.0,0.0,0.0,0.0,2.5665,2.5636,2.5788,2.5948,2.6119,2.6387,2.682,2.7476,2.7717,2.8108,2.8767,2.8914,2.9039,2.9203,2.9073,2.9096,2.9306,2.9827,3.0001,2.9801,2.9801,2.9801,2.9801,2.9801,2.9485,2.8941,2.8941,2.8581,2.8011,2.8011,2.7659,2.7023,2.6109,2.5776,2.5711,0.0,0.0,0.0,0.0,0.0,0.0,0.0,0.0,0.0,0.0,0.0,0.0,0.0,0.0,0.0,0.0,0.0,0.0,0.0,0.0,0.0,0.0,0.0,0.0,0.0,0.0,0.0,0.0,0.0,0.0,0.0,0.0,0.0,0.0,2.3701,2.4012,2.4291,2.457,2.4921,2.5387,2.5439,2.5627,2.6105,2.6136,2.6259,2.657,2.687,2.7108,2.7263,2.7841,2.821,2.8378,2.8678,2.8916,2.906,2.906,2.906,2.906,2.906,2.906,2.906,2.906,2.906,2.906,2.906,2.8731,2.8208,2.8162,2.814,2.8169,2.8491,2.8605,2.8605,0.0,0.0,0.0,0.0,0.0,0.0,0.0,2.6133,2.6436,2.5964,2.677,2.7208,2.6675,2.733,2.7753,2.7649,2.842,2.8941,2.9054,2.9338,2.9535,2.9588,2.9733,2.9885,3.0066,3.0085,3.0001,2.9801,2.9801,2.9801,2.9801,2.9801,2.9801,2.9801,2.9801,2.9801,2.9801,2.9801,2.8794,2.7155,2.6933,2.6736,2.6472,0.0,0.0,0.0,0.0,0.0,0.0,0.0,0.0,0.0,0.0,0.0,0.0,0.0,0.0,0.0,0.0,0.0,0.0,0.0,0.0,0.0,0.0,0.0,0.0,0.0,0.0,0.0,0.0,0.0,0.0,0.0,0.0,0.0,2.394,2.394,2.4261,2.5128,2.5231,2.5429,2.5897,2.596,2.6156,2.6634,2.6665,2.7025,2.7879,2.7941,2.8148,2.8605,2.8636,2.8864,2.9342,2.9329,2.958,3.0036,3.0036,3.0036,3.0036,3.0036,3.0036,3.0036,3.0036,3.0036,3.0036,3.0036,3.0036,2.9942,2.9009,2.8647,2.8647,2.8647,2.8647,2.8647,0.0,0.0,0.0,0.0,0.0,0.0,0.0,2.6133,2.6465,2.609,2.6747,2.7179,2.6977,2.7508,2.8063,2.8571,2.892,2.9439,3.0178,2.9905,2.9605,2.9328,2.9761,2.9843,2.9463,2.9729,2.9859,2.9801,2.9801,2.9801,2.9801,2.9801,2.9801,2.9801,2.9801,2.9801,2.9801,2.9801,2.9505,2.8998,2.8318,2.8088,2.7997,0.0,0.0,0.0,0.0,0.0,0.0,0.0,0.0,0.0,0.0,0.0,0.0,0.0,0.0,0.0,0.0,0.0,0.0,0.0,0.0,0.0,0.0,0.0,0.0,0.0,0.0,0.0,0.0,0.0,0.0,0.0,2.4839,2.4839,2.4839,2.4839,2.5057,2.5648,2.601,2.6405,2.6873,2.7181,2.754,2.8005,2.8048,2.815,2.8386,2.8729,2.8967,2.9091,2.9446,2.9839,3.0318,3.0328,3.0556,3.1012,3.1012,3.1012,3.1012,3.1012,3.1012,3.1012,3.1012,3.1012,3.1012,3.1012,3.1012,3.0918,2.9973,2.9622,2.9622,2.9622,2.9622,2.9622,0.0,0.0,0.0,0.0,0.0,0.0,0.0,2.6448,2.6897,2.6348,2.7155,2.775,2.765,2.7967,2.8465,2.9146,2.9511,3.0019,3.0785,3.0345,2.9916,2.9584,2.967,2.9641,2.947,2.9683,2.9801,2.9801,3.003,3.0143,3.0143,3.0379,3.0479,3.0479,3.0479,3.0344,3.0143,3.0143,3.0005,2.9763,2.9248,2.9111,2.9042,2.7376,2.6529,2.6079,2.492,2.4202,2.3785,2.3627,0.0,0.0,0.0,0.0,0.0,0.0,0.0,0.0,0.0,0.0,0.0,0.0,0.0,0.0,0.0,0.0,0.0,0.0,0.0,0.0,0.0,0.0,0.0,0.0,2.5657,2.5865,2.6051,2.5916,2.5958,2.6426,2.6882,2.7325,2.7791,2.8059,2.8398,2.8853,2.8884,2.906,2.9466,2.9735,2.9987,3.016,3.0429,3.0722,3.0991,3.0991,3.1126,3.1408,3.1408,3.1408,3.1408,3.1408,3.1408,3.1408,3.1408,3.1408,3.1408,3.1408,3.1408,3.1346,0.0,0.0,0.0,0.0,3.0587,3.0587,0.0,0.0,0.0,0.0,0.0,0.0,0.0,2.6883,2.7468,2.6608,2.773,2.8556,2.8415,2.8566,2.8913,2.9484,3.012,3.0627,3.0914,3.062,3.0314,3.0037,2.9533,2.9432,2.9789,2.9864,2.9889,2.9889,3.0422,3.0698,3.0698,3.1173,3.1396,3.1396,3.1396,3.1145,3.0698,3.0698,3.0419,2.9977,2.9905,2.9842,2.9634,2.8171,2.7347,2.6785,2.5209,2.439,2.4006,2.3893,0.0,0.0,0.0,0.0,0.0,0.0,0.0,0.0,0.0,0.0,0.0,0.0,0.0,0.0,0.0,0.0,0.0,0.0,0.0,0.0,0.0,0.0,0.0,0.0,2.6417,2.6862,2.737,2.713,2.7037,2.7401,2.781,2.822,2.8636,2.8771,2.9009,2.9435,2.9508,2.9956,3.0922,3.0964,0.0,0.0,0.0,3.1679,3.1857,3.1594,3.1557,3.1749,3.1608,3.155,3.155,3.155,3.155,3.155,3.155,3.155,3.1553,3.1691,3.1749,3.1735,3.1481,3.148,3.1576,3.1453,3.1408,3.1408,0.0,0.0,0.0,0.0,0.0,0.0,0.0,2.6755,2.7293,2.6593,2.773,2.8556,2.8415,2.8856,2.9326,2.9711,3.0587,3.0954,3.054,3.0606,3.0337,2.9649,2.9656,2.9727,2.9801,3.0221,3.0447,3.0447,3.0984,3.1258,3.1258,3.1359,3.1396,3.1396,3.1396,3.1336,3.1258,3.1258,3.1195,3.1057,3.062,3.0193,2.9695,2.8692,2.8251,2.7939,2.6185,2.5488,2.5286,2.4416,2.4125,2.4072,2.3874,2.3744,0.0,0.0,0.0,0.0,0.0,0.0,0.0,0.0,0.0,0.0,0.0,0.0,0.0,0.0,0.0,0.0,0.0,0.0,0.0,2.6893,2.7112,2.7431,2.8235,2.8597,2.8669,2.839,2.875,2.906,2.9166,2.9849,3.0339,3.0421,3.0784,3.1475,3.2579,3.2643,3.3104,3.4108,3.3256,3.339,3.468,3.2835,3.2563,3.3888,3.2913,0.0,3.2454,3.2454,3.2454,3.2454,3.2454,3.2454,3.2524,3.3506,3.3902,3.374,3.205,3.1953,3.2663,3.1743,3.1408,3.1408,0.0,0.0,0.0,0.0,0.0,0.0,0.0,2.6683,2.7315,2.6814,2.7976,2.8861,2.8897,2.9082,2.9508,3.0273,3.0898,3.1127,3.0819,3.0745,3.0436,2.983,2.9897,3.0082,3.0337,3.0509,3.0736,3.0997,3.1537,3.18,3.1813,3.2112,3.2248,3.2248,3.2248,3.2074,3.18,3.18,3.165,3.1371,3.111,3.0683,3.008,2.893,2.8502,2.8323,2.6935,2.6452,2.6295,2.533,2.4995,2.49,2.4335,2.4073,2.3954,0.0,0.0,0.0,0.0,0.0,0.0,0.0,0.0,0.0,0.0,0.0,0.0,0.0,0.0,2.5492,2.6426,0.0,2.6904,2.7802,2.8143,2.8642,2.9607,3.0161,3.0073,2.9074,2.984,3.0324,3.0026,3.143,3.223,3.1921,3.2643,3.3449,3.4268,3.4306,3.4672,3.5483,3.4959,3.5043,3.5847,3.4679,3.4521,3.5333,3.4159,3.3903,3.443,3.3861,3.3604,3.3632,3.419,3.4131,3.3688,3.4875,3.569,3.604,3.444,3.3431,3.2833,3.2267,3.2054,3.2054,0.0,0.0,0.0,0.0,0.0,0.0,0.0,2.659,2.7337,2.701,2.8202,2.9176,2.9382,2.9261,2.9684,3.0961,3.1196,3.1289,3.1312,3.0936,3.0518,3.0126,3.0094,3.0332,3.083,3.0788,3.1012,3.156,3.2114,3.2367,3.239,3.2866,3.3102,3.3102,3.3102,3.2828,3.2367,3.2367,3.2137,3.1723,3.1599,3.1225,3.0628,2.9375,2.8837,2.8621,2.7698,2.7374,2.7212,2.6162,2.5798,2.5652,2.4765,2.4387,2.4252,2.4262,2.4031,0.0,0.0,0.0,0.0,0.0,0.0,0.0,0.0,2.4818,2.5193,2.5546,2.5917,2.6447,2.7379,2.7545,2.7887,2.8883,2.9358,3.0045,3.1318,3.1821,3.1633,3.0504,3.1363,3.1913,3.154,3.3192,3.4095,3.3595,3.4504,3.5338,3.5927,3.5976,3.6254,3.6861,3.6657,3.6644,3.6873,3.6441,3.6308,3.6522,3.5374,3.5306,3.6172,3.5251,3.483,3.4875,3.5802,3.5802,3.5207,3.5911,3.6873,3.7792,3.6644,3.5044,3.3378,3.3378,3.3378,3.3378,0.0,0.0,0.0,0.0,0.0,0.0,0.0,0.0,2.7196,2.6867,2.8147,2.9176,2.9382,2.9378,3.0001,3.1566,3.1609,3.1607,3.1723,3.1082,3.0518,3.0126,3.0094,3.0276,3.0638,3.107,3.1574,3.2116,3.2715,3.3002,3.3002,3.3065,3.3102,3.3102,3.3102,3.3065,3.3002,3.3002,3.2964,3.2864,3.2328,3.1788,3.1248,3.0611,3.0068,2.9546,2.8663,2.8331,2.8081,2.6369,2.5798,2.5652,2.4765,2.4487,2.447,2.4471,2.4598,2.4682,2.4448,2.4682,2.4984,2.5006,2.5317,2.5651,0.0,2.5745,2.6025,2.6883,2.7111,2.74,2.8297,2.845,2.8929,3.0404,3.0696,3.1413,3.3381,3.3705,3.3851,3.4152,3.3918,3.3884,3.4299,3.4939,3.5305,3.5243,3.5734,3.6506,3.7577,3.763,3.8153,3.9258,3.8267,3.8214,3.9297,3.7247,3.6711,3.7699,3.6549,3.6077,3.6199,3.6063,3.6006,3.602,3.6145,3.6698,3.7459,3.6563,3.6873,3.7792,3.6644,3.6036,3.5815,3.5815,3.5815,3.5815,0.0,0.0,0.0,0.0,0.0,0.0,0.0,0.0,0.0,2.717,2.8174,2.9022,2.9469,2.9833,3.0474,3.1531,3.1366,3.1365,3.1769,3.1114,3.0575,3.0295,3.0391,3.0544,3.0761,3.0988,3.147,3.2204,3.2453,3.2765,3.3102,3.3102,3.3102,3.3102,3.3102,3.3102,3.3102,3.3102,3.3102,3.3052,3.2441,3.1888,3.1346,3.0799,3.0269,2.9771,2.9564,2.9313,0.0,2.7347,2.6668,2.6212,2.4912,2.4615,2.4765,2.4872,2.5179,2.5496,2.5537,2.569,2.5828,2.5784,2.614,2.6558,2.6829,2.71,2.744,2.795,2.8061,2.8444,2.9707,2.9432,2.9716,3.1894,3.1979,3.2517,3.4635,3.5193,3.5838,3.7041,3.6996,3.6413,3.5307,3.6573,3.7315,3.6932,3.7726,3.845,3.8921,3.8959,3.918,3.9672,3.9206,3.9193,3.9697,3.8725,3.8476,3.8921,3.7752,3.7566,3.8214,3.7514,3.7567,3.8201,3.7487,3.7858,3.8908,3.8437,3.8516,3.8907,3.8412,3.824,3.807,3.6711,3.6199,3.6199,0.0,0.0,0.0,0.0,0.0,0.0,0.0,0.0,0.0,0.0,2.8064,2.8928,2.9524,3.0134,3.0696,3.1176,3.1175,3.1294,3.1604,3.1199,3.0808,3.0492,3.0619,3.0756,3.0899,3.0902,3.1248,3.1989,3.1989,3.2202,3.2638,3.2638,3.2638,3.2638,3.2638,3.2638,3.2638,3.2638,3.2638,3.2589,3.2152,3.1662,3.1145,3.0748,3.0307,2.9925,3.0062,2.9927,2.9506,2.8227,2.7629,2.7145,2.5743,2.5335,2.5454,2.5787,2.6044,2.6234,2.6351,2.6513,2.6623,2.6532,2.6937,2.7458,2.7804,2.8136,2.8452,2.8736,2.9032,2.9611,3.0863,3.0707,3.1148,3.3489,3.353,3.404,3.6216,3.6843,3.7599,3.8968,3.912,3.847,3.6825,3.8149,3.8925,3.8439,3.9206,3.9697,3.9697,3.9697,3.9697,3.9697,3.9697,3.9697,3.9697,3.9697,3.9772,3.991,3.9024,3.915,4.011,3.9245,3.9298,4.0097,3.9219,3.9325,4.0149,4.0149,4.0149,4.0149,4.0149,4.0149,3.994,3.8236,3.7416,3.7192,0.0,0.0,0.0,0.0,0.0,0.0,0.0,0.0,0.0,0.0,0.0,0.0,0.0,3.0134,3.0506,3.0534,3.1293,3.1615,3.1247,3.1436,3.131,3.0717,3.0698,3.0756,3.0899,3.0902,3.1069,3.1421,3.1421,3.1434,3.1446,3.1446,3.1446,3.1446,3.1446,3.1446,3.1446,3.1446,3.1446,3.1446,3.1434,3.1097,3.0613,3.06,3.0433,3.0164,2.998,3.003,2.9979,2.8708,2.844,2.8483,2.759,2.7006,2.6772,2.7426,2.7316,2.6906,2.666,2.7067,2.7506,2.7327,2.7917,2.8556,2.8566,2.8576,2.8721,2.9187,3.0112,3.0974,3.1491,3.2402,3.3613,3.525,3.552,3.6267,3.8491,3.8818,3.9044,3.9609,3.9685,3.9659,3.9569,3.9646,3.9659,3.9658,3.9672,3.9697,3.9697,3.9697,3.9697,3.9697,3.9697,3.9697,3.9697,3.9697,3.9961,4.0475,4.0435,4.071,4.1251,4.1211,4.1224,4.1251,4.1211,4.1224,4.1251,4.1251,4.1251,4.1251,4.1251,4.1251,4.1238,4.1171,4.0482,3.9669,0.0,0.0,0.0,0.0,0.0,0.0,0.0,0.0,0.0,0.0,0.0,0.0,0.0,0.0,0.0,0.0,3.0921,3.1079,3.0827,3.1299,3.1212,3.0336,3.056,3.0598,3.0373,3.0499,3.0669,3.0861,3.1002,3.1188,3.1396,3.1396,3.1396,3.1396,3.1396,3.1396,3.1396,3.1396,3.1396,3.1371,3.1009,3.0761,3.0578,3.0403,3.0278,3.0225,0.0,3.0228,2.9739,2.8917,2.8566,2.8322,2.7269,2.7127,2.7425,2.7787,2.7912,2.795,2.7982,2.8262,2.8479,2.8224,2.8618,2.906,2.906,2.9311,2.9789,3.0649,3.0977,3.1581,3.3167,3.3452,3.4105,3.6076,3.6585,3.7232,3.8705,3.9208,3.9496,3.9685,3.9697,3.9697,3.9697,3.9697,3.9697,3.9697,3.9697,3.9697,3.9697,3.9697,3.9697,3.9697,4.0049,4.0224,4.0224,4.0588,4.0851,4.1039,4.1039,4.1139,4.1301,4.1301,4.1301,4.1301,4.1301,4.1301,4.1301,4.1301,4.1301,4.1301,4.1301,4.1301,4.1301,4.1301,4.1076,4.0788,0.0,0.0,0.0,0.0,0.0,0.0,0.0,0.0,0.0,0.0,0.0,0.0,0.0,0.0,0.0,0.0,0.0,3.0568,3.0292,3.1032,3.1135,3.0346,3.0769,3.0868,3.0543,3.0587,3.0615,3.0643,3.062,3.0716,3.0929,3.0861,3.0831,3.0831,3.0831,3.0831,3.0831,3.0831,3.0881,3.0938,3.0603,3.0531,3.0624,3.0436,3.0458,0.0,3.0741,3.0518,3.0033,2.9398,2.9015,2.8665,2.7926,2.7997,2.8354,2.8384,2.8511,2.8667,2.8778,2.9021,2.9279,2.9387,2.9773,3.0211,3.0618,3.0931,3.1339,3.202,3.2261,3.2764,3.4153,3.459,3.523,3.669,3.7364,3.8015,3.8916,3.9343,3.9581,3.9697,3.9697,3.9697,3.9697,3.9697,3.9697,3.9697,3.9697,3.9697,3.9697,3.9885,3.9986,3.9986,4.0512,4.0788,4.0788,4.1139,4.1415,4.1617,4.1818,4.1918,4.1918,4.1918,4.1918,4.1918,4.1918,4.1918,4.1918,4.1918,4.1918,4.1918,4.1918,4.1918,4.1918,4.1918,4.1918,4.188,0.0,0.0,0.0,0.0,0.0,0.0,0.0,0.0,0.0,0.0,0.0,0.0,0.0,0.0,0.0,0.0,0.0,0.0,2.9701,3.0662,3.1073,3.0695,3.1227,3.1454,3.13,3.1108,3.0892,3.0698,3.0327,3.0136,3.0104,2.9905,2.9833,2.9861,2.9852,2.9842,2.987,2.987,3.0008,3.0226,3.0226,3.0426,3.0699,3.0726,3.091,3.1171,3.0922,3.0855,3.0769,3.0159,2.9737,2.9474,2.9509,2.9485,2.9435,2.9286,2.9185,2.9144,2.919,2.948,2.9992,3.081,3.135,3.1944,3.2976,3.3201,3.3213,3.325,3.3858,3.4385,3.4434,3.5746,3.6911,3.717,3.7913,3.8675,3.9248,3.931,3.9401,0.0,0.0,0.0,0.0,0.0,3.971,3.9735,3.9723,3.971,3.9735,4.0211,4.0499,4.055,4.1064,4.1339,4.1339,4.1364,4.1667,4.2249,4.2763,4.3002,4.3002,4.3002,4.3002,4.3002,4.3002,4.3002,4.3002,4.3002,4.3002,4.3002,4.3002,4.3002,4.3002,4.3002,4.3002,4.2926,0.0,0.0,0.0,0.0,0.0,0.0,0.0,0.0,0.0,0.0,0.0,0.0,0.0,0.0,0.0,0.0,0.0,0.0,2.9305,3.0115,3.0517,3.0265,3.0538,3.0892,3.1287,3.1108,3.0892,3.0698,3.0594,3.0467,3.0321,3.0113,3.0235,3.0611,3.0453,3.0521,3.0765,3.0765,3.0697,3.0573,3.0573,3.0628,3.0728,3.0976,3.1124,3.1219,3.1412,3.0998,3.0374,3.042,2.9875,2.9246,2.9443,2.9223,2.9173,3.0626,3.0321,2.9896,3.1483,3.1527,3.136,3.237,3.2698,3.2852,3.3138,3.3201,3.3375,3.3968,3.4104,3.4299,3.4884,3.6198,3.7196,3.7269,3.8451,3.9418,3.9582,3.9607,3.962,3.9697,0.0,3.9697,3.9697,3.9697,3.9873,4.0261,3.9923,3.9873,4.0274,4.0425,4.0675,4.1076,4.1656,4.1972,4.1972,4.2372,4.2636,4.2801,4.2925,4.3002,4.3002,4.3002,4.3002,4.3002,4.3002,4.3002,4.3002,4.3002,4.3002,4.3002,4.3002,4.3002,4.3002,4.3002,4.3002,4.2975,0.0,0.0,0.0,0.0,0.0,0.0,0.0,0.0,0.0,0.0,0.0,0.0,0.0,0.0,0.0,0.0,0.0,0.0,0.0,2.9662,2.9945,2.9835,3.0203,3.0557,3.09,3.0976,3.0894,3.07,3.0794,3.0685,3.0406,3.019,3.0214,3.041,3.0182,3.0313,3.07,3.0611,3.071,0.0,0.0,3.0939,3.1,3.1303,3.1348,3.1264,3.1453,3.0948,3.0136,2.976,2.9308,2.8888,2.8844,2.8785,2.9033,3.071,3.0505,3.0236,3.271,3.2688,3.2328,3.3873,3.4248,3.4288,3.4408,3.4434,3.4519,3.486,3.4714,3.4653,3.5126,3.6125,3.6935,3.7056,3.8237,3.9216,3.9479,3.9517,3.9568,0.0,3.9697,0.0,4.0036,4.0061,4.0274,4.0813,4.0349,4.0287,4.0826,4.1103,4.1379,4.1693,4.2247,4.2549,4.2549,4.2851,4.3002,4.3002,4.3002,4.3002,4.3002,4.3002,4.3002,4.3002,4.3002,4.3002,4.3002,4.3002,4.3002,4.3002,4.3002,4.3002,4.3002,4.3002,4.3002,4.3025,0.0,0.0,0.0,0.0,0.0,0.0,0.0,0.0,0.0,0.0,0.0,0.0,0.0,0.0,0.0,0.0,0.0,0.0,0.0,0.0,2.9426,2.9507,2.9998,3.0315,3.0396,3.0693,3.0797,3.0699,3.0783,3.0698,3.0435,3.0209,3.0039,2.9931,2.964,2.9799,3.027,3.0134,3.0497,3.1149,3.1201,3.1253,3.1328,0.0,3.145,3.125,3.115,3.0756,3.0089,2.8778,2.8453,2.8508,2.8123,2.8318,2.8991,3.0508,3.0417,3.05,3.3591,3.3572,3.3206,3.5283,3.5804,3.5855,3.5972,3.6003,3.5908,3.5608,3.5356,3.5187,3.5151,3.5807,3.648,3.6806,3.7737,3.8637,3.9261,3.9349,3.9439,3.9671,3.976,3.9986,4.045,4.0549,4.0826,4.1378,4.0989,4.0927,4.139,4.192,4.2224,4.2299,4.2763,4.3002,4.3002,4.3002,4.3002,4.3002,4.3002,4.3002,4.3002,4.3002,4.3002,4.3002,4.3002,4.3002,4.3002,4.3002,4.3002,4.3002,4.3002,4.3052,4.3115,4.3115,4.3151,4.3277,0.0,0.0,0.0,0.0,0.0,0.0,0.0,0.0,0.0,0.0,2.8943,2.9107,0.0,0.0,0.0,0.0,0.0,0.0,0.0,0.0,0.0,2.948,2.9594,2.9884,3.0396,3.0131,3.0237,3.0699,3.0239,3.0225,3.0641,3.0267,3.0319,3.0694,3.0316,3.0357,3.0706,3.0894,3.0977,3.0969,3.1184,3.1289,3.1295,3.1174,0.0,0.0,3.0364,3.0377,3.0435,2.8656,2.8231,2.8375,2.8095,2.8277,2.9174,3.1995,3.1737,3.1427,3.5521,3.5505,3.4724,3.6481,3.6919,3.6758,3.6139,3.6003,3.586,3.5368,3.5223,3.5138,3.4908,3.5575,3.6381,3.7095,3.7926,3.8752,3.9519,3.962,3.9658,3.9685,4.0099,4.04,4.05,4.0901,4.1416,4.1997,4.1959,4.196,4.2034,4.2136,4.24,4.2851,4.2951,4.3002,4.3002,4.3002,4.3002,4.3002,4.3002,4.3002,4.3002,4.3002,4.3002,4.3002,4.3002,4.3002,4.3002,4.3002,4.3002,4.3002,4.3002,4.3277,4.3664,4.3664,4.3953,4.434,0.0,0.0,0.0,0.0,0.0,0.0,0.0,0.0,2.8395,2.8259,2.8581,2.8868,2.894,2.894,0.0,0.0,0.0,0.0,0.0,0.0,0.0,0.0,2.9037,2.9173,2.9455,2.9377,2.9577,3.0082,0.0,3.0004,3.0384,3.0078,3.0002,3.0104,2.97,2.9759,3.0188,3.0356,3.0529,3.0721,3.1015,3.0896,3.055,0.0,0.0,0.0,2.9703,2.942,2.9262,2.8755,2.8235,2.7812,2.7685,2.8072,2.9119,3.1757,3.1472,3.1402,3.6294,3.621,3.522,3.7147,3.7625,3.7302,3.6069,3.5788,3.5644,3.5102,3.4993,3.4957,3.4823,3.5259,3.5929,3.6883,3.7591,3.8377,3.934,3.962,3.9697,3.9697,4.0161,4.06,4.0888,4.1429,4.2008,4.2562,4.2626,4.2626,4.2626,4.2626,4.2725,4.3002,4.3002,4.3002,4.3002,4.3002,4.3002,4.3002,4.3002,4.3002,4.3002,4.3002,4.3002,4.3002,4.3002,4.3151,4.3427,4.3427,4.3576,4.3827,4.3827,4.3989,4.4215,4.4215,4.4378,4.464,0.0,0.0,0.0,0.0,0.0,0.0,0.0,2.7651,2.7984,2.7812,2.8198,2.8522,2.8635,2.8708,2.8756,0.0,0.0,0.0,0.0,0.0,0.0,0.0,0.0,0.0,2.8495,0.0,0.0,2.9201,2.9289,0.0,0.0,0.0,0.0,0.0,2.8978,2.9014,2.9369,2.95,2.9826,0.0,0.0,3.0375,0.0,0.0,0.0,0.0,0.0,2.863,2.8286,2.8651,2.8287,2.7647,2.748,2.8004,2.913,3.1381,3.1173,3.1341,3.6453,3.6343,3.527,3.732,3.7839,3.7441,3.595,3.5596,3.544,3.4908,3.4799,3.4799,3.4799,3.4981,3.549,3.662,3.7156,3.7877,3.9122,3.9478,3.9645,3.9697,4.0274,4.0838,4.1264,4.1958,4.2551,4.2977,4.3002,4.3002,4.3002,4.3002,4.3002,4.3002,4.3002,4.3002,4.3002,4.3002,4.3002,4.3002,4.3002,4.3002,4.3002,4.3002,4.3051,4.3164,4.3164,4.3478,4.3978,4.3978,4.4215,4.4589,4.4589,4.4692,4.4792,4.4792,4.4867,4.5031,0.0,0.0,0.0,0.0,0.0,0.0,0.0,2.7484,2.7883,2.8032,2.8118,2.8145,2.8161,2.8446,2.8619,0.0,0.0,0.0,0.0,0.0,0.0,0.0,0.0,0.0,0.0,0.0,0.0,2.8226,2.7932,0.0,0.0,0.0,0.0,0.0,0.0,2.8731,2.8629,2.8932,0.0,0.0,0.0,0.0,0.0,0.0,0.0,0.0,0.0,2.8687,2.8873,2.8016,2.8223,2.8736,2.8058,2.8363,2.9478,3.2043,3.1933,3.192,3.6137,3.6028,3.5122,3.6837,3.7274,3.6978,3.5864,3.5596,3.544,3.4908,3.4799,3.4799,3.4799,3.4823,3.527,3.6595,3.6841,3.7435,3.907,3.931,3.9439,3.9671,4.06,4.1239,4.1289,4.2296,4.2951,4.3002,4.3002,4.3002,4.3002,4.3002,4.3002,4.3002,4.3002,4.3002,4.3002,4.3002,4.3002,4.3002,4.3002,4.3002,4.3002,4.3002,4.3264,4.3727,4.3727,4.4027,4.4541,4.4541,4.4566,4.4589,4.4589,4.493,4.5424,4.5424,4.5723,4.6148,0.0,0.0,0.0,0.0,0.0,0.0,2.6114,2.6797,2.7288,2.7211,2.7717,2.8096,2.8096,2.8218,2.83,0.0,0.0,0.0,0.0,0.0,0.0,0.0,0.0,0.0,0.0,0.0,2.7374,2.7735,2.7611,0.0,0.0,0.0,0.0,0.0,0.0,2.8211,2.8148,2.8151,0.0,0.0,0.0,0.0,0.0,0.0,0.0,0.0,0.0,0.0,2.8027,2.8076,2.8025,2.8114,2.8964,2.9117,2.9478,3.1942,3.1724,3.1622,3.6015,3.5763,3.475,3.6701,3.7077,3.6722,3.5803,3.5488,3.5247,3.4884,3.4799,3.4799,3.4799,3.4799,3.5184,3.6369,3.6689,3.7256,3.8564,3.9063,3.9348,3.9452,4.0545,4.1301,4.1301,4.2333,4.3002,4.3002,4.3002,4.3002,4.3002,4.3002,4.3002,4.3002,4.3002,4.3002,4.3002,4.3002,4.3002,4.3002,4.3002,4.3002,4.3014,4.3339,4.3589,4.3815,4.414,4.4604,4.5146,4.5146,4.5319,4.562,4.562,4.5771,4.5987,4.5987,4.6125,4.6298,0.0,0.0,0.0,0.0,0.0,2.5763,2.5633,2.6269,2.6726,2.6645,2.7308,2.7752,2.7686,2.7736,2.7769,2.7769,0.0,0.0,0.0,0.0,0.0,0.0,0.0,0.0,0.0,0.0,2.6921,2.713,2.7064,2.7351,0.0,0.0,2.816,2.8391,0.0,0.0,0.0,0.0,0.0,0.0,0.0,0.0,0.0,0.0,0.0,0.0,0.0,0.0,0.0,0.0,0.0,2.7729,2.919,2.945,2.9616,3.1737,3.165,3.1699,3.5465,3.539,3.4684,3.6513,3.6694,3.6293,3.573,3.5332,3.503,3.4835,3.4799,3.4799,3.4799,3.4799,3.5147,3.623,3.6563,3.7078,3.8236,3.8775,3.9063,3.9141,4.0279,4.1086,4.1168,4.2278,4.3002,4.3002,4.3002,4.3002,4.3002,4.3002,4.3002,4.3002,4.3002,4.3002,4.3002,4.3002,4.3002,4.3002,4.3151,4.3239,4.3251,4.379,4.4129,4.4317,4.4692,4.5208,4.5736,4.5736,4.5962,4.6298,4.6298,4.6298,4.6298,4.6298,4.6298,4.6298,0.0,0.0,0.0,0.0,0.0,0.0,0.0,2.6068,2.6336,2.6662,2.6879,2.6943,2.6743,2.6888,2.7015,2.7015,0.0,0.0,0.0,0.0,0.0,0.0,0.0,0.0,0.0,0.0,2.6336,2.6205,2.601,2.6356,2.7211,2.701,2.7375,2.8179,0.0,0.0,0.0,0.0,0.0,0.0,0.0,0.0,0.0,0.0,0.0,0.0,0.0,0.0,0.0,0.0,0.0,0.0,0.0,2.9117,3.0001,3.1543,3.199,3.2397,3.43,3.4811,3.5042,3.6144,3.6015,3.5621,3.5596,3.5187,3.4799,3.4799,3.4799,3.4799,3.4799,3.4799,3.5147,3.623,3.6411,3.6861,3.821,3.8421,3.8513,3.8775,3.9811,4.061,4.0884,4.2182,4.3002,4.3002,4.3002,4.3002,4.3002,4.3002,4.3002,4.3002,4.3002,4.3002,4.3002,4.3002,4.3002,4.3014,4.354,4.379,4.3815,4.4353,4.4918,4.5487,4.5499,4.5799,4.6286,4.6286,4.6286,4.6298,4.6298,4.6298,4.6298,4.6298,4.6298,4.6298,0.0,0.0,0.0,0.0,0.0,0.0,0.0,2.5772,2.6029,2.6133,2.6401,2.6573,2.6504,2.6556,2.6586,2.6586,0.0,0.0,0.0,0.0,0.0,0.0,0.0,0.0,0.0,0.0,2.6276,2.5989,2.616,2.6363,2.6591,2.6884,2.7043,2.7032,2.6816,2.6529,0.0,0.0,0.0,0.0,0.0,0.0,2.6142,0.0,0.0,0.0,0.0,0.0,0.0,0.0,0.0,0.0,0.0,0.0,0.0,2.9659,3.0448,3.1532,3.4106,3.4026,3.3606,3.5186,3.532,3.5102,3.5283,3.5054,3.4799,3.4799,3.4799,3.4799,3.4799,3.4799,3.5147,3.623,3.6411,3.6797,3.796,3.8435,3.871,3.8788,4.0133,4.1399,4.2246,4.2745,4.3002,4.3002,4.3002,4.3002,4.3002,4.3002,4.3002,4.3002,4.3002,4.3002,4.3002,4.3002,4.3176,4.3539,4.3714,4.3989,4.4365,4.4957,4.5309,4.5525,4.5886,4.615,4.6298,4.6298,4.6298,4.6298,4.6298,4.6298,4.6298,4.6298,4.6298,4.6298,0.0,0.0,0.0,0.0,0.0,0.0,0.0,2.5509,2.5706,2.5776,2.6034,2.6177,2.6108,2.6099,2.6099,2.6099,0.0,0.0,0.0,0.0,0.0,0.0,0.0,0.0,0.0,2.6091,2.5812,2.5444,2.5523,2.5596,2.5672,2.6097,2.6238,2.6116,2.6046,2.5832,0.0,0.0,0.0,0.0,0.0,0.0,2.5429,0.0,0.0,0.0,0.0,0.0,0.0,0.0,0.0,0.0,0.0,0.0,0.0,0.0,2.9824,3.0881,3.3155,3.3653,3.3762,3.48,3.4848,3.4689,3.486,3.4762,3.4653,3.4653,3.4726,3.4799,3.4799,3.4967,3.5388,3.6266,3.6567,3.7038,3.7999,3.8435,3.8844,3.9379,4.0634,4.1817,4.2718,4.2932,4.3002,4.3002,4.3002,4.3002,4.3002,4.3002,4.3002,4.3002,4.3002,4.3002,4.3002,4.3002,4.3277,4.3802,4.4016,4.4391,4.4955,4.5535,4.5799,4.5811,4.6148,4.6298,0.0,4.6298,4.6298,4.6298,4.6298,4.6298,4.6298,4.6298,4.6298,4.6298,0.0,0.0,0.0,0.0,0.0,0.0,0.0,0.0,2.5347,2.5518,2.5706,2.5749,2.5565,2.5535,2.5535,2.5535,0.0,0.0,0.0,0.0,0.0,0.0,0.0,0.0,0.0,2.5374,2.5096,2.4698,2.4385,2.434,2.4555,2.4862,2.5151,2.54,2.526,2.5073,0.0,0.0,0.0,0.0,0.0,0.0,0.0,0.0,0.0,0.0,0.0,0.0,0.0,0.0,0.0,0.0,0.0,0.0,0.0,0.0,0.0,0.0,0.0,3.3461,3.4969,3.4775,3.4531,3.436,3.4384,3.4396,0.0,3.4421,3.4628,3.4811,3.4847,3.5256,3.5797,3.6362,3.6867,3.7477,3.8296,3.8471,3.9018,4.0365,4.1231,4.193,4.2449,4.2806,4.3002,4.3002,4.3002,4.3002,4.3002,4.3002,4.3002,4.3002,4.3002,4.3002,4.3002,4.3052,4.3327,4.3865,4.4403,4.4968,4.5575,4.606,4.6298,4.6298,4.6298,4.6298,4.6298,4.6298,4.6298,4.6298,4.6298,4.6298,4.6298,4.6298,4.6298,4.6298,0.0,0.0,0.0,0.0,0.0,0.0,0.0,0.0,0.0,0.0,2.5031,2.504,2.4984,2.4995,2.4995,0.0,0.0,0.0,0.0,0.0,0.0,0.0,0.0,0.0,0.0,2.5176,2.4951,2.4698,2.4515,2.4329,2.4153,2.4738,2.4813,2.4531,2.4988,2.4892,0.0,0.0,0.0,0.0,0.0,0.0,0.0,0.0,0.0,0.0,2.623,2.6496,0.0,0.0,0.0,0.0,0.0,0.0,0.0,0.0,2.9285,3.0647,3.0891,0.0,3.3267,3.3822,3.3915,3.3965,0.0,3.4396,3.4457,3.4665,3.475,3.4931,3.534,3.552,3.5905,3.6855,3.712,3.7477,3.8296,3.9145,3.998,4.0729,4.156,4.2192,4.2476,4.2806,4.3002,4.3002,4.3002,4.3002,4.3002,4.3002,4.3002,4.3002,4.3002,4.3002,4.3002,4.3415,4.3878,4.4416,4.5008,4.5585,4.6125,4.6235,4.6298,4.6298,4.6298,4.6298,4.6298,4.6298,4.6298,4.6298,4.6298,4.6298,4.6298,4.6298,4.6298,4.6298,0.0,0.0,0.0,0.0,0.0,0.0,0.0,0.0,0.0,0.0,0.0,0.0,0.0,0.0,0.0,0.0,0.0,0.0,0.0,0.0,0.0,0.0,0.0,0.0,2.4662,2.4545,2.4415,2.424,2.4085,2.3968,2.3916,2.4282,2.4366,2.421,2.445,2.4304,0.0,0.0,0.0,0.0,2.4018,0.0,0.0,0.0,0.0,0.0,2.5965,2.6183,0.0,2.6508,2.676,2.7141,0.0,0.0,0.0,0.0,2.9182,3.0588,3.0878,3.199,3.3135,3.3448,3.3605,3.3779,3.4015,3.4249,3.4445,3.4592,3.4714,3.4967,3.5496,3.5909,3.6381,3.7086,3.7605,3.8093,3.8517,3.9556,4.044,4.0847,4.1745,4.2439,4.2711,4.289,4.3002,4.3002,4.3002,4.3002,4.3002,4.3002,4.3002,4.3002,4.3002,4.3002,4.3002,4.354,4.4064,4.4602,4.5208,4.5773,4.6298,4.6298,4.6298,4.6298,4.6298,4.6298,4.6298,4.6298,4.6298,4.6298,4.6298,4.6298,4.6298,4.6298,4.6461,4.6675,0.0,0.0,0.0,0.0,0.0,0.0,0.0,0.0,0.0,0.0,0.0,0.0,0.0,0.0,0.0,0.0,0.0,0.0,0.0,0.0,0.0,0.0,0.0,2.42,2.3861,2.3824,2.3746,2.3636,2.3472,2.3507,2.3688,2.3773,2.394,2.419,2.3926,2.3711,0.0,0.0,0.0,0.0,2.4098,0.0,0.0,0.0,0.0,0.0,0.0,0.0,0.0,2.6364,2.6639,2.6936,2.7177,0.0,0.0,0.0,0.0,0.0,3.1132,3.2455,3.3587,3.3419,3.353,3.3717,3.3779,3.4113,3.4409,3.4445,3.4712,3.51,3.5678,3.6372,3.698,3.7319,3.8182,3.8851,3.8978,3.9943,4.0717,4.0996,4.1932,4.2666,4.2904,4.2974,4.3002,4.3002,4.3002,4.3002,4.3002,4.3002,4.3002,4.3002,4.3002,4.3052,4.3113,4.3652,4.4204,4.4742,4.5334,4.5861,4.6298,4.6298,4.6298,4.6298,4.6298,4.6298,4.6298,4.6298,4.6298,4.6298,4.6298,4.6298,4.6298,4.6298,4.6637,4.7124,0.0,0.0,0.0,0.0,0.0,0.0,0.0,0.0,0.0,0.0,0.0,0.0,0.0,0.0,0.0,0.0,0.0,0.0,0.0,0.0,0.0,0.0,2.3751,2.3714,2.365,2.3473,2.3381,2.3354,2.3395,2.333,2.3214,2.3619,2.3948,2.419,2.3918,2.3786,2.3743,0.0,0.0,0.0,2.4354,0.0,0.0,0.0,0.0,0.0,0.0,0.0,0.0,2.6149,2.6496,2.6912,2.6948,0.0,0.0,0.0,0.0,0.0,3.0803,3.2192,3.3403,3.3588,3.3667,3.3792,3.42,3.4347,3.4457,3.4689,3.5135,3.5703,3.6484,3.689,3.7382,3.8097,3.8544,3.9053,3.9799,4.0646,4.1288,4.1559,4.2377,4.2834,4.261,4.2834,4.3002,4.3002,4.3002,4.3002,4.3002,4.3002,4.3002,4.3002,4.3002,4.3214,4.3664,4.4202,4.4767,4.5374,4.5924,4.621,4.6298,4.6298,4.6298,4.6298,4.6298,4.6298,4.6298,4.6298,4.6298,4.6298,4.6298,4.6298,4.6298,4.6298,4.6637,4.7237,0.0,0.0,0.0,0.0,0.0,0.0,0.0,0.0,0.0,0.0,0.0,0.0,0.0,0.0,0.0,0.0,0.0,0.0,0.0,0.0,0.0,2.3279,2.3168,2.3215,2.3427,2.3131,2.3042,2.3181,2.3222,2.3261,2.333,2.3802,2.3959,2.3829,2.3959,2.3786,2.3438,0.0,0.0,0.0,0.0,0.0,0.0,0.0,0.0,0.0,0.0,0.0,0.0,0.0,2.6388,2.6544,2.6986,0.0,0.0,0.0,0.0,0.0,3.108,3.2242,3.3237,3.391,3.4187,3.4384,3.475,3.4835,3.4872,3.4993,3.544,3.6022,3.6681,3.7291,3.8007,3.895,3.8932,3.9091,3.999,4.0535,4.1068,4.1629,4.2315,4.2736,4.2764,4.2904,4.3002,4.3002,4.3002,4.3002,4.3002,4.3002,4.3002,4.3002,4.3277,4.3689,4.4227,4.4792,4.5234,4.5512,4.605,4.6298,4.6298,4.6298,4.6298,4.6298,4.6298,4.6298,4.6298,4.6298,4.6298,4.6298,4.6298,4.6298,4.6361,4.6938,4.7315,4.7691,0.0,0.0,0.0,0.0,0.0,0.0,0.0,0.0,0.0,0.0,0.0,0.0,0.0,0.0,0.0,0.0,0.0,0.0,0.0,0.0,2.288,2.2927,2.274,2.2796,2.315,2.2805,2.2731,2.2939,2.3116,2.332,2.358,2.3937,2.3905,2.3579,2.3829,2.3749,2.3442,2.3866,2.4064,0.0,0.0,0.0,0.0,0.0,0.0,0.0,0.0,0.0,0.0,0.0,0.0,0.0,0.0,0.0,0.0,2.8315,2.9043,2.9848,3.1439,3.2366,3.3157,3.423,3.4592,3.4811,3.5199,3.5247,3.5247,3.5442,3.5917,3.6453,3.7002,3.7742,3.8528,3.9364,3.9265,3.9406,4.0268,4.0668,4.1171,4.1925,4.2362,4.2722,4.2974,4.3002,4.3002,4.3002,4.3002,4.3002,4.3002,4.3002,4.3002,4.3002,4.3528,4.4066,4.4589,4.5196,4.5562,4.5686,4.61,4.6298,4.6298,4.6298,4.6298,4.6298,4.6298,4.6298,4.6298,4.6298,4.6298,4.6298,4.6298,4.6298,4.6411,4.7352,4.7792,4.8058,0.0,0.0,0.0,0.0,0.0,0.0,0.0,0.0,0.0,0.0,0.0,0.0,0.0,0.0,0.0,0.0,0.0,0.0,0.0,0.0,2.2525,2.2712,2.2534,2.2525,2.274,2.2534,2.2426,2.245,2.3136,2.3577,2.3779,2.381,2.3808,2.3765,2.3353,2.3624,2.4375,2.3992,2.4282,0.0,0.0,0.0,0.0,0.0,0.0,0.0,0.0,0.0,0.0,0.0,0.0,0.0,0.0,0.0,2.7655,2.8254,2.893,2.987,3.1609,3.2477,3.3196,3.4462,3.4592,3.4628,3.5392,3.538,3.5417,3.6162,3.6739,3.7303,3.7906,3.8409,3.8765,3.8854,3.9522,4.0294,4.111,4.1715,4.2268,4.2834,4.2935,4.2974,4.3002,4.3002,4.3002,4.3002,4.3002,4.3002,4.3002,4.3002,4.3002,4.3002,4.3528,4.4066,4.4589,4.5196,4.5748,4.6235,4.6273,4.6298,4.6298,4.6298,4.6298,4.6298,4.6298,4.6298,4.6298,4.6298,4.6298,4.6298,4.6298,4.6298,4.6373,4.6948,4.7462,4.7996,0.0,0.0,0.0,0.0,0.0,0.0,0.0,0.0,0.0,0.0,0.0,0.0,0.0,0.0,0.0,0.0,0.0,0.0,0.0,0.0,2.2431,2.2506,2.2318,2.2252,2.2327,2.2252,2.2213,2.2219,2.2662,2.3132,2.3613,2.3613,2.3613,2.3622,2.3858,2.401,2.4098,2.4585,2.4906,2.5123,0.0,0.0,0.0,0.0,0.0,0.0,0.0,0.0,0.0,0.0,2.5781,2.5939,2.6436,2.6942,2.7514,2.8339,2.9256,3.0312,3.1725,3.2866,3.3791,3.4401,3.4848,3.5271,3.574,3.6023,3.6222,3.637,3.722,3.8073,3.846,3.8991,3.9309,3.9141,3.9809,4.0569,4.1213,4.182,4.24,4.2939,4.3002,4.3002,4.3002,4.3002,4.3002,4.3002,4.3002,4.3002,4.3002,4.3002,4.3002,4.3002,4.384,4.4391,4.4589,4.552,4.61,4.6298,4.6298,4.6298,4.6298,4.6298,4.6298,4.6298,4.6298,4.6298,4.6298,4.6298,4.6298,4.6298,4.6298,4.6298,4.6361,4.6898,4.744,4.7996,0.0,0.0,0.0,0.0,0.0,0.0,0.0,0.0,0.0,0.0,0.0,0.0,0.0,0.0,0.0,0.0,0.0,0.0,2.2402,2.228,2.2268,2.2396,2.2216,2.2134,2.2222,2.2232,2.2145,2.2006,2.24,2.2944,2.359,2.3536,2.3503,2.3513,2.3888,2.4076,2.4158,2.4807,2.5161,2.5303,2.5591,2.5618,0.0,0.0,0.0,0.0,0.0,0.0,0.0,0.0,2.5919,2.6171,2.6735,2.7311,2.794,2.8619,2.9798,3.11,3.2195,3.3268,3.4245,3.4872,3.5187,3.5549,3.6334,3.667,3.6873,3.7134,3.799,3.8747,3.891,3.9296,3.9579,3.9546,4.0228,4.0952,4.1504,4.2084,4.2587,4.2964,4.3002,4.3002,4.3002,4.3002,4.3002,4.3002,4.3323,4.3532,4.3532,4.3864,4.3878,4.3546,4.4584,4.4953,4.4589,4.5733,4.6298,4.6298,4.6474,4.6461,4.6298,4.6298,4.6386,4.6562,4.6658,4.6655,4.6562,4.667,4.6554,4.6298,4.6298,4.6298,4.6336,4.671,4.7189,4.7729,0.0,0.0,0.0,0.0,0.0,0.0,0.0,0.0,0.0,0.0,0.0,0.0,0.0,0.0,0.0,0.0,0.0,0.0,2.2384,2.2015,2.1975,2.238,2.2195,2.222,2.2492,2.2502,2.227,2.1809,2.247,2.3142,2.3786,2.359,2.3492,2.3482,2.3231,2.3744,2.479,2.4526,2.4908,2.5696,2.5696,2.5447,0.0,0.0,0.0,0.0,0.0,0.0,0.0,0.0,2.5912,2.6907,2.6919,2.7917,2.9105,2.9105,3.0526,3.2276,3.308,3.3703,3.4483,3.6007,3.5596,3.532,3.7169,3.7186,3.7207,3.8617,3.9116,3.9297,3.9297,3.9297,3.9483,4.0017,4.0791,4.1517,4.2123,4.2663,4.3002,4.3002,4.3002,4.3016,4.3016,4.3016,4.3016,4.303,4.407,4.471,4.471,4.5728,4.5807,4.4751,4.5752,4.5758,4.4631,4.5733,4.6311,4.6323,4.6848,4.6823,4.6311,4.6311,4.6612,4.7127,4.7468,4.7407,4.7142,4.7468,4.7079,4.6311,4.6311,4.6311,4.6311,4.6311,4.6662,4.7186,0.0,0.0,0.0,0.0,0.0,0.0,0.0,0.0,0.0,0.0,0.0,0.0,0.0,0.0,0.0,0.0,0.0,0.0,2.1988,2.1731,2.1707,2.1965,2.1913,2.1989,2.221,2.2402,2.2502,2.2501,2.2699,2.2971,2.3308,2.3579,2.3715,2.3723,2.4274,2.4697,2.502,2.5026,2.5133,2.5252,2.5068,2.504,0.0,0.0,0.0,0.0,0.0,0.0,0.0,0.0,0.0,0.0,2.7737,2.8489,2.9174,2.9542,3.0824,3.223,3.2851,3.4192,3.5411,3.5307,3.6167,3.7109,3.7282,3.7345,3.7755,3.9182,3.9378,3.9297,3.9297,3.9452,3.9692,4.0044,4.0791,4.1517,4.2123,4.2663,4.3002,4.3002,4.3712,4.4206,4.4206,4.4206,4.4507,4.5262,4.494,4.502,4.578,4.6136,4.615,4.5833,4.6127,4.6322,4.6352,4.6691,4.7048,4.7443,4.7591,4.739,4.6873,4.7252,4.7503,4.7666,4.7762,4.7747,4.7666,4.7762,4.7659,4.7443,4.7443,4.7443,4.7443,4.7443,4.7795,4.8325,0.0,0.0,0.0,0.0,0.0,0.0,0.0,0.0,0.0,0.0,0.0,0.0,0.0,0.0,0.0,0.0,0.0,0.0,0.0,2.157,2.1593,2.1796,2.1899,2.213,2.249,2.2666,2.2807,2.2915,2.2843,2.3049,2.3498,2.3696,2.3898,2.4062,2.4592,2.4816,2.4834,2.5106,2.5109,2.4955,2.5068,2.5029,2.4962,0.0,0.0,0.0,0.0,0.0,0.0,0.0,0.0,0.0,2.8326,2.9059,2.984,3.056,3.1703,3.2934,3.3884,3.5049,3.6001,3.6026,3.6867,3.7738,3.7979,3.8241,3.8742,3.9803,3.9723,3.9465,3.9465,3.9769,4.0134,4.0526,4.1183,4.202,4.3042,4.3079,4.3337,4.4208,4.4534,4.4872,4.5289,4.5342,4.5595,4.6254,4.6124,4.6294,4.6945,4.751,4.7724,4.7548,4.7974,4.8027,4.7672,4.8527,4.8601,4.7908,4.8793,4.8773,4.7981,4.7917,4.8033,4.8259,4.8259,4.8325,4.8422,4.8055,4.7908,4.7908,4.7908,4.7908,4.7908,4.7908,4.8134,4.8476,0.0,0.0,0.0,0.0,0.0,0.0,0.0,0.0,0.0,0.0,0.0,0.0,0.0,0.0,0.0,0.0,0.0,0.0,0.0,0.0,2.1561,2.1819,2.2129,2.2546,2.3092,2.3091,2.3091,2.3091,2.2955,2.33,2.4071,2.3969,2.4092,2.4401,2.4479,2.45,2.449,2.493,2.4975,2.4782,2.5373,2.5269,2.4803,2.5443,0.0,0.0,0.0,0.0,0.0,0.0,0.0,0.0,2.884,2.9669,3.0806,3.1798,3.286,3.4016,3.5479,3.5988,3.6369,3.7507,3.7572,3.7709,3.9156,3.9639,3.989,4.0364,4.007,3.9736,3.9736,4.0163,4.0702,4.1227,4.1821,4.2813,4.4469,4.3808,4.3933,4.6058,4.5529,4.5382,4.6359,4.645,4.6503,4.6607,4.7498,4.8072,4.8148,4.9443,4.9968,4.9524,5.0535,5.0379,4.8915,5.0849,5.0701,4.85,5.0406,5.0711,4.9566,4.8594,4.8457,4.8948,4.8948,4.9134,4.9349,4.8504,4.8152,4.8136,4.8105,4.809,4.809,4.8074,4.8043,4.8134,0.0,0.0,0.0,0.0,0.0,0.0,0.0,0.0,0.0,0.0,0.0,0.0,0.0,0.0,0.0,0.0,0.0,0.0,0.0,0.0,2.1348,2.2076,2.2664,2.3022,2.3102,2.3091,2.3091,2.3091,2.3433,2.368,2.3877,2.4519,2.467,2.4432,2.5123,2.5242,2.4951,2.5172,2.5162,2.5017,2.4945,2.4952,2.5052,2.5411,2.5779,0.0,0.0,0.0,0.0,0.0,0.0,0.0,2.9886,3.0374,3.0795,3.1799,3.2862,3.3901,3.4811,3.5942,3.6887,3.6932,3.7722,3.8878,4.0506,4.0579,4.03,4.0211,4.0096,4.0006,4.0006,4.0462,4.0914,4.1254,4.1983,4.303,4.4496,4.4493,4.4819,4.6136,4.6893,4.7384,4.7614,4.7639,4.8007,4.89,4.856,4.861,4.9299,5.0258,5.0696,5.0429,5.0711,5.1241,5.2017,5.2033,5.2362,5.2989,5.2471,5.2077,5.1769,5.0582,5.0088,5.0216,5.0216,5.0247,5.0298,5.0091,5.0024,4.9993,4.972,4.9621,4.959,4.9322,4.9226,4.9251,0.0,0.0,0.0,0.0,0.0,0.0,0.0,0.0,0.0,0.0,0.0,0.0,0.0,0.0,0.0,0.0,0.0,0.0,0.0,0.0,2.1487,2.2171,2.2711,2.3037,2.3102,2.3091,2.3091,2.3091,2.3563,2.3908,2.4102,2.4541,2.4863,2.5033,2.5491,2.5476,2.5121,2.538,2.5262,2.492,2.5109,2.5196,2.5234,2.5486,2.6178,2.7028,2.7205,0.0,0.0,0.0,0.0,0.0,0.0,0.0,3.1362,3.2522,3.3258,3.4023,3.5499,3.6331,3.6979,3.787,3.864,3.9523,4.0812,4.0997,4.0808,4.0542,4.0377,4.0326,4.0464,4.092,4.1425,4.1846,4.2878,4.4046,4.5289,4.5462,4.6071,4.774,4.7969,4.8198,4.8765,4.8927,4.925,4.9854,4.9593,4.9675,5.0291,5.0871,5.1439,5.1971,5.2317,5.2766,5.3371,5.4144,5.4317,5.3915,5.423,5.4114,5.3575,5.1526,5.0601,5.0601,5.0601,5.0506,5.0359,5.0359,5.0264,5.0091,4.9928,4.986,4.9844,4.9654,4.959,4.959,0.0,0.0,0.0,0.0,0.0,0.0,0.0,0.0,0.0,0.0,0.0,0.0,0.0,0.0,0.0,0.0,0.0,0.0,0.0,0.0,0.0,2.2223,2.2688,2.2987,2.3102,2.3091,2.3091,2.3091,2.3485,0.0,0.0,0.0,2.491,2.5601,2.5667,2.5476,2.5133,2.5535,2.537,2.4933,2.5535,2.5638,2.5467,0.0,0.0,2.7857,2.729,2.8105,2.9405,2.9278,0.0,0.0,0.0,0.0,3.2026,3.3362,3.3823,3.4317,3.6301,3.6763,3.7151,3.9111,3.9665,3.9944,4.0775,4.1135,4.1223,4.0959,4.0822,4.076,4.0949,4.1533,4.2197,4.2777,4.4021,4.5329,4.6489,4.6658,4.7433,4.952,4.8939,4.8738,4.9744,5.0038,5.0159,5.0159,5.0469,5.0775,5.1072,5.1501,5.2255,5.3358,5.3996,5.4249,5.4128,5.6001,5.6014,5.4228,5.578,5.5992,5.4914,5.2522,5.1429,5.1398,5.0905,5.0649,5.0569,5.0295,5.0024,4.9767,4.9703,4.9699,4.9683,4.9622,4.959,4.959,0.0,0.0,0.0,0.0,0.0,0.0,0.0,0.0,0.0,0.0,0.0,0.0,0.0,0.0,0.0,0.0,0.0,0.0,2.1454,0.0,0.0,2.2465,2.3079,2.3304,2.3102,2.3091,2.3091,2.3091,0.0,0.0,0.0,0.0,0.0,2.52,0.0,2.5476,2.5133,2.5535,2.5654,2.5594,2.5911,2.6028,2.6028,0.0,0.0,0.0,2.7809,2.8409,2.922,2.9657,2.9966,0.0,0.0,0.0,3.2304,3.3574,3.4289,3.4825,3.5592,3.6769,3.8076,3.9298,3.9953,4.0463,4.1092,4.1273,4.1223,4.0959,4.1284,4.1557,4.1285,4.2354,4.3409,4.3913,4.497,4.6307,4.7889,4.8118,4.861,4.989,4.9902,4.9977,5.0354,5.0441,5.0453,5.0453,5.0963,5.1329,5.1434,5.2508,5.3211,5.339,5.3994,5.4665,5.5446,5.5756,5.6435,5.7479,5.7205,5.648,5.5324,5.4929,5.4752,5.4619,5.213,5.163,5.2489,5.1113,5.0506,5.0442,5.0148,5.0036,5.0004,4.9703,4.959,4.959,0.0,0.0,0.0,0.0,0.0,0.0,0.0,0.0,0.0,0.0,0.0,0.0,0.0,0.0,0.0,2.2198,2.2108,2.2059,2.2059,2.2348,2.2547,2.2659,2.3307,2.3606,2.3495,2.3495,2.3495,2.3495,0.0,0.0,0.0,2.4502,2.4971,0.0,0.0,0.0,0.0,2.5618,2.5706,2.5708,2.5832,2.637,0.0,0.0,0.0,0.0,0.0,0.0,0.0,3.0608,3.0972,3.1391,3.2147,0.0,0.0,0.0,3.427,3.4787,3.5785,3.6998,3.8261,3.9335,4.0005,4.0567,4.1168,4.1298,4.1261,4.1147,4.1838,4.2372,4.2073,4.2796,4.3818,4.497,4.5974,4.71,4.8446,4.917,4.9752,5.0255,5.0318,5.0366,5.0489,5.0602,5.0822,5.1207,5.1606,5.2117,5.2751,5.3331,5.3792,5.4177,5.4431,5.4841,5.5407,5.5792,5.6629,5.7888,5.8144,5.7902,5.7232,5.6679,5.6036,5.5295,5.33,5.2656,5.2887,5.1458,5.0661,5.0311,5.0359,5.0152,4.9828,4.9876,4.9764,4.959,0.0,0.0,0.0,0.0,0.0,0.0,0.0,0.0,0.0,0.0,0.0,0.0,0.0,0.0,0.0,0.0,2.2502,2.2522,2.257,2.2587,2.2676,2.2869,2.3466,2.374,2.3623,2.3742,2.374,0.0,0.0,0.0,2.3955,2.4256,2.4869,0.0,2.5391,0.0,0.0,0.0,0.0,0.0,0.0,0.0,0.0,0.0,0.0,0.0,0.0,0.0,0.0,0.0,0.0,3.2312,3.2901,3.341,0.0,0.0,0.0,3.4762,3.5978,3.6986,3.7986,3.9203,3.992,4.0505,4.1155,4.1298,4.1298,4.1298,4.2213,4.2945,4.2749,4.3267,4.4306,4.6056,4.6932,4.7841,4.9131,5.0042,5.0581,5.0581,5.0581,5.0605,5.0665,5.0962,5.1351,5.186,5.2347,5.2983,5.3858,5.3991,5.4306,5.4875,5.489,5.4991,5.5207,5.5863,5.6644,5.7568,5.8438,5.8828,5.8774,5.8027,5.716,5.6136,5.4545,5.3709,5.3391,5.2021,5.0968,5.0248,5.0506,5.0283,4.9863,5.0036,4.994,4.9703,0.0,0.0,0.0,0.0,0.0,0.0,0.0,0.0,0.0,0.0,0.0,0.0,0.0,2.2503,2.2513,2.2502,2.2502,2.258,2.2769,2.2787,2.2867,2.3075,2.3545,0.0,2.3151,2.3563,2.3573,0.0,0.0,0.0,2.4373,2.4393,2.4869,2.5706,2.5676,2.5676,2.5706,0.0,0.0,0.0,0.0,0.0,0.0,0.0,0.0,0.0,0.0,0.0,0.0,0.0,0.0,0.0,0.0,3.3815,3.409,0.0,0.0,0.0,3.5787,3.6423,3.7239,3.8828,3.9664,4.032,4.1118,4.1298,4.1298,4.1298,4.2213,4.2997,4.2984,4.3898,4.5262,4.7201,4.775,4.8607,5.0448,5.0748,5.0784,5.0784,5.0784,5.0881,5.1132,5.1747,5.2133,5.219,5.3136,5.3841,5.4169,5.4541,5.4885,5.5169,5.5181,5.5194,5.5207,5.5863,5.6509,5.7141,5.7816,5.8474,5.9087,5.9031,5.8828,5.839,5.5892,5.4814,5.4681,5.3077,5.17,5.0585,5.0601,5.0585,5.0522,5.0212,5.0084,5.002,0.0,0.0,0.0,0.0,0.0,0.0,0.0,0.0,0.0,0.0,0.0,0.0,0.0,2.3333,2.3516,2.3347,2.3336,2.3354,2.3449,2.3438,2.353,2.3735,2.4191,2.428,2.3942,2.41,0.0,0.0,0.0,2.4004,2.4412,2.4709,2.5012,2.5303,2.5303,2.5457,2.5715,2.6023,0.0,0.0,0.0,0.0,0.0,0.0,0.0,0.0,0.0,0.0,0.0,0.0,0.0,0.0,0.0,0.0,0.0,3.4739,3.492,3.5187,3.5823,3.652,3.736,3.8622,3.9529,4.0271,4.0905,4.1186,4.1403,4.1807,4.2474,4.3127,4.3506,4.4785,4.6242,4.7637,4.8519,4.9499,5.087,5.1058,5.1058,5.1058,5.1058,5.1097,5.1191,5.1801,5.2381,5.2812,5.3597,5.4286,5.482,5.4971,5.5105,5.5207,5.5207,5.5207,5.5207,5.5863,5.6312,5.6551,5.759,5.8233,5.8474,5.873,5.8883,5.8882,5.7582,5.658,5.5688,5.348,5.2132,5.1448,5.0829,5.0331,4.9976,5.0068,4.9956,4.9764,0.0,0.0,0.0,0.0,0.0,0.0,0.0,0.0,0.0,0.0,0.0,0.0,0.0,0.0,2.4019,2.3911,2.3898,2.3936,2.4008,2.3997,2.406,2.4189,2.4506,2.4516,2.4209,2.4197,0.0,0.0,0.0,0.0,0.0,2.5088,2.5353,2.5438,2.5438,2.5581,0.0,0.0,0.0,2.7005,0.0,0.0,3.1891,0.0,0.0,0.0,0.0,0.0,0.0,0.0,0.0,0.0,0.0,0.0,0.0,0.0,0.0,3.5295,3.574,3.6323,3.711,3.8352,3.9106,3.9766,4.069,4.1034,4.1302,4.1808,4.2487,4.3232,4.3991,4.5676,4.7177,4.7877,4.8894,4.9965,5.105,5.1191,5.1191,5.1191,5.1191,5.1191,5.1191,5.2007,5.2722,5.3169,5.4027,5.473,5.5177,5.5207,5.5207,5.5207,5.5207,5.5207,5.5207,5.5641,5.5983,5.6207,5.7049,5.7694,5.8115,5.8389,5.8675,5.8936,5.8541,5.7668,5.6366,5.4126,5.2809,5.2086,5.1018,5.0331,4.996,5.0068,4.9956,4.9747,0.0,0.0,0.0,0.0,0.0,0.0,0.0,0.0,0.0,0.0,0.0,0.0,0.0,0.0,0.0,2.4129,2.4158,2.4246,2.4431,2.4427,2.4437,2.4445,2.4435,2.424,2.3841,2.3841,2.3841,0.0,0.0,0.0,0.0,0.0,2.5856,2.61,2.6122,2.6157,2.6201,0.0,2.7158,2.7911,0.0,3.2116,3.2433,0.0,0.0,0.0,3.5643,3.5619,0.0,3.593,0.0,0.0,0.0,0.0,0.0,0.0,0.0,0.0,0.0,0.0,0.0,3.7996,3.8422,3.8862,4.0511,4.0921,4.0997,4.1274,4.2213,4.3321,4.4382,4.645,4.8005,4.8005,4.8919,5.0001,5.105,5.1191,5.1191,5.1191,5.1191,5.1191,5.1191,5.2411,5.3198,5.3198,5.4443,5.5207,5.5207,5.5207,5.5207,5.5207,5.5207,5.5207,5.5207,5.5207,5.5521,5.6177,5.6192,5.6853,5.804,5.807,5.8311,5.8676,5.8652,5.7931,5.6651,5.5049,5.3664,5.2434,5.1094,5.0569,5.0537,5.0212,5.0084,5.0036,0.0,0.0,0.0,0.0,0.0,0.0,0.0,0.0,0.0,0.0,0.0,0.0,0.0,0.0,2.497,2.5377,2.5396,2.5425,2.548,2.5171,2.5202,2.5679,2.5191,2.479,2.4532,2.4676,2.4665,2.4511,2.4967,2.5413,2.5838,2.6135,0.0,0.0,2.6658,2.7213,2.7781,2.8006,0.0,2.9107,3.2355,3.3667,0.0,0.0,0.0,0.0,0.0,3.6191,3.5941,0.0,3.5775,3.486,0.0,0.0,0.0,0.0,0.0,0.0,3.5824,0.0,0.0,0.0,0.0,0.0,4.0652,4.1047,4.1341,4.1847,4.2513,4.3219,4.3966,4.6231,4.8005,4.8005,4.9547,5.0858,5.1155,5.1191,5.1191,5.1191,5.1191,5.1191,5.1191,5.2411,5.3198,5.3198,5.4443,5.5207,5.5207,5.5207,5.5207,5.5207,5.5207,5.5207,5.5207,5.5207,5.5296,5.5476,5.5968,5.6374,5.675,5.7482,5.7977,5.8225,5.7394,5.6808,5.6308,5.4696,5.3153,5.1671,5.0369,4.9879,4.9863,4.9767,4.9747,4.9731,0.0,0.0,0.0,0.0,0.0,0.0,0.0,0.0,0.0,0.0,0.0,0.0,0.0,0.0,2.5054,2.5408,2.5624,2.5775,2.5857,2.5793,2.5928,2.6307,2.5646,2.5209,2.5091,2.4906,2.4847,2.493,2.5198,2.5541,2.5941,2.6086,2.6307,0.0,0.0,0.0,0.0,0.0,0.0,0.0,3.3306,0.0,0.0,3.6059,3.6792,0.0,0.0,0.0,3.6392,3.6992,3.6321,0.0,0.0,0.0,0.0,0.0,0.0,0.0,0.0,0.0,0.0,0.0,0.0,0.0,4.0527,4.0858,4.1139,4.1704,4.2265,4.2982,4.3989,4.6059,4.7846,4.8539,5.0098,5.1191,5.1191,5.1191,5.1191,5.1191,5.1191,5.1191,5.1191,5.2411,5.3198,5.3198,5.4443,5.5207,5.5207,5.5207,5.5207,5.5207,5.5207,5.5207,5.5207,5.5207,5.5207,5.5207,5.5596,5.5938,5.6237,5.7058,5.7416,5.7319,5.69,5.6035,5.4842,5.3772,5.2604,5.1364,5.0098,4.959,4.959,4.959,4.959,4.959,0.0,0.0,0.0,0.0,0.0,0.0,0.0,0.0,0.0,0.0,2.5169,0.0,0.0,0.0,0.0,0.0,2.5463,2.5779,2.5943,2.6308,2.653,2.6592,2.5908,2.5527,2.5527,2.4876,2.4738,2.5139,2.5188,2.5402,2.5791,2.5866,2.6386,0.0,0.0,0.0,0.0,0.0,0.0,3.1902,3.3867,3.4459,0.0,0.0,3.6344,3.5941,3.6604,3.6792,3.685,3.7505,3.7169,0.0,0.0,0.0,0.0,0.0,3.5587,0.0,0.0,0.0,0.0,0.0,3.8592,0.0,4.0274,4.0504,4.0643,4.111,4.1692,4.256,4.3989,4.5616,4.7248,4.8792,5.0083,5.0945,5.1164,5.1191,5.1191,5.1191,5.1191,5.1191,5.1191,5.2351,5.3094,5.3094,5.4339,5.5119,5.5207,5.5207,5.5207,5.5207,5.5207,5.5207,5.5207,5.5207,5.5207,5.5207,5.5207,5.5506,5.6117,5.6718,5.6712,5.6215,5.6699,5.5416,5.2964,5.2491,5.1922,5.1221,5.0062,4.959,4.959,4.959,4.959,4.959,0.0,0.0,0.0,0.0,0.0,0.0,0.0,0.0,0.0,0.0,0.0,0.0,0.0,0.0,0.0,0.0,2.6894,2.6975,2.6998,2.6741,2.6751,2.7122,2.6241,2.5738,2.5738,2.5557,2.5447,2.5421,2.5755,2.6057,2.6362,2.6956,2.7329,0.0,0.0,0.0,0.0,0.0,0.0,3.3852,3.4277,0.0,3.5391,3.6344,3.7015,3.7472,3.7611,3.7388,3.6992,3.677,3.6817,3.6893,0.0,0.0,0.0,0.0,0.0,0.0,0.0,0.0,0.0,0.0,0.0,0.0,4.0402,4.0504,4.0529,4.0631,4.1145,4.1647,4.197,4.3352,4.4682,4.5447,4.7425,4.9411,5.0972,5.1191,5.1191,5.1191,5.1191,5.1191,5.1191,5.192,5.2396,5.2396,5.3638,5.4625,5.5177,5.5207,5.5207,5.5207,5.5207,5.5207,5.5207,5.5207,5.5207,5.5207,5.5207,5.5266,5.5416,5.6087,5.6061,5.5466,5.5111,5.4222,5.2887,5.1539,5.0731,5.0315,4.9799,4.959,4.959,4.959,4.959,4.959,0.0,0.0,0.0,0.0,0.0,0.0,0.0,0.0,0.0,0.0,0.0,0.0,0.0,0.0,0.0,0.0,0.0,0.0,0.0,0.0,2.7049,2.7299,2.6689,2.6352,2.6352,2.6182,2.6071,2.5998,2.6206,2.6486,2.6863,2.7221,2.8054,2.9248,0.0,0.0,0.0,0.0,3.2623,3.3685,3.4617,0.0,3.6226,3.7003,3.7708,3.8293,3.8293,3.8325,3.8311,3.8074,3.7799,0.0,0.0,3.7417,3.722,0.0,3.7654,3.8039,0.0,0.0,0.0,3.907,0.0,0.0,0.0,4.03,4.0338,4.0466,4.0734,4.1042,4.1337,4.2497,4.3651,4.4477,4.6222,4.7899,4.9006,5.0339,5.1191,5.1191,5.1191,5.1191,5.1191,5.1801,5.2336,5.2677,5.3638,5.4344,5.4685,5.5027,5.5207,5.5207,5.5207,5.5207,5.5207,5.5207,5.5207,5.5207,5.5207,5.5207,5.5222,5.588,5.5693,5.4815,5.5203,5.4725,5.3586,5.2143,5.1448,5.1181,5.003,4.959,4.959,4.959,4.959,4.959,0.0,0.0,0.0,0.0,0.0,0.0,0.0,0.0,0.0,2.5794,0.0,0.0,0.0,0.0,0.0,0.0,0.0,0.0,0.0,0.0,0.0,2.743,2.7093,2.6936,2.7032,2.6687,2.6496,2.6496,2.6587,2.6867,2.7281,2.7453,2.868,3.0734,0.0,0.0,0.0,0.0,0.0,3.3498,0.0,3.6127,3.665,3.7521,3.8207,3.8727,3.8833,3.9182,3.9588,3.9492,3.8873,3.8212,3.8535,3.819,0.0,0.0,0.0,0.0,0.0,0.0,0.0,0.0,0.0,3.9762,0.0,0.0,0.0,4.03,4.0351,4.0492,4.0977,4.1773,4.265,4.3525,4.4924,4.5981,4.6191,4.8545,5.0295,5.0404,5.0697,5.0872,5.0797,5.1298,5.1983,5.2935,5.3261,5.364,5.4179,5.4715,5.5072,5.5207,5.5207,5.5207,5.5207,5.5207,5.5207,5.5207,5.5207,5.5207,5.5222,5.576,5.5382,5.4351,5.5434,5.5291,5.4197,5.2864,5.2356,5.2216,5.0337,4.959,4.959,4.959,4.959,4.959,2.4487,2.4497,0.0,0.0,2.4497,0.0,0.0,0.0,2.5304,2.5824,0.0,0.0,0.0,0.0,0.0,0.0,0.0,0.0,2.7866,0.0,0.0,0.0,2.7262,2.7093,2.7501,2.6856,2.6496,2.6496,2.6923,2.727,2.7566,2.835,2.924,3.0234,3.1276,0.0,0.0,0.0,3.4385,0.0,3.6294,3.6431,0.0,3.7245,3.811,3.8857,3.9328,3.9535,3.9528,0.0,3.8814,3.8646,0.0,3.8655,3.9157,3.8275,0.0,0.0,0.0,0.0,0.0,0.0,3.9647,0.0,3.9736,0.0,3.9749,3.9787,0.0,3.9813,3.9876,0.0,0.0,4.0242,4.1836,4.305,4.3036,4.5236,4.7032,4.7506,4.8871,4.9673,4.9374,4.9398,5.0245,5.2181,5.1227,5.163,5.4067,5.4269,5.4596,5.5177,5.5207,5.5207,5.5207,5.5207,5.5207,5.5207,5.5207,5.5207,5.5207,5.5281,5.4927,5.4308,5.4466,5.431,5.3835,5.2253,5.1783,5.1889,5.0241,4.959,4.959,4.959,4.959,4.959,2.4549,2.4497,0.0,0.0,2.4911,2.5055,0.0,0.0,2.6083,2.6281,0.0,0.0,0.0,0.0,0.0,0.0,0.0,2.8616,0.0,0.0,0.0,0.0,0.0,0.0,0.0,2.7877,2.7717,2.7717,2.7924,2.8211,2.8593,2.9282,3.0413,3.1933,3.2623,0.0,3.4531,0.0,3.5563,3.5954,3.7258,3.753,0.0,3.8348,3.9163,3.9805,4.0389,4.0593,4.0543,0.0,3.9949,0.0,0.0,0.0,0.0,0.0,0.0,0.0,0.0,0.0,0.0,0.0,0.0,0.0,3.9736,0.0,3.9697,0.0,0.0,0.0,0.0,0.0,0.0,0.0,4.0977,4.1657,4.1796,4.3037,4.4607,4.6421,4.7532,4.841,4.9042,4.9849,5.0676,5.1553,5.1423,5.1818,5.2982,5.3775,5.4341,5.461,5.4999,5.5207,5.5207,5.5207,5.5207,5.5207,5.5207,5.5207,5.5207,5.5207,5.5062,5.4837,5.5233,5.5447,5.5367,5.3409,5.2795,5.2864,5.0515,4.959,4.959,4.959,4.959,4.959,0.0,0.0,0.0,0.0,0.0,0.0,0.0,0.0,0.0,0.0,0.0,0.0,2.7677,2.8314,0.0,0.0,0.0,2.9483,0.0,0.0,2.9247,0.0,0.0,0.0,0.0,0.0,2.8707,2.8707,2.8907,2.9186,2.9533,3.0196,3.1435,3.3101,3.3449,3.4361,3.5704,0.0,3.648,3.6579,3.8179,3.8868,3.8969,3.9613,4.0183,4.0698,4.1129,4.1298,4.1273,4.1123,4.0694,4.0287,4.0719,4.0428,3.998,0.0,0.0,0.0,3.9903,0.0,0.0,0.0,0.0,0.0,0.0,0.0,0.0,0.0,3.9697,0.0,0.0,0.0,3.9788,4.002,0.0,4.0592,4.064,4.1273,4.2526,4.4673,4.5608,4.6612,4.798,4.917,5.0014,5.0384,5.0998,5.1596,5.2175,5.3129,5.382,5.4194,5.467,5.4861,5.4718,5.504,5.504,5.4718,5.504,5.5207,5.5207,5.5207,5.5207,5.5237,5.57,5.5894,5.5681,5.388,5.3086,5.2788,5.0498,4.959,4.959,4.959,4.959,4.959,2.6627,2.6214,0.0,0.0,0.0,0.0,0.0,0.0,0.0,0.0,0.0,0.0,0.0,0.0,0.0,0.0,0.0,3.1481,3.0954,0.0,3.0736,0.0,0.0,2.9848,0.0,0.0,0.0,2.8995,2.97,3.0061,3.0106,3.1088,3.2004,3.285,3.3362,3.4054,3.492,3.6234,3.7076,3.7671,3.9086,4.0279,4.1147,4.0668,4.0807,4.1272,4.1298,4.1298,4.1211,4.0707,4.0504,4.0402,3.9916,4.0083,4.0428,0.0,0.0,0.0,0.0,4.0083,0.0,3.9762,0.0,0.0,0.0,0.0,3.9697,0.0,0.0,3.9697,3.9697,3.9697,3.9547,0.0,3.9384,0.0,0.0,3.9893,4.0771,4.1386,4.2684,4.4067,4.5481,4.613,4.7007,4.8295,4.8896,5.0079,5.2091,5.2232,5.286,5.4164,5.4224,5.3976,5.3466,5.4613,5.4601,5.3466,5.4639,5.5207,5.5207,5.5207,5.5207,5.5207,5.5222,5.4609,5.3551,5.2769,5.1781,5.0711,4.9907,4.959,4.959,4.959,4.959,4.959,0.0,0.0,0.0,0.0,0.0,0.0,0.0,2.8038,0.0,0.0,0.0,0.0,0.0,3.0435,3.0919,0.0,0.0,3.1664,3.1469,3.0965,0.0,0.0,0.0,3.0123,0.0,0.0,0.0,0.0,0.0,3.0743,3.1111,3.1798,3.246,3.3101,3.4004,3.5138,3.6465,3.7621,3.8442,3.8997,3.9877,4.0451,4.0783,4.0959,4.1135,4.1298,4.1298,4.1298,4.1273,4.1085,4.0909,4.0757,4.0757,4.0643,4.0517,4.0592,4.0631,4.0605,4.0402,4.0491,4.0516,4.0083,4.0096,4.0134,3.9787,0.0,0.0,0.0,0.0,0.0,0.0,0.0,0.0,0.0,0.0,0.0,0.0,3.9436,3.936,3.9129,4.1658,4.3594,4.4056,4.5599,4.6748,4.7206,4.8604,4.9429,4.9416,5.0509,5.1344,5.1799,5.2673,5.3396,5.3911,5.398,5.4199,5.4575,5.3428,5.3283,5.3977,5.3231,5.3297,5.3964,5.3218,5.3124,5.3372,5.1843,5.1008,5.0637,4.9879,4.959,4.959,4.959,4.959,4.959,2.7829,0.0,0.0,0.0,0.0,0.0,0.0,0.0,0.0,0.0,2.9973,0.0,3.0499,0.0,3.1879,0.0,3.2644,3.2938,3.2544,3.2349,0.0,3.2864,3.2018,0.0,0.0,0.0,0.0,0.0,0.0,3.1584,3.2041,3.2608,3.3136,3.3659,3.4451,3.5697,3.7273,3.8273,3.9151,3.9932,4.0538,4.0783,4.0821,4.1161,4.1173,4.1035,4.1223,4.1298,4.1298,4.1298,4.1186,4.1072,4.1248,4.106,4.0821,4.0997,4.0922,4.0757,4.0669,4.077,4.0846,4.0619,4.0696,4.0696,4.0232,4.0129,4.0129,0.0,0.0,0.0,0.0,0.0,0.0,0.0,0.0,0.0,0.0,3.912,3.868,3.8078,4.0251,4.191,4.2196,4.4066,4.5491,4.6082,4.764,4.8389,4.8016,4.9432,5.0188,5.0042,5.1837,5.2688,5.2396,5.3487,5.3795,5.3308,5.3058,5.2899,5.2778,5.2458,5.2485,5.2752,5.1891,5.168,5.1808,5.0619,4.9969,4.9675,4.9413,4.9443,4.959,4.959,4.959,4.959,0.0,0.0,0.0,0.0,2.8694,0.0,0.0,0.0,3.054,0.0,3.088,3.1401,3.12,3.2698,3.3741,3.3779,3.4944,3.5247,3.4224,3.4555,0.0,0.0,3.4665,3.4921,3.6189,0.0,0.0,0.0,0.0,0.0,3.2887,3.3457,3.3977,3.4443,3.4705,3.5741,3.7337,3.8166,3.9258,4.0489,4.1076,4.1273,4.1261,4.1286,4.0972,4.0567,4.111,4.1298,4.1298,4.1298,4.1298,4.1298,4.1298,4.1298,4.1298,4.1298,4.1324,4.1287,4.1036,4.0986,4.1078,4.1376,4.1453,4.1375,4.1037,4.0959,4.0959,4.0959,0.0,0.0,0.0,0.0,0.0,0.0,0.0,0.0,3.8931,3.8856,3.8617,3.8002,3.8504,3.9222,3.9969,4.1565,4.3217,4.4827,4.6008,4.6991,4.7798,4.8828,4.9241,4.8878,5.1499,5.171,4.9158,5.3027,5.3307,5.0028,5.3415,5.3836,5.1648,5.2738,5.2645,5.1593,5.1209,5.0267,4.9004,4.9169,4.8715,4.797,4.8564,4.9129,4.959,4.959,4.959,4.959,2.925,2.9599,2.9802,0.0,2.9791,2.9914,0.0,0.0,0.0,0.0,3.3164,3.4181,3.4914,3.523,3.564,3.6279,3.6665,0.0,0.0,0.0,0.0,3.6088,3.518,3.4816,3.5102,3.3858,0.0,3.3784,0.0,0.0,3.3768,3.3915,3.435,3.5003,3.5071,3.6351,3.8479,3.8705,3.9688,4.1089,4.1246,4.106,4.0745,4.1148,4.0972,4.0567,4.111,4.1298,4.1298,4.1298,4.1298,4.1298,4.1298,4.1298,4.1298,4.1298,4.1625,4.1951,4.1875,4.2162,4.2424,4.2319,4.228,4.2227,4.1925,4.1872,4.1872,4.1872,4.1705,4.1499,4.1267,4.0882,0.0,0.0,0.0,0.0,0.0,0.0,3.7876,3.6921,3.8212,3.9196,3.9209,4.0722,4.2061,4.2892,4.472,4.5723,4.5555,4.6185,4.6715,4.7062,4.8254,4.9127,4.9622,5.1156,5.1695,5.1237,5.2162,5.181,5.0364,5.0671,5.0643,5.0308,4.9375,4.8975,4.8974,4.8571,4.8204,4.797,4.8564,4.9129,4.959,4.959,4.959,4.959,2.9751,0.0,0.0,3.0552,0.0,0.0,3.1264,3.1927,0.0,3.3132,3.4262,0.0,3.5157,3.6301,3.7119,3.7232,3.7903,0.0,3.7643,0.0,0.0,3.7121,3.6961,3.6762,3.6456,3.5576,0.0,3.4872,0.0,0.0,3.4236,3.446,3.4857,3.5392,3.5871,3.6972,3.8552,3.9285,4.0121,4.0972,4.1211,4.111,0.0,4.1186,4.111,4.0884,4.1186,4.1298,4.1298,4.1298,4.1298,4.1298,4.1298,4.1298,4.1351,4.1625,4.1925,4.2238,4.2487,4.2775,4.3023,4.3139,4.3165,4.3099,4.2834,4.2767,4.2767,4.2767,4.2468,4.2273,4.252,4.1653,4.0639,0.0,0.0,0.0,0.0,0.0,0.0,3.6846,3.7519,3.8161,3.8479,4.0465,4.1876,4.2183,4.335,4.398,4.3791,4.4768,4.5331,4.5314,4.7124,4.8167,4.8368,4.9971,5.0597,5.0182,5.121,5.0809,4.9174,4.9674,4.9632,4.9103,4.8175,4.7928,4.8178,4.7564,4.7415,4.7629,4.8476,4.9129,4.959,4.959,4.959,4.959,3.0383,0.0,0.0,0.0,0.0,0.0,0.0,3.2993,0.0,3.3988,0.0,3.5434,3.4444,3.6909,3.8339,3.7629,0.0,3.9433,3.85,3.9298,3.937,3.8361,3.9206,3.943,3.8829,3.8115,0.0,0.0,0.0,0.0,3.4672,3.5136,3.5524,3.5845,3.6783,3.7579,3.832,3.9842,4.0542,4.0643,4.111,4.1298,4.1298,4.1298,4.1298,4.1298,4.1298,4.1298,4.1298,4.1298,4.1298,4.1298,4.1298,4.1298,4.1416,4.2016,4.2238,4.2422,4.2971,4.318,4.335,4.3873,4.399,4.395,4.3709,4.3655,4.3655,4.3655,4.3054,4.2936,4.4299,4.2637,4.0805,0.0,0.0,0.0,0.0,0.0,0.0,0.0,3.7181,0.0,3.7939,4.0325,4.1874,4.2015,4.2067,4.229,4.2695,4.403,4.4544,4.4017,4.6893,4.7807,4.6515,4.9132,4.9707,4.8229,5.0573,5.0462,4.8243,4.9375,4.9275,4.8171,4.7587,4.7309,4.722,4.6648,4.6725,4.7312,4.8388,4.9129,4.959,4.959,4.959,4.959,3.1354,0.0,0.0,0.0,0.0,3.4891,3.5317,3.5942,3.6405,3.6551,3.7716,3.8442,3.8241,3.9171,3.9753,3.9601,4.046,0.0,0.0,0.0,0.0,4.0009,4.0155,4.0005,3.9456,3.8876,3.8278,0.0,0.0,0.0,3.6046,3.6142,3.6444,3.6928,3.712,3.803,3.9456,4.0198,4.0757,4.1161,4.1261,4.1298,4.1298,4.1298,4.1298,4.1298,4.1298,4.1298,4.1298,4.1298,4.1298,4.1298,4.1298,4.1298,4.1416,4.2016,4.2513,4.2984,4.3585,4.4068,4.442,4.4525,4.4565,4.4551,4.4497,4.4484,4.4484,4.4484,4.4365,4.4141,4.3774,4.2754,4.1692,4.0831,0.0,0.0,0.0,0.0,0.0,0.0,0.0,3.9854,3.8165,3.9107,4.0173,4.1062,4.1373,4.2058,4.3278,4.3152,4.3506,4.4538,4.514,4.58,4.6488,4.7931,4.851,4.8229,5.0573,5.0462,4.8243,4.9375,4.9275,4.8185,4.8083,4.7865,4.7587,4.7191,4.7323,4.7829,4.8526,4.9129,4.959,4.959,4.959,4.959,0.0,0.0,0.0,0.0,0.0,3.6309,3.6937,3.8071,3.8563,3.7723,3.8452,3.8869,3.8426,3.9791,4.0555,4.0147,4.0846,4.1298,4.1298,4.1298,4.1181,4.088,4.0867,4.0606,4.0031,3.9749,3.9093,3.799,0.0,0.0,3.6411,3.6687,3.6952,3.7217,3.7768,3.8478,3.9296,4.0147,4.0643,4.0909,4.1186,4.1298,4.1298,4.1298,4.1298,4.1298,4.1298,4.1298,4.1298,4.1298,4.1298,4.1298,4.1298,4.152,4.1886,4.2461,4.301,4.3585,4.416,4.4499,4.4695,4.4695,4.4695,4.4695,4.4695,4.4695,4.4695,4.4695,4.4695,4.4444,4.3642,4.2793,4.2066,4.164,4.155,0.0,0.0,0.0,4.1042,0.0,0.0,0.0,3.9171,3.9083,3.9588,4.0806,4.1051,4.1696,4.298,4.2641,4.298,4.4238,4.4538,4.5139,4.6029,4.689,4.7458,4.7741,4.9212,4.9302,4.8229,4.877,4.8726,4.8185,4.8011,4.7749,4.7398,4.6921,4.7038,4.7541,4.8109,4.8689,4.9217,4.9506,4.959,4.959,0.0,3.4156,0.0,0.0,3.6702,3.7847,3.8214,3.9588,4.0089,3.8698,3.9042,3.907,3.8217,4.0032,4.0985,4.016,4.0846,4.1298,4.1298,4.1298,4.1298,4.1298,4.1298,4.1076,4.0606,4.0593,3.9916,0.0,0.0,3.7853,3.6914,3.7233,3.7426,3.758,3.8422,3.8932,3.9219,4.0109,4.0567,4.0707,4.1123,4.1298,4.1298,4.1298,4.1298,4.1298,4.1298,4.1377,4.1494,4.1494,4.1403,4.1298,4.1298,4.1716,4.2304,4.284,4.3428,4.4016,4.4538,4.4695,4.4695,4.4695,4.4695,4.4695,4.4695,4.4695,4.4695,4.4695,4.4695,4.4444,4.3642,4.308,4.2689,4.2494,4.204,4.195,0.0,0.0,0.0,0.0,0.0,0.0,4.0364,3.9918,4.0044,4.11,4.0997,4.1371,4.2461,4.2315,4.2704,4.378,4.4223,4.4731,4.5317,4.6105,4.6774,4.732,4.7911,4.82,4.82,4.82,4.82,4.8185,4.7924,4.7617,4.7265,4.6723,4.6778,4.7256,4.7722,4.8275,4.8868,4.9405,4.959,4.959,0.0,0.0,3.6432,3.6984,3.8391,3.9406,3.9207,4.0344,4.0961,4.0262,4.0705,4.0768,3.9943,4.0718,4.0985,4.016,4.0846,4.1298,4.1298,4.1298,4.1298,4.1298,4.1298,4.1272,4.122,4.122,4.0906,0.0,0.0,3.9199,3.8576,3.8127,3.8178,3.8649,3.8751,3.9375,4.0351,4.0453,4.0783,4.1223,4.1273,4.1298,4.1298,4.1298,4.1298,4.1298,4.1298,4.1651,4.2121,4.2121,4.1755,4.1298,4.1298,4.1716,4.2304,4.284,4.3428,4.4016,4.4538,4.4695,4.4695,4.4695,4.4695,4.4695,4.4695,4.4695,4.4695,4.4695,4.4695,4.4444,4.3642,4.4036,4.4233,4.3512,4.3918,4.4365,4.4444,0.0,4.3947,4.2722,0.0,0.0,4.1401,4.1644,4.1938,4.2066,4.1344,4.1293,4.2197,4.2222,4.2612,4.3512,4.3591,4.3875,4.4418,4.5799,4.6774,4.732,4.7911,4.82,4.82,4.82,4.82,4.82,4.8171,4.7967,4.7632,4.7265,4.7297,4.7582,4.7803,4.8275,4.8868,4.9405,4.959,4.959,3.7011,3.7307,3.7728,3.8591,3.9268,3.9873,4.042,4.0967,4.1207,4.0959,4.1155,4.1173,4.0871,4.111,4.1173,4.0858,4.111,4.1298,4.1298,4.1298,4.1298,4.1298,4.1298,4.1298,4.1298,4.1298,4.1035,0.0,0.0,3.9387,3.8802,3.858,3.8788,3.9348,3.9685,4.007,4.0517,4.0846,4.1098,4.1298,4.1298,4.1298,4.1298,4.1298,4.152,4.1833,4.1833,4.2199,4.2683,4.2683,4.2513,4.2265,4.1938,4.2487,4.3193,4.3036,4.3663,4.4421,4.4643,4.4695,4.4695,4.4695,4.4695,4.4695,4.4695,4.4695,4.4695,4.4695,4.4695,4.4602,4.4273,4.4089,4.4036,4.4181,4.4076,4.4155,4.4629,0.0,0.0,4.396,0.0,4.329,4.2719,4.2379,4.2209,4.2209,4.1886,4.1834,4.2183,4.2702,4.3146,4.3485,4.3971,4.4506,4.5078,4.6012,4.6774,4.732,4.7911,4.82,4.82,4.82,4.8098,4.7909,4.7909,4.7705,4.7383,4.7083,4.7027,4.7169,4.7692,4.8046,4.836,4.928,4.959,4.959,3.8425,3.8576,3.8902,3.9986,4.0177,4.0431,4.1171,4.1298,4.1298,4.1298,4.1298,4.1298,4.1298,4.1298,4.1298,4.1298,4.1298,4.1298,4.1298,4.1298,4.1298,4.1298,4.1298,4.1298,4.1298,4.1298,4.111,4.0745,4.0198,3.9723,3.9297,3.9141,3.9387,3.9942,4.0326,4.0593,4.0757,4.1135,4.1298,4.1298,4.1298,4.1403,4.1559,4.1559,4.1938,4.2447,4.2447,4.2801,4.3258,4.3258,4.3376,4.3389,4.267,4.3114,4.382,4.3389,4.3951,4.4695,4.4695,4.4695,4.4695,4.4695,4.4695,4.4695,4.4695,4.4695,4.4695,4.4695,4.4695,4.4695,4.4695,4.4247,4.4036,4.4602,4.422,4.4049,4.4615,4.4695,0.0,4.4378,4.3852,4.3512,4.3512,4.295,4.2572,4.2572,4.2806,4.2819,4.2598,4.3171,4.3512,4.3512,4.4049,4.4638,4.5211,4.6065,4.6774,4.732,4.7911,4.82,4.82,4.82,4.8011,4.7705,4.7705,4.7501,4.7176,4.6915,4.6806,4.6877,4.7617,4.7908,4.8046,4.9176,4.959,4.959,3.9481,3.9683,4.0025,4.1094,4.1286,4.1286,4.1298,4.1298,4.1298,4.1298,4.1298,4.1298,4.1298,4.1298,4.1298,4.1298,4.1298,4.1298,4.1298,4.1298,4.1298,4.1298,4.1298,4.1298,4.1298,4.1298,4.1298,4.1286,4.0745,4.0491,4.0466,3.9929,3.998,4.0491,4.0504,4.0795,4.1286,4.1298,4.1298,4.1298,4.1298,4.1651,4.2199,4.2199,4.2526,4.2984,4.2984,4.3376,4.3886,4.3886,4.4238,4.4486,4.3349,4.3415,4.3899,4.3886,4.4278,4.4695,4.4695,4.4695,4.4695,4.4695,4.4695,4.4695,4.4695,4.4695,4.4695,4.4695,4.4695,4.4695,4.4695,4.4695,4.4695,4.4695,4.4695,4.4695,4.4695,4.4695,0.0,4.3603,4.3512,4.3512,4.3512,4.3485,4.3485,4.3485,4.422,4.4312,4.3525,4.3485,4.3512,4.3512,4.3512,4.377,4.4299,4.5759,4.6774,4.732,4.7911,4.82,4.82,4.82,4.8011,4.7705,4.7705,4.7501,4.7176,4.6915,4.6806,4.6877,4.7617,4.7908,4.8046,4.9176,4.959,4.959,4.0633,4.0787,4.0902,4.1235,4.1298,4.1298,4.1298,4.1298,4.1298,4.1298,4.1298,4.1298,4.1298,4.1298,4.1298,4.1298,4.1298,4.1298,4.1298,4.1298,4.1298,4.1298,4.1298,4.1298,4.1298,4.1298,4.1298,4.1298,4.0757,4.0504,4.0504,4.0326,4.0529,4.1047,4.1047,4.1135,4.1298,4.1298,4.1298,4.1338,4.1755,4.2029,4.2238,4.2618,4.3101,4.3611,4.3611,4.3964,4.446,4.446,4.4565,4.4643,4.4264,4.429,4.4382,4.4017,4.4278,4.4695,4.4695,4.4695,4.4695,4.4695,4.4695,4.4695,4.4695,4.4695,4.4695,4.4695,4.4695,4.4695,4.4695,4.4695,4.4695,4.4695,4.4695,4.4695,4.4695,4.4695,4.4602,4.4352,4.4312,4.4312,4.4312,4.4312,4.4089,4.3537,4.3734,4.3511,4.2663,4.3708,4.4076,4.3525,4.4036,4.4795,4.5786,4.6262,4.6971,4.7924,4.8108,4.82,4.82,4.82,4.8011,4.7705,4.7705,4.7501,4.7176,4.6915,4.6806,4.6877,4.7617,4.7908,4.8046,4.9176,4.959,4.959,4.1233,4.1298,4.1298,4.1298,4.1298,4.1298,4.1298,4.1298,4.1298,4.1298,4.1298,4.1298,4.1298,4.1298,4.1298,4.1298,4.1298,4.1298,4.1298,4.1298,4.1298,4.1298,4.1298,4.1298,4.1298,4.1298,4.1298,4.1298,4.0959,4.0795,4.0795,4.0795,4.0972,4.1298,4.1298,4.1298,4.1311,4.1546,4.1638,4.169,4.2265,4.2644,4.2879,4.3206,4.3702,4.4199,4.4199,4.4421,4.4695,4.4695,4.4695,4.4695,4.4695,4.4695,4.4629,4.4304,4.4434,4.4695,4.4695,4.4695,4.4695,4.4695,4.4695,4.4695,4.4695,4.4695,4.4695,4.4695,4.4695,4.4695,4.4695,4.4695,4.4695,4.4695,4.4695,4.4695,4.4695,4.4695,4.4589,4.4286,4.4247,4.4247,4.4247,4.4247,4.4168,4.3971,4.3957,4.3708,4.3171,4.3839,4.4168,4.3957,4.4444,4.5283,4.6487,4.6501,4.7062,4.82,4.82,4.82,4.82,4.82,4.8011,4.7705,4.7705,4.7455,4.7038,4.6883,4.6731,4.6697,4.7555,4.7908,4.8046,4.9176,4.959,4.959,4.1298,4.1298,4.1298,4.1298,4.1298,4.1298,4.1298,4.1298,4.1298,4.1298,4.1298,4.1298,4.1298,4.1298,4.1298,4.1298,4.1298,4.1298,4.1298,4.1298,4.1298,4.1298,4.1298,4.1298,4.1298,4.1298,4.1298,4.1298,4.1298,4.1298,4.1298,4.1298,4.1324,4.1364,4.1364,4.139,4.1455,4.2016,4.2264,4.2304,4.284,4.3402,4.3899,4.3938,4.4264,4.4695,4.4695,4.4695,4.4695,4.4695,4.4695,4.4695,4.4695,4.4695,4.4695,4.4695,4.4695,4.4695,4.4695,4.4695,4.4695,4.4695,4.4695,4.4695,4.4695,4.4695,4.4695,4.4695,4.4695,4.4695,4.4695,4.4695,4.4695,4.4695,4.4695,4.4695,4.4695,4.4695,4.4431,4.3668,4.3577,4.3577,4.3577,4.3577,4.3865,4.4563,4.4615,4.4615,4.4615,4.3905,4.3865,4.4668,4.4747,4.5322,4.6487,4.6539,4.7115,4.82,4.82,4.82,4.82,4.82,4.8026,4.7734,4.769,4.7347,4.6823,4.6778,4.6584,4.6411,4.7493,4.7908,4.8046,4.9176,4.959,4.959,4.1298,4.1298,4.1298,4.1298,4.1298,4.1298,4.1298,4.1298,4.1298,4.1298,4.1298,4.1298,4.1298,4.1298,4.1298,4.1298,4.1298,4.1298,4.1298,4.1298,4.1298,4.1298,4.1298,4.1298,4.1298,4.1298,4.1298,4.1298,4.1298,4.1298,4.1298,4.1298,4.1546,4.199,4.199,4.22,4.2618,4.2749,4.2801,4.2853,4.3454,4.3781,4.3951,4.4343,4.4591,4.4695,4.4695,4.4695,4.4695,4.4695,4.4695,4.4695,4.4695,4.4695,4.4695,4.4695,4.4695,4.4695,4.4695,4.4695,4.4695,4.4695,4.4695,4.4695,4.4695,4.4695,4.4695,4.4695,4.4695,4.4695,4.4695,4.4695,4.4695,4.4695,4.4695,4.4695,4.4695,4.4695,4.4642,4.4444,4.4431,4.4431,4.4431,4.4431,4.4247,4.3826,4.3774,4.3774,4.3774,4.3603,4.3865,4.4668,4.5152,4.574,4.6487,4.6917,4.7478,4.82,4.82,4.82,4.82,4.82,4.8171,4.8041,4.7543,4.7248,4.707,4.6616,4.6373,4.6411,4.7493,4.7908,4.8046,4.9176,4.959,4.959,4.1298,4.1298,4.1298,4.1298,4.1298,4.1298,4.1298,4.1298,4.1298,4.1298,4.1298,4.1298,4.1298,4.1298,4.1298,4.1298,4.1298,4.1298,4.1298,4.1298,4.1298,4.1298,4.1298,4.1298,4.1298,4.1298,4.1298,4.1298,4.1298,4.1429,4.1716,4.1716,4.2029,4.2578,4.2578,4.2735,4.301,4.3297,4.3415,4.3467,4.4029,4.4264,4.4304,4.4591,4.4695,4.4695,4.4695,4.4695,4.4695,4.4695,4.4695,4.4695,4.4695,4.4695,4.4695,4.4695,4.4695,4.4695,4.4695,4.4695,4.4695,4.4695,4.4695,4.4695,4.4695,4.4695,4.4695,4.4695,4.4695,4.4695,4.4695,4.4695,4.4695,4.4695,4.4391,4.4273,4.4655,4.4378,4.4286,4.4655,4.4695,4.4695,4.4695,4.4695,4.4523,4.4076,4.4049,4.4049,4.4049,4.4049,4.4377,4.51,4.5426,4.6015,4.6865,4.744,4.7885,4.82,4.82,4.82,4.82,4.82,4.8127,4.7953,4.7587,4.7277,4.6979,4.6661,4.6434,4.6411,4.7493,4.7908,4.8046,4.9176,4.959,4.959,4.1298,4.1298,4.1298,4.1298,4.1298,4.1298,4.1298,4.1298,4.1298,4.1298,4.1298,4.1298,4.1298,4.1298,4.1298,4.1298,4.1298,4.1298,4.1298,4.1298,4.1298,4.1298,4.1298,4.1298,4.1298,4.1298,4.1298,4.1298,4.139,4.169,4.2199,4.2277,4.2618,4.3141,4.3141,4.318,4.3284,4.3807,4.4016,4.4056,4.4525,4.4695,4.4695,4.4695,4.4695,4.4695,4.4695,4.4695,4.4695,4.4695,4.4695,4.4695,4.4695,4.4695,4.4695,4.4695,4.4695,4.4695,4.4695,4.4695,4.4695,4.4695,4.4695,4.4695,4.4695,4.4695,4.4695,4.4695,4.4695,4.4695,4.4695,4.4695,4.4655,4.4536,4.4049,4.3878,4.4444,4.4036,4.3931,4.4615,4.4695,4.4695,4.4695,4.4695,4.4695,4.4695,4.4695,4.4695,4.4695,4.4786,4.5113,4.5727,4.574,4.6275,4.7425,4.7937,4.82,4.82,4.82,4.82,4.82,4.8156,4.7967,4.769,4.76,4.7273,4.6806,4.6761,4.6554,4.6399,4.739,4.7829,4.8033,4.9088,4.9543,4.959,4.1298,4.1298,4.1298,4.1298,4.1298,4.1298,4.1298,4.1298,4.1298,4.1298,4.1298,4.1298,4.1298,4.1298,4.1298,4.1298,4.1298,4.1298,4.1298,4.1298,4.1298,4.1298,4.1298,4.1298,4.1298,4.1298,4.1298,4.1298,4.1807,4.2107,4.2212,4.2657,4.3193,4.3768,4.3768,4.4003,4.4434,4.4538,4.4578,4.4591,4.4669,4.4695,4.4695,4.4695,4.4695,4.4695,4.4695,4.4695,4.4695,4.4695,4.4695,4.4695,4.4695,4.4695,4.4695,4.4695,4.4695,4.4695,4.4695,4.4695,4.4695,4.4695,4.4695,4.4695,4.4695,4.4695,4.4695,4.4695,4.4695,4.4695,4.4695,4.4695,4.4484,4.38,4.4141,4.4312,4.3761,4.4168,4.4563,4.4695,4.4695,4.4695,4.4695,4.4695,4.4695,4.4695,4.4695,4.4695,4.4695,4.5178,4.574,4.6343,4.6356,4.6906,4.8056,4.8147,4.82,4.82,4.82,4.82,4.8185,4.7909,4.7749,4.7661,4.7168,4.6883,4.6776,4.6494,4.6358,4.6361,4.6973,4.7503,4.7983,4.8664,4.9204,4.959,4.1298,4.1298,4.1298,4.1298,4.1298,4.1298,4.1298,4.1298,4.1298,4.1298,4.1298,4.1298,4.1298,4.1298,4.1298,4.1298,4.1298,4.1298,4.1298,4.1298,4.1298,4.1298,4.1298,4.1298,4.1298,4.1298,4.1298,4.1298,4.1585,4.203,4.2631,4.2879,4.348,4.433,4.433,4.4473,4.4695,4.4695,4.4695,4.4695,4.4695,4.4695,4.4695,4.4695,4.4695,4.4695,4.4695,4.4695,4.4695,4.4695,4.4695,4.4695,4.4695,4.4695,4.4695,4.4695,4.4695,4.4695,4.4695,4.4695,4.4695,4.4695,4.4695,4.4695,4.4695,4.4695,4.4695,4.4695,4.4695,4.4695,4.4695,4.4695,4.4576,4.4207,4.4089,4.4076,4.4141,4.4089,4.422,4.4655,4.4695,4.4695,4.4695,4.4695,4.4695,4.4695,4.4695,4.4838,4.5165,4.5452,4.6015,4.6903,4.7245,4.7664,4.8187,4.82,4.82,4.82,4.8011,4.7924,4.7924,4.7587,4.7351,4.7212,4.6913,4.6688,4.6509,4.6358,4.6298,4.6348,4.6885,4.744,4.797,4.8576,4.9129,4.959,4.1298,4.1298,4.1298,4.1298,4.1298,4.1298,4.1298,4.1298,4.1298,4.1298,4.1298,4.1298,4.1298,4.1298,4.1298,4.1298,4.1298,4.1298,4.1298,4.1298,4.1298,4.1298,4.1298,4.1298,4.1298,4.1298,4.1298,4.1298,4.1429,4.1964,4.2814,4.3088,4.3676,4.4525,4.4643,4.4695,4.4695,4.4695,4.4695,4.4695,4.4695,4.4695,4.4695,4.4695,4.4695,4.4695,4.4695,4.4695,4.4695,4.4695,4.4695,4.4695,4.4695,4.4695,4.4695,4.4695,4.4695,4.4695,4.4695,4.4695,4.4695,4.4695,4.4695,4.4695,4.4695,4.4695,4.4695,4.4695,4.4695,4.4695,4.4695,4.4695,4.4642,4.4444,4.4049,4.3931,4.4352,4.4049,4.401,4.4642,4.4695,4.4695,4.4695,4.4695,4.4695,4.4695,4.4695,4.4956,4.557,4.574,4.6328,4.7464,4.7963,4.82,4.82,4.82,4.82,4.82,4.7865,4.7705,4.769,4.7292,4.6991,4.6806,4.6716,4.6539,4.6298,4.6298,4.6298,4.6348,4.6885,4.744,4.797,4.8576,4.9129,4.9577,4.1298,4.1298,4.1298,4.1298,4.1298,4.1298,4.1298,4.1298,4.1298,4.1298,4.1298,4.1298,4.1298,4.1298,4.1298,4.1298,4.1298,4.1298,4.1298,4.1298,4.1298,4.1298,4.1298,4.1298,4.1298,4.1298,4.1298,4.1298,4.1859,4.2186,4.2277,4.3337,4.3886,4.399,4.4473,4.4695,4.4695,4.4695,4.4695,4.4695,4.4695,4.4695,4.4695,4.4695,4.4695,4.4695,4.4695,4.4695,4.4695,4.4695,4.4695,4.4695,4.4695,4.4695,4.4695,4.4695,4.4695,4.4695,4.4695,4.4695,4.4695,4.4695,4.4695,4.4695,4.4695,4.4695,4.4695,4.4695,4.4695,4.4695,4.4695,4.4695,4.447,4.3721,4.4168,4.4365,4.3682,4.4181,4.4629,4.4695,4.4695,4.4695,4.4695,4.4695,4.4695,4.4695,4.4695,4.4956,4.557,4.6133,4.6958,4.8095,4.8174,4.82,4.82,4.82,4.82,4.82,4.7865,4.7705,4.7676,4.7093,4.6821,4.6778,4.6464,4.6328,4.6298,4.6298,4.6298,4.6348,4.6885,4.744,4.797,4.8576,4.9129,4.9543,4.1298,4.1298,4.1298,4.1298,4.1298,4.1298,4.1298,4.1298,4.1298,4.1298,4.1298,4.1298,4.1298,4.1298,4.1298,4.1298,4.1298,4.1298,4.1298,4.1298,4.1298,4.1298,4.1298,4.1298,4.1298,4.1298,4.1298,4.1298,4.1533,4.1833,4.2225,4.2984,4.3546,4.3925,4.446,4.4695,4.4695,4.4695,4.4695,4.4695,4.4695,4.4695,4.4695,4.4695,4.4695,4.4695,4.4695,4.4695,4.4695,4.4695,4.4695,4.4695,4.4695,4.4695,4.4695,4.4695,4.4695,4.4695,4.4695,4.4695,4.4695,4.4695,4.4695,4.4695,4.4695,4.4695,4.4695,4.4695,4.4695,4.4695,4.4695,4.4695,4.4602,4.4299,4.4497,4.4589,4.4286,4.451,4.4695,4.4695,4.4695,4.4695,4.4695,4.4695,4.4695,4.4695,4.4695,4.5139,4.6107,4.7049,4.7742,4.8187,4.82,4.82,4.82,4.82,4.82,4.8185,4.7646,4.7383,4.7368,4.678,4.6494,4.6479,4.6358,4.6298,4.6298,4.6298,4.6298,4.6348,4.6885,4.744,4.797,4.8576,4.8931,4.9066,4.1298,4.1298,4.1298,4.1298,4.1298,4.1298,4.1298,4.1298,4.1298,4.1298,4.1298,4.1298,4.1298,4.1298,4.1298,4.1298,4.1298,4.1298,4.1298,4.1298,4.1298,4.1298,4.1298,4.1298,4.1298,4.1298,4.1298,4.1298,4.1298,4.152,4.1925,4.2487,4.3062,4.365,4.4199,4.4538,4.4695,4.4695,4.4695,4.4695,4.4695,4.4695,4.4695,4.4695,4.4695,4.4695,4.4695,4.4695,4.4695,4.4695,4.4695,4.4695,4.4695,4.4695,4.4695,4.4695,4.4695,4.4695,4.4695,4.4695,4.4695,4.4695,4.4695,4.4695,4.4695,4.4695,4.4695,4.4695,4.4695,4.4695,4.4695,4.4695,4.4695,4.4695,4.4695,4.4695,4.4695,4.4695,4.4695,4.4695,4.4695,4.4695,4.4695,4.4695,4.4695,4.4695,4.4695,4.5231,4.6449,4.7388,4.7989,4.8187,4.82,4.8156,4.8041,4.8041,4.8041,4.8041,4.7381,4.7083,4.7068,4.6541,4.6298,4.6298,4.6298,4.6298,4.6298,4.6298,4.6399,4.6612,4.7136,4.7691,4.8222,4.8655,4.8806,4.8755,4.1298,4.1298,4.1298,4.1298,4.1298,4.1298,4.1298,4.1298,4.1298,4.1298,4.1298,4.1298,4.1298,4.1298,4.1298,4.1298,4.1298,4.1298,4.1298,4.1298,4.1298,4.1298,4.1298,4.1298,4.1298,4.1298,4.1298,4.1298,4.1298,4.1298,4.1311,4.1912,4.2474,4.301,4.3624,4.4199,4.4695,4.4695,4.4695,4.4695,4.4695,4.4695,4.4695,4.4695,4.4695,4.4695,4.4695,4.4695,4.4695,4.4695,4.4695,4.4695,4.4695,4.4695,4.4695,4.4695,4.4695,4.4695,4.4695,4.4695,4.4695,4.4695,4.4695,4.4695,4.4695,4.4695,4.4695,4.4695,4.4695,4.4695,4.4695,4.4695,4.4695,4.4695,4.4695,4.4695,4.4695,4.4695,4.4695,4.4695,4.4695,4.4695,4.4695,4.4695,4.4695,4.4695,4.4695,4.5231,4.6449,4.7008,4.7583,4.8174,4.82,4.8041,4.7705,4.7705,4.7705,4.769,4.7093,4.6806,4.6791,4.6449,4.6298,4.6298,4.6298,4.6298,4.6298,4.6298,4.6624,4.7149,4.7691,4.8275,4.8793,4.8806,4.8793,4.8614,4.1298,4.1298,4.1298,4.1298,4.1298,4.1298,4.1298,4.1298,4.1298,4.1298,4.1298,4.1298,4.1298,4.1298,4.1298,4.1298,4.1298,4.1298,4.1298,4.1298,4.1298,4.1298,4.1298,4.1298,4.1298,4.1298,4.1298,4.1298,4.1298,4.1298,4.1311,4.1912,4.2291,4.2474,4.3467,4.399,4.416,4.4538,4.4695,4.4695,4.4695,4.4695,4.4695,4.4695,4.4695,4.4695,4.4695,4.4695,4.4695,4.4695,4.4695,4.4695,4.4695,4.4695,4.4695,4.4695,4.4695,4.4695,4.4695,4.4695,4.4695,4.4695,4.4695,4.4695,4.4695,4.4695,4.4695,4.4695,4.4695,4.4695,4.4695,4.4695,4.4695,4.4695,4.4695,4.4695,4.4695,4.4695,4.4695,4.4695,4.4695,4.4695,4.4695,4.4695,4.4695,4.4695,4.51,4.5675,4.6461,4.7008,4.7583,4.8174,4.7967,4.7793,4.7705,4.7705,4.7587,4.7339,4.6974,4.6806,4.6791,4.6449,4.6298,4.6298,4.6298,4.6298,4.6298,4.6298,4.6624,4.7149,4.7691,4.8008,4.8222,4.8639,4.83,4.7553,4.1373,4.1298,4.1298,4.1298,4.1298,4.1298,4.1298,4.1298,4.1298,4.1298,4.1298,4.1298,4.1298,4.1298,4.1298,4.1298,4.1298,4.1298,4.1298,4.1298,4.1298,4.1298,4.1298,4.1298,4.1298,4.1298,4.1298,4.1298,4.1298,4.1298,4.1311,4.1664,4.1977,4.2238,4.3141,4.3677,4.3938,4.4473,4.4695,4.4695,4.4695,4.4695,4.4695,4.4695,4.4695,4.4695,4.4695,4.4695,4.4695,4.4695,4.4695,4.4695,4.4695,4.4695,4.4695,4.4695,4.4695,4.4695,4.4695,4.4695,4.4695,4.4695,4.4695,4.4695,4.4695,4.4695,4.4695,4.4695,4.4695,4.4695,4.4695,4.4695,4.4695,4.4695,4.4695,4.4695,4.4695,4.4695,4.4695,4.4695,4.4695,4.4695,4.4695,4.4695,4.4695,4.4695,4.5047,4.5554,4.6252,4.6615,4.7104,4.778,4.7617,4.7455,4.7347,4.7347,4.7244,4.7038,4.6736,4.6599,4.6599,4.6388,4.6298,4.6298,4.6298,4.6298,4.6311,4.6537,4.6938,4.7453,4.7767,4.8046,4.825,4.8159,4.7691,4.7074,4.1473,4.1298,4.1298,4.1298,4.1298,4.1298,4.1298,4.1298,4.1298,4.1298,4.1298,4.1298,4.1298,4.1298,4.1298,4.1298,4.1298,4.1298,4.1298,4.1298,4.1298,4.1298,4.1298,4.1298,4.1298,4.1298,4.1298,4.1298,4.1298,4.1298,4.1298,4.1298,4.1585,4.2134,4.2683,4.3258,4.386,4.4395,4.4656,4.4695,4.4695,4.4695,4.4695,4.4695,4.4695,4.4695,4.4695,4.4695,4.4695,4.4695,4.4695,4.4695,4.4695,4.4695,4.4695,4.4695,4.4695,4.4695,4.4695,4.4695,4.4695,4.4695,4.4695,4.4695,4.4695,4.4695,4.4695,4.4695,4.4695,4.4695,4.4695,4.4695,4.4695,4.4695,4.4695,4.4695,4.4695,4.4695,4.4695,4.4695,4.4695,4.4695,4.4695,4.4695,4.4695,4.4695,4.4681,4.5053,4.5957,4.598,4.634,4.7167,4.7176,4.7053,4.6806,4.6763,4.6761,4.6761,4.6449,4.6298,4.6298,4.6298,4.6298,4.6298,4.6298,4.6298,4.6336,4.6873,4.739,4.7829,4.788,4.8209,4.8513,4.749,4.7074,4.6961,4.1336,4.1298,4.1298,4.1298,4.1298,4.1298,4.1298,4.1298,4.1298,4.1298,4.1298,4.1298,4.1298,4.1298,4.1298,4.1298,4.1298,4.1298,4.1298,4.1298,4.1298,4.1298,4.1298,4.1298,4.1298,4.1298,4.1298,4.1298,4.1298,4.1298,4.1298,4.1298,4.1364,4.152,4.2108,4.2683,4.3232,4.382,4.4317,4.4695,4.4695,4.4695,4.4695,4.4695,4.4695,4.4695,4.4695,4.4695,4.4695,4.4695,4.4695,4.4695,4.4695,4.4695,4.4695,4.4695,4.4695,4.4695,4.4695,4.4695,4.4695,4.4695,4.4695,4.4695,4.4695,4.4695,4.4695,4.4695,4.4695,4.4695,4.4695,4.4695,4.4695,4.4695,4.4695,4.4695,4.4695,4.4695,4.4695,4.4695,4.4695,4.4695,4.4695,4.4695,4.4695,4.4695,4.4504,4.486,4.5943,4.5808,4.6152,4.7167,4.7006,4.6853,4.6806,4.6539,4.6419,4.6419,4.6328,4.6298,4.6298,4.6298,4.6298,4.6298,4.6298,4.6298,4.6336,4.6873,4.7174,4.7327,4.7741,4.7716,4.744,4.7186,4.6835,4.6461,4.1498,4.1298,4.1298,4.1298,4.1298,4.1298,4.1298,4.1298,4.1298,4.1298,4.1298,4.1298,4.1298,4.1298,4.1298,4.1298,4.1298,4.1298,4.1298,4.1298,4.1298,4.1298,4.1298,4.1298,4.1298,4.1298,4.1298,4.1298,4.1298,4.1298,4.1298,4.1298,4.1298,4.1338,4.1925,4.25,4.3049,4.3637,4.4199,4.4695,4.4695,4.4695,4.4695,4.4695,4.4695,4.4695,4.4695,4.4695,4.4695,4.4695,4.4695,4.4695,4.4695,4.4695,4.4695,4.4695,4.4695,4.4695,4.4695,4.4695,4.4695,4.4695,4.4695,4.4695,4.4695,4.4695,4.4695,4.4695,4.4695,4.4695,4.4695,4.4695,4.4695,4.4695,4.4695,4.4695,4.4695,4.4695,4.4695,4.4695,4.4695,4.4654,4.4518,4.4504,4.445,4.4326,4.4189,4.454,4.5517,4.5438,4.5788,4.6747,4.6631,4.6554,4.6554,4.6388,4.6298,4.6298,4.6298,4.6298,4.6298,4.6298,4.6298,4.6298,4.6298,4.6298,4.6336,4.6873,4.7099,4.7136,4.74,4.735,4.7074,4.681,4.6537,4.6298,4.1747,4.1482,4.1498,4.1323,4.1298,4.1298,4.1298,4.1298,4.1298,4.1298,4.1298,4.1298,4.1298,4.1298,4.1298,4.1298,4.1298,4.1298,4.1298,4.1298,4.1298,4.1298,4.1298,4.1298,4.1298,4.1298,4.1298,4.1298,4.1298,4.1298,4.1298,4.1298,4.1298,4.1324,4.182,4.2356,4.2905,4.348,4.4055,4.4578,4.4656,4.4695,4.4695,4.4695,4.4695,4.4695,4.4695,4.4695,4.4695,4.4695,4.4695,4.4695,4.4695,4.4695,4.4695,4.4695,4.4681,4.464,4.4681,4.4681,4.464,4.4681,4.4695,4.4695,4.4695,4.4695,4.4695,4.4695,4.4695,4.4695,4.4695,4.4695,4.4695,4.4695,4.4695,4.4695,4.4695,4.4695,4.4695,4.4695,4.4667,4.4545,4.4326,4.4258,4.4148,4.3927,4.3845,4.4192,4.5057,4.505,4.5409,4.6276,4.6298,4.6298,4.6298,4.6298,4.6298,4.6298,4.6298,4.6298,4.6298,4.6298,4.6298,4.6298,4.6298,4.6298,4.6336,4.6873,4.7048,4.6973,4.7061,4.7048,4.691,4.6461,4.6298,4.6298,4.1961,4.22,4.2321,4.1448,4.1298,4.1298,4.1298,4.1298,4.1298,4.1298,4.1298,4.1298,4.1298,4.1298,4.1298,4.1298,4.1298,4.1298,4.1298,4.1298,4.1298,4.1298,4.1298,4.1298,4.1298,4.1298,4.1298,4.1298,4.1298,4.1298,4.1298,4.1298,4.1298,4.1298,4.139,4.1742,4.2343,4.2892,4.3467,4.4043,4.4512,4.4695,4.4695,4.4695,4.4695,4.4695,4.4695,4.4695,4.4695,4.4695,4.4695,4.4695,4.4695,4.4695,4.4695,4.4695,4.4545,4.4408,4.464,4.4531,4.4408,4.464,4.4695,4.4695,4.4695,4.4695,4.4695,4.4695,4.4695,4.4695,4.4695,4.4695,4.4695,4.4695,4.4695,4.4695,4.4695,4.4695,4.4695,4.4695,4.4491,4.434,4.4299,4.4093,4.3941,4.3899,4.3627,4.3943,4.5043,4.4834,4.5175,4.6261,4.6298,4.6298,4.6298,4.6298,4.6298,4.6298,4.6298,4.6298,4.6298,4.6298,4.6298,4.6298,4.6298,4.6298,4.6336,4.6873,4.6823,4.6449,4.691,4.681,4.6399,4.6323,4.6298,4.6298,4.2764,4.2422,4.222,4.2145,4.1671,4.1298,4.1298,4.1298,4.1298,4.1298,4.1298,4.1298,4.1298,4.1298,4.1298,4.1298,4.1298,4.1298,4.1298,4.1298,4.1298,4.1298,4.1298,4.1298,4.1298,4.1298,4.1298,4.1298,4.1298,4.1298,4.1298,4.1298,4.1298,4.1298,4.1298,4.1638,4.2225,4.2448,4.3075,4.3925,4.416,4.4434,4.4695,4.4695,4.4695,4.4695,4.4695,4.4695,4.4695,4.4695,4.4599,4.4477,4.4477,4.4477,4.4477,4.4477,4.4395,4.4326,4.4436,4.4395,4.4326,4.445,4.4477,4.4477,4.4477,4.4477,4.4518,4.4681,4.4695,4.4695,4.4695,4.4586,4.4477,4.4477,4.4354,4.4244,4.4244,4.4244,4.4244,4.4244,4.4148,4.3998,4.382,4.3696,4.357,4.3404,4.3266,4.3662,4.4756,4.4689,4.5118,4.6261,4.6298,4.6298,4.6298,4.6298,4.6298,4.6298,4.6298,4.6298,4.6298,4.6298,4.6298,4.6298,4.6298,4.6298,4.6311,4.6562,4.6512,4.6323,4.6562,4.6512,4.6298,4.6298,4.6298,4.6298]}]]